<?xml version="1.0" encoding="UTF-8" standalone="no" ?>
<gpx xmlns="http://www.topografix.com/GPX/1/1" xmlns:xsi="http://www.w3.org/2001/XMLSchema-instance" xsi:schemaLocation="http://www.topografix.com/GPX/1/1 http://www.topografix.com/GPX/1/1/gpx.xsd" version="1.1" creator="VisuGPX - https://www.visugpx.com">
  <metadata>
    <name>Brevet du randonneur 2013, trace seconde moitié du parcours</name>
    <desc><![CDATA[Vous pouvez voir ici la trace GPX de la seconde partie du Brevet du randonneur 2013 (organisée par le CAF-CMC). Il s\'agit de la partie du parcours qui va de la barrière sur le ch. rouge \"au dessus des toits\", jusqu\'à l\'arrivée derrière les tours du Roy d\'Espagne, en passant par le sommet de Marseilleveyre. Le GPS a été chahuté en longeant les toits, les stats en sont donc un peu faussées mais restent pertinentes. La première partie du parcours est sur une autre page.]]></desc>
  </metadata>
  <trk>
    <name><![CDATA[29032013_120121.gpx]]></name>
    <trkseg>
      <trkpt lat="43.21461" lon="5.45221">
        <ele>213.06934</ele>
        <time>2013-03-29T11:01:21.000Z</time>
      </trkpt>
      <trkpt lat="43.21466" lon="5.45215">
        <ele>213.06934</ele>
        <time>2013-03-29T11:01:25.000Z</time>
      </trkpt>
      <trkpt lat="43.21478" lon="5.45206">
        <ele>213.06934</ele>
        <time>2013-03-29T11:01:31.000Z</time>
      </trkpt>
      <trkpt lat="43.21493" lon="5.45196">
        <ele>213.55005</ele>
        <time>2013-03-29T11:01:38.000Z</time>
      </trkpt>
      <trkpt lat="43.21508" lon="5.45193">
        <ele>214.03064</ele>
        <time>2013-03-29T11:01:44.000Z</time>
      </trkpt>
      <trkpt lat="43.21522" lon="5.45195">
        <ele>214.51123</ele>
        <time>2013-03-29T11:01:49.000Z</time>
      </trkpt>
      <trkpt lat="43.21533" lon="5.45197">
        <ele>214.99194</ele>
        <time>2013-03-29T11:01:53.000Z</time>
      </trkpt>
      <trkpt lat="43.21546" lon="5.45198">
        <ele>215.47266</ele>
        <time>2013-03-29T11:01:58.000Z</time>
      </trkpt>
      <trkpt lat="43.21557" lon="5.45196">
        <ele>216.43396</ele>
        <time>2013-03-29T11:02:02.000Z</time>
      </trkpt>
      <trkpt lat="43.21571" lon="5.45196">
        <ele>216.43396</ele>
        <time>2013-03-29T11:02:07.000Z</time>
      </trkpt>
      <trkpt lat="43.21581" lon="5.45197">
        <ele>216.91467</ele>
        <time>2013-03-29T11:02:11.000Z</time>
      </trkpt>
      <trkpt lat="43.21588" lon="5.45197">
        <ele>217.39539</ele>
        <time>2013-03-29T11:02:15.000Z</time>
      </trkpt>
      <trkpt lat="43.21592" lon="5.45196">
        <ele>219.318</ele>
        <time>2013-03-29T11:02:21.000Z</time>
      </trkpt>
      <trkpt lat="43.21594" lon="5.45195">
        <ele>220.27917</ele>
        <time>2013-03-29T11:02:27.000Z</time>
      </trkpt>
      <trkpt lat="43.21593" lon="5.45193">
        <ele>220.75989</ele>
        <time>2013-03-29T11:02:31.000Z</time>
      </trkpt>
      <trkpt lat="43.21593" lon="5.45192">
        <ele>221.2406</ele>
        <time>2013-03-29T11:02:38.000Z</time>
      </trkpt>
      <trkpt lat="43.21596" lon="5.45192">
        <ele>221.2406</ele>
        <time>2013-03-29T11:03:08.000Z</time>
      </trkpt>
      <trkpt lat="43.21594" lon="5.45193">
        <ele>222.20178</ele>
        <time>2013-03-29T11:03:16.000Z</time>
      </trkpt>
      <trkpt lat="43.21593" lon="5.45191">
        <ele>221.72119</ele>
        <time>2013-03-29T11:03:17.000Z</time>
      </trkpt>
      <trkpt lat="43.21586" lon="5.45178">
        <ele>220.27917</ele>
        <time>2013-03-29T11:03:21.000Z</time>
      </trkpt>
      <trkpt lat="43.21585" lon="5.45173">
        <ele>218.83728</ele>
        <time>2013-03-29T11:03:24.000Z</time>
      </trkpt>
      <trkpt lat="43.21583" lon="5.45169">
        <ele>216.91467</ele>
        <time>2013-03-29T11:03:27.000Z</time>
      </trkpt>
      <trkpt lat="43.21583" lon="5.45164">
        <ele>216.43396</ele>
        <time>2013-03-29T11:03:29.000Z</time>
      </trkpt>
      <trkpt lat="43.21575" lon="5.4515">
        <ele>211.62744</ele>
        <time>2013-03-29T11:03:34.000Z</time>
      </trkpt>
      <trkpt lat="43.21573" lon="5.45147">
        <ele>210.66602</ele>
        <time>2013-03-29T11:03:35.000Z</time>
      </trkpt>
      <trkpt lat="43.21559" lon="5.45136">
        <ele>204.89807</ele>
        <time>2013-03-29T11:03:40.000Z</time>
      </trkpt>
      <trkpt lat="43.21548" lon="5.45134">
        <ele>196.72693</ele>
        <time>2013-03-29T11:03:44.000Z</time>
      </trkpt>
      <trkpt lat="43.21545" lon="5.45133">
        <ele>195.76562</ele>
        <time>2013-03-29T11:03:45.000Z</time>
      </trkpt>
      <trkpt lat="43.21538" lon="5.45128">
        <ele>193.84302</ele>
        <time>2013-03-29T11:03:49.000Z</time>
      </trkpt>
      <trkpt lat="43.21531" lon="5.4512">
        <ele>191.43958</ele>
        <time>2013-03-29T11:03:56.000Z</time>
      </trkpt>
      <trkpt lat="43.21529" lon="5.45119">
        <ele>191.43958</ele>
        <time>2013-03-29T11:03:57.000Z</time>
      </trkpt>
      <trkpt lat="43.21519" lon="5.45111">
        <ele>191.92029</ele>
        <time>2013-03-29T11:04:02.000Z</time>
      </trkpt>
      <trkpt lat="43.2151" lon="5.45107">
        <ele>191.43958</ele>
        <time>2013-03-29T11:04:07.000Z</time>
      </trkpt>
      <trkpt lat="43.21498" lon="5.45109">
        <ele>192.40112</ele>
        <time>2013-03-29T11:04:12.000Z</time>
      </trkpt>
      <trkpt lat="43.21492" lon="5.45108">
        <ele>193.3623</ele>
        <time>2013-03-29T11:04:16.000Z</time>
      </trkpt>
      <trkpt lat="43.2149" lon="5.45109">
        <ele>194.32373</ele>
        <time>2013-03-29T11:04:18.000Z</time>
      </trkpt>
      <trkpt lat="43.21483" lon="5.45111">
        <ele>195.76562</ele>
        <time>2013-03-29T11:04:22.000Z</time>
      </trkpt>
      <trkpt lat="43.21478" lon="5.4512">
        <ele>197.68823</ele>
        <time>2013-03-29T11:04:27.000Z</time>
      </trkpt>
      <trkpt lat="43.21476" lon="5.45125">
        <ele>197.68823</ele>
        <time>2013-03-29T11:04:29.000Z</time>
      </trkpt>
      <trkpt lat="43.21473" lon="5.45127">
        <ele>197.68823</ele>
        <time>2013-03-29T11:04:32.000Z</time>
      </trkpt>
      <trkpt lat="43.2147" lon="5.4513">
        <ele>198.16895</ele>
        <time>2013-03-29T11:04:36.000Z</time>
      </trkpt>
      <trkpt lat="43.21465" lon="5.45133">
        <ele>196.24634</ele>
        <time>2013-03-29T11:04:42.000Z</time>
      </trkpt>
      <trkpt lat="43.21456" lon="5.45148">
        <ele>194.32373</ele>
        <time>2013-03-29T11:04:48.000Z</time>
      </trkpt>
      <trkpt lat="43.21454" lon="5.45149">
        <ele>193.84302</ele>
        <time>2013-03-29T11:04:49.000Z</time>
      </trkpt>
      <trkpt lat="43.2145" lon="5.45158">
        <ele>189.51697</ele>
        <time>2013-03-29T11:04:55.000Z</time>
      </trkpt>
      <trkpt lat="43.21449" lon="5.4516">
        <ele>189.99768</ele>
        <time>2013-03-29T11:05:04.000Z</time>
      </trkpt>
      <trkpt lat="43.21448" lon="5.45161">
        <ele>189.51697</ele>
        <time>2013-03-29T11:05:12.000Z</time>
      </trkpt>
      <trkpt lat="43.21445" lon="5.45166">
        <ele>188.07507</ele>
        <time>2013-03-29T11:05:17.000Z</time>
      </trkpt>
      <trkpt lat="43.21446" lon="5.45168">
        <ele>185.67175</ele>
        <time>2013-03-29T11:05:20.000Z</time>
      </trkpt>
      <trkpt lat="43.21444" lon="5.45175">
        <ele>180.86523</ele>
        <time>2013-03-29T11:05:26.000Z</time>
      </trkpt>
      <trkpt lat="43.21444" lon="5.45174">
        <ele>188.07507</ele>
        <time>2013-03-29T11:05:33.000Z</time>
      </trkpt>
      <trkpt lat="43.2144" lon="5.45174">
        <ele>190.4784</ele>
        <time>2013-03-29T11:05:37.000Z</time>
      </trkpt>
      <trkpt lat="43.21437" lon="5.45179">
        <ele>192.40112</ele>
        <time>2013-03-29T11:05:41.000Z</time>
      </trkpt>
      <trkpt lat="43.21434" lon="5.4518">
        <ele>196.72693</ele>
        <time>2013-03-29T11:05:46.000Z</time>
      </trkpt>
      <trkpt lat="43.21433" lon="5.45182">
        <ele>196.72693</ele>
        <time>2013-03-29T11:05:47.000Z</time>
      </trkpt>
      <trkpt lat="43.2143" lon="5.45184">
        <ele>203.45618</ele>
        <time>2013-03-29T11:05:52.000Z</time>
      </trkpt>
      <trkpt lat="43.21428" lon="5.45187">
        <ele>201.53357</ele>
        <time>2013-03-29T11:05:59.000Z</time>
      </trkpt>
      <trkpt lat="43.21423" lon="5.45192">
        <ele>199.13013</ele>
        <time>2013-03-29T11:06:06.000Z</time>
      </trkpt>
      <trkpt lat="43.21417" lon="5.45196">
        <ele>187.11377</ele>
        <time>2013-03-29T11:06:24.000Z</time>
      </trkpt>
      <trkpt lat="43.21412" lon="5.45196">
        <ele>190.4784</ele>
        <time>2013-03-29T11:06:31.000Z</time>
      </trkpt>
      <trkpt lat="43.21406" lon="5.452">
        <ele>198.16895</ele>
        <time>2013-03-29T11:06:36.000Z</time>
      </trkpt>
      <trkpt lat="43.21403" lon="5.45205">
        <ele>203.45618</ele>
        <time>2013-03-29T11:06:40.000Z</time>
      </trkpt>
      <trkpt lat="43.214" lon="5.45209">
        <ele>210.18542</ele>
        <time>2013-03-29T11:06:45.000Z</time>
      </trkpt>
      <trkpt lat="43.21397" lon="5.45209">
        <ele>227.96973</ele>
        <time>2013-03-29T11:06:54.000Z</time>
      </trkpt>
      <trkpt lat="43.21395" lon="5.4521">
        <ele>234.21838</ele>
        <time>2013-03-29T11:06:59.000Z</time>
      </trkpt>
      <trkpt lat="43.21392" lon="5.45212">
        <ele>237.1023</ele>
        <time>2013-03-29T11:07:04.000Z</time>
      </trkpt>
      <trkpt lat="43.21387" lon="5.4521">
        <ele>238.54431</ele>
        <time>2013-03-29T11:07:09.000Z</time>
      </trkpt>
      <trkpt lat="43.21386" lon="5.45203">
        <ele>225.08594</ele>
        <time>2013-03-29T11:07:28.000Z</time>
      </trkpt>
      <trkpt lat="43.21384" lon="5.4521">
        <ele>227.00854</ele>
        <time>2013-03-29T11:07:30.000Z</time>
      </trkpt>
      <trkpt lat="43.21381" lon="5.45213">
        <ele>231.81494</ele>
        <time>2013-03-29T11:07:33.000Z</time>
      </trkpt>
      <trkpt lat="43.21378" lon="5.45219">
        <ele>249.59949</ele>
        <time>2013-03-29T11:07:39.000Z</time>
      </trkpt>
      <trkpt lat="43.21376" lon="5.45219">
        <ele>253.92542</ele>
        <time>2013-03-29T11:07:40.000Z</time>
      </trkpt>
      <trkpt lat="43.21372" lon="5.4522">
        <ele>259.21265</ele>
        <time>2013-03-29T11:07:43.000Z</time>
      </trkpt>
      <trkpt lat="43.21363" lon="5.45214">
        <ele>276.51636</ele>
        <time>2013-03-29T11:07:48.000Z</time>
      </trkpt>
      <trkpt lat="43.21353" lon="5.45214">
        <ele>292.85876</ele>
        <time>2013-03-29T11:07:53.000Z</time>
      </trkpt>
      <trkpt lat="43.21348" lon="5.45216">
        <ele>303.43323</ele>
        <time>2013-03-29T11:07:59.000Z</time>
      </trkpt>
      <trkpt lat="43.21342" lon="5.45222">
        <ele>307.27856</ele>
        <time>2013-03-29T11:08:03.000Z</time>
      </trkpt>
      <trkpt lat="43.21338" lon="5.4522">
        <ele>306.31726</ele>
        <time>2013-03-29T11:08:06.000Z</time>
      </trkpt>
      <trkpt lat="43.2134" lon="5.45209">
        <ele>301.0299</ele>
        <time>2013-03-29T11:08:14.000Z</time>
      </trkpt>
      <trkpt lat="43.2134" lon="5.4521">
        <ele>301.0299</ele>
        <time>2013-03-29T11:08:16.000Z</time>
      </trkpt>
      <trkpt lat="43.21332" lon="5.45224">
        <ele>305.83667</ele>
        <time>2013-03-29T11:08:22.000Z</time>
      </trkpt>
      <trkpt lat="43.21324" lon="5.45233">
        <ele>308.23987</ele>
        <time>2013-03-29T11:08:26.000Z</time>
      </trkpt>
      <trkpt lat="43.21317" lon="5.4524">
        <ele>306.31726</ele>
        <time>2013-03-29T11:08:30.000Z</time>
      </trkpt>
      <trkpt lat="43.21316" lon="5.45243">
        <ele>306.79785</ele>
        <time>2013-03-29T11:08:31.000Z</time>
      </trkpt>
      <trkpt lat="43.21315" lon="5.45252">
        <ele>305.35596</ele>
        <time>2013-03-29T11:08:36.000Z</time>
      </trkpt>
      <trkpt lat="43.21319" lon="5.45264">
        <ele>294.78137</ele>
        <time>2013-03-29T11:08:40.000Z</time>
      </trkpt>
      <trkpt lat="43.21318" lon="5.45275">
        <ele>284.68762</ele>
        <time>2013-03-29T11:08:46.000Z</time>
      </trkpt>
      <trkpt lat="43.21321" lon="5.45295">
        <ele>272.19043</ele>
        <time>2013-03-29T11:08:51.000Z</time>
      </trkpt>
      <trkpt lat="43.21327" lon="5.45319">
        <ele>247.19604</ele>
        <time>2013-03-29T11:08:55.000Z</time>
      </trkpt>
      <trkpt lat="43.21338" lon="5.45349">
        <ele>216.43396</ele>
        <time>2013-03-29T11:08:59.000Z</time>
      </trkpt>
      <trkpt lat="43.21348" lon="5.45379">
        <ele>182.78784</ele>
        <time>2013-03-29T11:09:03.000Z</time>
      </trkpt>
      <trkpt lat="43.21353" lon="5.454">
        <ele>152.98694</ele>
        <time>2013-03-29T11:09:07.000Z</time>
      </trkpt>
      <trkpt lat="43.21353" lon="5.45435">
        <ele>115.01489</ele>
        <time>2013-03-29T11:09:14.000Z</time>
      </trkpt>
      <trkpt lat="43.21351" lon="5.45447">
        <ele>108.766235</ele>
        <time>2013-03-29T11:09:18.000Z</time>
      </trkpt>
      <trkpt lat="43.21355" lon="5.45454">
        <ele>104.44043</ele>
        <time>2013-03-29T11:09:22.000Z</time>
      </trkpt>
      <trkpt lat="43.21356" lon="5.45457">
        <ele>103.479004</ele>
        <time>2013-03-29T11:09:28.000Z</time>
      </trkpt>
      <trkpt lat="43.21356" lon="5.45459">
        <ele>103.95972</ele>
        <time>2013-03-29T11:09:33.000Z</time>
      </trkpt>
      <trkpt lat="43.21352" lon="5.45459">
        <ele>106.84363</ele>
        <time>2013-03-29T11:09:36.000Z</time>
      </trkpt>
      <trkpt lat="43.21356" lon="5.45475">
        <ele>105.88245</ele>
        <time>2013-03-29T11:09:43.000Z</time>
      </trkpt>
      <trkpt lat="43.21357" lon="5.4548">
        <ele>104.44043</ele>
        <time>2013-03-29T11:09:45.000Z</time>
      </trkpt>
      <trkpt lat="43.21361" lon="5.45493">
        <ele>106.36304</ele>
        <time>2013-03-29T11:09:51.000Z</time>
      </trkpt>
      <trkpt lat="43.21362" lon="5.45496">
        <ele>107.80505</ele>
        <time>2013-03-29T11:09:53.000Z</time>
      </trkpt>
      <trkpt lat="43.21358" lon="5.45496">
        <ele>109.24695</ele>
        <time>2013-03-29T11:09:56.000Z</time>
      </trkpt>
      <trkpt lat="43.21351" lon="5.45492">
        <ele>111.65027</ele>
        <time>2013-03-29T11:10:00.000Z</time>
      </trkpt>
      <trkpt lat="43.21348" lon="5.45494">
        <ele>115.9762</ele>
        <time>2013-03-29T11:10:05.000Z</time>
      </trkpt>
      <trkpt lat="43.21347" lon="5.45498">
        <ele>115.01489</ele>
        <time>2013-03-29T11:10:07.000Z</time>
      </trkpt>
      <trkpt lat="43.21341" lon="5.45507">
        <ele>114.05359</ele>
        <time>2013-03-29T11:10:12.000Z</time>
      </trkpt>
      <trkpt lat="43.21338" lon="5.45516">
        <ele>110.68884</ele>
        <time>2013-03-29T11:10:15.000Z</time>
      </trkpt>
      <trkpt lat="43.21332" lon="5.45524">
        <ele>106.36304</ele>
        <time>2013-03-29T11:10:19.000Z</time>
      </trkpt>
      <trkpt lat="43.21323" lon="5.45539">
        <ele>97.23047</ele>
        <time>2013-03-29T11:10:24.000Z</time>
      </trkpt>
      <trkpt lat="43.21324" lon="5.45547">
        <ele>92.42395</ele>
        <time>2013-03-29T11:10:28.000Z</time>
      </trkpt>
      <trkpt lat="43.21324" lon="5.45553">
        <ele>85.69458</ele>
        <time>2013-03-29T11:10:32.000Z</time>
      </trkpt>
      <trkpt lat="43.21325" lon="5.45553">
        <ele>79.446045</ele>
        <time>2013-03-29T11:10:37.000Z</time>
      </trkpt>
      <trkpt lat="43.21323" lon="5.45551">
        <ele>78.48474</ele>
        <time>2013-03-29T11:10:41.000Z</time>
      </trkpt>
      <trkpt lat="43.2132" lon="5.45554">
        <ele>77.04285</ele>
        <time>2013-03-29T11:10:49.000Z</time>
      </trkpt>
      <trkpt lat="43.21318" lon="5.4556">
        <ele>74.63953</ele>
        <time>2013-03-29T11:10:52.000Z</time>
      </trkpt>
      <trkpt lat="43.21314" lon="5.45568">
        <ele>71.75549</ele>
        <time>2013-03-29T11:10:56.000Z</time>
      </trkpt>
      <trkpt lat="43.21309" lon="5.45575">
        <ele>69.352295</ele>
        <time>2013-03-29T11:11:01.000Z</time>
      </trkpt>
      <trkpt lat="43.21306" lon="5.45578">
        <ele>69.352295</ele>
        <time>2013-03-29T11:11:04.000Z</time>
      </trkpt>
      <trkpt lat="43.21304" lon="5.45582">
        <ele>71.2749</ele>
        <time>2013-03-29T11:11:09.000Z</time>
      </trkpt>
      <trkpt lat="43.21301" lon="5.45586">
        <ele>72.236206</ele>
        <time>2013-03-29T11:11:13.000Z</time>
      </trkpt>
      <trkpt lat="43.21299" lon="5.45592">
        <ele>70.79419</ele>
        <time>2013-03-29T11:11:17.000Z</time>
      </trkpt>
      <trkpt lat="43.21299" lon="5.45594">
        <ele>70.79419</ele>
        <time>2013-03-29T11:11:18.000Z</time>
      </trkpt>
      <trkpt lat="43.21294" lon="5.4559">
        <ele>69.832886</ele>
        <time>2013-03-29T11:11:22.000Z</time>
      </trkpt>
      <trkpt lat="43.21294" lon="5.45584">
        <ele>69.352295</ele>
        <time>2013-03-29T11:11:24.000Z</time>
      </trkpt>
      <trkpt lat="43.21298" lon="5.45564">
        <ele>69.832886</ele>
        <time>2013-03-29T11:11:31.000Z</time>
      </trkpt>
      <trkpt lat="43.21302" lon="5.45552">
        <ele>69.832886</ele>
        <time>2013-03-29T11:11:35.000Z</time>
      </trkpt>
      <trkpt lat="43.21306" lon="5.45538">
        <ele>70.79419</ele>
        <time>2013-03-29T11:11:40.000Z</time>
      </trkpt>
      <trkpt lat="43.21309" lon="5.45526">
        <ele>71.2749</ele>
        <time>2013-03-29T11:11:44.000Z</time>
      </trkpt>
      <trkpt lat="43.21313" lon="5.45512">
        <ele>72.71692</ele>
        <time>2013-03-29T11:11:48.000Z</time>
      </trkpt>
      <trkpt lat="43.21315" lon="5.45499">
        <ele>72.71692</ele>
        <time>2013-03-29T11:11:52.000Z</time>
      </trkpt>
      <trkpt lat="43.21315" lon="5.45481">
        <ele>77.04285</ele>
        <time>2013-03-29T11:11:57.000Z</time>
      </trkpt>
      <trkpt lat="43.21316" lon="5.45475">
        <ele>80.40747</ele>
        <time>2013-03-29T11:12:01.000Z</time>
      </trkpt>
      <trkpt lat="43.21316" lon="5.45475">
        <ele>81.849365</ele>
        <time>2013-03-29T11:12:02.000Z</time>
      </trkpt>
      <trkpt lat="43.21314" lon="5.45481">
        <ele>83.77197</ele>
        <time>2013-03-29T11:12:05.000Z</time>
      </trkpt>
      <trkpt lat="43.2131" lon="5.45481">
        <ele>84.7334</ele>
        <time>2013-03-29T11:12:09.000Z</time>
      </trkpt>
      <trkpt lat="43.21314" lon="5.4547">
        <ele>86.17529</ele>
        <time>2013-03-29T11:12:14.000Z</time>
      </trkpt>
      <trkpt lat="43.21315" lon="5.4546">
        <ele>86.656006</ele>
        <time>2013-03-29T11:12:17.000Z</time>
      </trkpt>
      <trkpt lat="43.21318" lon="5.45441">
        <ele>88.09802</ele>
        <time>2013-03-29T11:12:23.000Z</time>
      </trkpt>
      <trkpt lat="43.21321" lon="5.45426">
        <ele>88.578735</ele>
        <time>2013-03-29T11:12:28.000Z</time>
      </trkpt>
      <trkpt lat="43.21324" lon="5.45406">
        <ele>89.53992</ele>
        <time>2013-03-29T11:12:34.000Z</time>
      </trkpt>
      <trkpt lat="43.21327" lon="5.45389">
        <ele>91.94324</ele>
        <time>2013-03-29T11:12:39.000Z</time>
      </trkpt>
      <trkpt lat="43.21331" lon="5.45365">
        <ele>94.82715</ele>
        <time>2013-03-29T11:12:46.000Z</time>
      </trkpt>
      <trkpt lat="43.21335" lon="5.45345">
        <ele>96.74988</ele>
        <time>2013-03-29T11:12:52.000Z</time>
      </trkpt>
      <trkpt lat="43.21338" lon="5.4533">
        <ele>97.71118</ele>
        <time>2013-03-29T11:12:57.000Z</time>
      </trkpt>
      <trkpt lat="43.21342" lon="5.45317">
        <ele>97.71118</ele>
        <time>2013-03-29T11:13:02.000Z</time>
      </trkpt>
      <trkpt lat="43.21347" lon="5.45299">
        <ele>99.153076</ele>
        <time>2013-03-29T11:13:08.000Z</time>
      </trkpt>
      <trkpt lat="43.21348" lon="5.45286">
        <ele>101.07568</ele>
        <time>2013-03-29T11:13:12.000Z</time>
      </trkpt>
      <trkpt lat="43.21347" lon="5.45268">
        <ele>100.59509</ele>
        <time>2013-03-29T11:13:17.000Z</time>
      </trkpt>
      <trkpt lat="43.21344" lon="5.45255">
        <ele>98.672485</ele>
        <time>2013-03-29T11:13:22.000Z</time>
      </trkpt>
      <trkpt lat="43.2134" lon="5.45243">
        <ele>95.78845</ele>
        <time>2013-03-29T11:13:27.000Z</time>
      </trkpt>
      <trkpt lat="43.21336" lon="5.45238">
        <ele>94.34656</ele>
        <time>2013-03-29T11:13:32.000Z</time>
      </trkpt>
      <trkpt lat="43.21335" lon="5.45244">
        <ele>91.94324</ele>
        <time>2013-03-29T11:13:38.000Z</time>
      </trkpt>
      <trkpt lat="43.21336" lon="5.45248">
        <ele>91.462524</ele>
        <time>2013-03-29T11:13:40.000Z</time>
      </trkpt>
      <trkpt lat="43.21338" lon="5.45255">
        <ele>89.53992</ele>
        <time>2013-03-29T11:13:45.000Z</time>
      </trkpt>
      <trkpt lat="43.21336" lon="5.45256">
        <ele>90.02063</ele>
        <time>2013-03-29T11:13:47.000Z</time>
      </trkpt>
      <trkpt lat="43.21334" lon="5.45245">
        <ele>93.38513</ele>
        <time>2013-03-29T11:13:52.000Z</time>
      </trkpt>
      <trkpt lat="43.21333" lon="5.45241">
        <ele>94.34656</ele>
        <time>2013-03-29T11:13:57.000Z</time>
      </trkpt>
      <trkpt lat="43.21334" lon="5.45238">
        <ele>94.82715</ele>
        <time>2013-03-29T11:14:02.000Z</time>
      </trkpt>
      <trkpt lat="43.21336" lon="5.45243">
        <ele>94.82715</ele>
        <time>2013-03-29T11:14:10.000Z</time>
      </trkpt>
      <trkpt lat="43.21337" lon="5.45242">
        <ele>94.82715</ele>
        <time>2013-03-29T11:14:14.000Z</time>
      </trkpt>
      <trkpt lat="43.21337" lon="5.45243">
        <ele>96.26929</ele>
        <time>2013-03-29T11:14:19.000Z</time>
      </trkpt>
      <trkpt lat="43.21338" lon="5.45246">
        <ele>98.191895</ele>
        <time>2013-03-29T11:14:21.000Z</time>
      </trkpt>
      <trkpt lat="43.21335" lon="5.45243">
        <ele>105.40173</ele>
        <time>2013-03-29T11:14:28.000Z</time>
      </trkpt>
      <trkpt lat="43.21336" lon="5.4525">
        <ele>109.24695</ele>
        <time>2013-03-29T11:14:33.000Z</time>
      </trkpt>
      <trkpt lat="43.21339" lon="5.45253">
        <ele>104.92102</ele>
        <time>2013-03-29T11:14:38.000Z</time>
      </trkpt>
      <trkpt lat="43.21337" lon="5.45242">
        <ele>102.99829</ele>
        <time>2013-03-29T11:14:42.000Z</time>
      </trkpt>
      <trkpt lat="43.21332" lon="5.45237">
        <ele>104.92102</ele>
        <time>2013-03-29T11:14:45.000Z</time>
      </trkpt>
      <trkpt lat="43.21331" lon="5.4524">
        <ele>101.5564</ele>
        <time>2013-03-29T11:14:48.000Z</time>
      </trkpt>
      <trkpt lat="43.21332" lon="5.45245">
        <ele>97.23047</ele>
        <time>2013-03-29T11:14:53.000Z</time>
      </trkpt>
      <trkpt lat="43.21333" lon="5.45257">
        <ele>93.38513</ele>
        <time>2013-03-29T11:14:58.000Z</time>
      </trkpt>
      <trkpt lat="43.21334" lon="5.4526">
        <ele>93.38513</ele>
        <time>2013-03-29T11:15:00.000Z</time>
      </trkpt>
      <trkpt lat="43.21333" lon="5.45264">
        <ele>91.94324</ele>
        <time>2013-03-29T11:15:03.000Z</time>
      </trkpt>
      <trkpt lat="43.21333" lon="5.45268">
        <ele>91.462524</ele>
        <time>2013-03-29T11:15:07.000Z</time>
      </trkpt>
      <trkpt lat="43.21333" lon="5.45275">
        <ele>91.462524</ele>
        <time>2013-03-29T11:15:12.000Z</time>
      </trkpt>
      <trkpt lat="43.21331" lon="5.45288">
        <ele>89.53992</ele>
        <time>2013-03-29T11:15:17.000Z</time>
      </trkpt>
      <trkpt lat="43.21327" lon="5.45299">
        <ele>89.53992</ele>
        <time>2013-03-29T11:15:21.000Z</time>
      </trkpt>
      <trkpt lat="43.21322" lon="5.45316">
        <ele>88.09802</ele>
        <time>2013-03-29T11:15:26.000Z</time>
      </trkpt>
      <trkpt lat="43.21317" lon="5.45331">
        <ele>86.656006</ele>
        <time>2013-03-29T11:15:30.000Z</time>
      </trkpt>
      <trkpt lat="43.21316" lon="5.45346">
        <ele>86.17529</ele>
        <time>2013-03-29T11:15:35.000Z</time>
      </trkpt>
      <trkpt lat="43.2131" lon="5.45356">
        <ele>85.21399</ele>
        <time>2013-03-29T11:15:39.000Z</time>
      </trkpt>
      <trkpt lat="43.21303" lon="5.45369">
        <ele>78.48474</ele>
        <time>2013-03-29T11:15:44.000Z</time>
      </trkpt>
      <trkpt lat="43.21298" lon="5.45383">
        <ele>73.67822</ele>
        <time>2013-03-29T11:15:49.000Z</time>
      </trkpt>
      <trkpt lat="43.21296" lon="5.45388">
        <ele>72.71692</ele>
        <time>2013-03-29T11:15:51.000Z</time>
      </trkpt>
      <trkpt lat="43.21291" lon="5.45394">
        <ele>68.39087</ele>
        <time>2013-03-29T11:15:57.000Z</time>
      </trkpt>
      <trkpt lat="43.2129" lon="5.45398">
        <ele>65.02637</ele>
        <time>2013-03-29T11:16:01.000Z</time>
      </trkpt>
      <trkpt lat="43.21286" lon="5.45403">
        <ele>62.142334</ele>
        <time>2013-03-29T11:16:06.000Z</time>
      </trkpt>
      <trkpt lat="43.21281" lon="5.45403">
        <ele>59.739136</ele>
        <time>2013-03-29T11:16:10.000Z</time>
      </trkpt>
      <trkpt lat="43.2128" lon="5.45409">
        <ele>57.335815</ele>
        <time>2013-03-29T11:16:14.000Z</time>
      </trkpt>
      <trkpt lat="43.2128" lon="5.45411">
        <ele>56.855103</ele>
        <time>2013-03-29T11:16:15.000Z</time>
      </trkpt>
      <trkpt lat="43.2128" lon="5.45417">
        <ele>55.413086</ele>
        <time>2013-03-29T11:16:18.000Z</time>
      </trkpt>
      <trkpt lat="43.21279" lon="5.45424">
        <ele>54.932373</ele>
        <time>2013-03-29T11:16:21.000Z</time>
      </trkpt>
      <trkpt lat="43.21278" lon="5.45431">
        <ele>54.932373</ele>
        <time>2013-03-29T11:16:25.000Z</time>
      </trkpt>
      <trkpt lat="43.21277" lon="5.45434">
        <ele>54.932373</ele>
        <time>2013-03-29T11:16:34.000Z</time>
      </trkpt>
      <trkpt lat="43.21277" lon="5.4543">
        <ele>52.048584</ele>
        <time>2013-03-29T11:16:41.000Z</time>
      </trkpt>
      <trkpt lat="43.21275" lon="5.45434">
        <ele>45.799927</ele>
        <time>2013-03-29T11:16:49.000Z</time>
      </trkpt>
      <trkpt lat="43.21274" lon="5.45434">
        <ele>47.24182</ele>
        <time>2013-03-29T11:16:58.000Z</time>
      </trkpt>
      <trkpt lat="43.21271" lon="5.45433">
        <ele>47.722534</ele>
        <time>2013-03-29T11:17:04.000Z</time>
      </trkpt>
      <trkpt lat="43.2127" lon="5.45438">
        <ele>46.76123</ele>
        <time>2013-03-29T11:17:09.000Z</time>
      </trkpt>
      <trkpt lat="43.21269" lon="5.4544">
        <ele>46.28064</ele>
        <time>2013-03-29T11:17:10.000Z</time>
      </trkpt>
      <trkpt lat="43.21264" lon="5.45446">
        <ele>43.87732</ele>
        <time>2013-03-29T11:17:15.000Z</time>
      </trkpt>
      <trkpt lat="43.21261" lon="5.4545">
        <ele>43.396606</ele>
        <time>2013-03-29T11:17:18.000Z</time>
      </trkpt>
      <trkpt lat="43.21256" lon="5.45453">
        <ele>41.954712</ele>
        <time>2013-03-29T11:17:22.000Z</time>
      </trkpt>
      <trkpt lat="43.21249" lon="5.4546">
        <ele>38.109375</ele>
        <time>2013-03-29T11:17:28.000Z</time>
      </trkpt>
      <trkpt lat="43.21243" lon="5.45468">
        <ele>36.66748</ele>
        <time>2013-03-29T11:17:31.000Z</time>
      </trkpt>
      <trkpt lat="43.21237" lon="5.45477">
        <ele>35.706055</ele>
        <time>2013-03-29T11:17:35.000Z</time>
      </trkpt>
      <trkpt lat="43.21231" lon="5.45477">
        <ele>34.26416</ele>
        <time>2013-03-29T11:17:39.000Z</time>
      </trkpt>
      <trkpt lat="43.21227" lon="5.45481">
        <ele>32.822266</ele>
        <time>2013-03-29T11:17:43.000Z</time>
      </trkpt>
      <trkpt lat="43.21226" lon="5.45488">
        <ele>30.899536</ele>
        <time>2013-03-29T11:17:48.000Z</time>
      </trkpt>
      <trkpt lat="43.21225" lon="5.45492">
        <ele>30.418823</ele>
        <time>2013-03-29T11:17:51.000Z</time>
      </trkpt>
      <trkpt lat="43.21222" lon="5.45494">
        <ele>29.93811</ele>
        <time>2013-03-29T11:17:54.000Z</time>
      </trkpt>
      <trkpt lat="43.21218" lon="5.45501">
        <ele>27.054321</ele>
        <time>2013-03-29T11:17:59.000Z</time>
      </trkpt>
      <trkpt lat="43.21216" lon="5.45504">
        <ele>27.054321</ele>
        <time>2013-03-29T11:18:01.000Z</time>
      </trkpt>
      <trkpt lat="43.21215" lon="5.45512">
        <ele>26.573608</ele>
        <time>2013-03-29T11:18:05.000Z</time>
      </trkpt>
      <trkpt lat="43.21213" lon="5.45515">
        <ele>25.612305</ele>
        <time>2013-03-29T11:18:08.000Z</time>
      </trkpt>
      <trkpt lat="43.21207" lon="5.45515">
        <ele>24.170288</ele>
        <time>2013-03-29T11:18:12.000Z</time>
      </trkpt>
      <trkpt lat="43.21209" lon="5.45516">
        <ele>22.728271</ele>
        <time>2013-03-29T11:18:15.000Z</time>
      </trkpt>
      <trkpt lat="43.21212" lon="5.45516">
        <ele>23.689575</ele>
        <time>2013-03-29T11:18:21.000Z</time>
      </trkpt>
      <trkpt lat="43.2121" lon="5.45515">
        <ele>23.689575</ele>
        <time>2013-03-29T11:18:25.000Z</time>
      </trkpt>
      <trkpt lat="43.21207" lon="5.4551">
        <ele>22.728271</ele>
        <time>2013-03-29T11:18:30.000Z</time>
      </trkpt>
      <trkpt lat="43.21205" lon="5.45504">
        <ele>22.728271</ele>
        <time>2013-03-29T11:18:35.000Z</time>
      </trkpt>
      <trkpt lat="43.21207" lon="5.45498">
        <ele>24.651001</ele>
        <time>2013-03-29T11:18:41.000Z</time>
      </trkpt>
      <trkpt lat="43.21209" lon="5.45495">
        <ele>24.170288</ele>
        <time>2013-03-29T11:18:45.000Z</time>
      </trkpt>
      <trkpt lat="43.2121" lon="5.4549">
        <ele>23.689575</ele>
        <time>2013-03-29T11:18:48.000Z</time>
      </trkpt>
      <trkpt lat="43.21217" lon="5.4548">
        <ele>23.689575</ele>
        <time>2013-03-29T11:18:53.000Z</time>
      </trkpt>
      <trkpt lat="43.21223" lon="5.45472">
        <ele>24.170288</ele>
        <time>2013-03-29T11:18:57.000Z</time>
      </trkpt>
      <trkpt lat="43.21225" lon="5.4547">
        <ele>24.170288</ele>
        <time>2013-03-29T11:18:58.000Z</time>
      </trkpt>
      <trkpt lat="43.21232" lon="5.45461">
        <ele>23.689575</ele>
        <time>2013-03-29T11:19:04.000Z</time>
      </trkpt>
      <trkpt lat="43.21234" lon="5.45457">
        <ele>23.689575</ele>
        <time>2013-03-29T11:19:06.000Z</time>
      </trkpt>
      <trkpt lat="43.21239" lon="5.45449">
        <ele>25.131714</ele>
        <time>2013-03-29T11:19:11.000Z</time>
      </trkpt>
      <trkpt lat="43.21236" lon="5.4544">
        <ele>23.208984</ele>
        <time>2013-03-29T11:19:16.000Z</time>
      </trkpt>
      <trkpt lat="43.21236" lon="5.45423">
        <ele>22.728271</ele>
        <time>2013-03-29T11:19:24.000Z</time>
      </trkpt>
      <trkpt lat="43.21235" lon="5.45418">
        <ele>21.286377</ele>
        <time>2013-03-29T11:19:27.000Z</time>
      </trkpt>
      <trkpt lat="43.21231" lon="5.45404">
        <ele>23.689575</ele>
        <time>2013-03-29T11:19:32.000Z</time>
      </trkpt>
      <trkpt lat="43.21229" lon="5.45397">
        <ele>18.883057</ele>
        <time>2013-03-29T11:19:38.000Z</time>
      </trkpt>
      <trkpt lat="43.21229" lon="5.45395">
        <ele>16.479736</ele>
        <time>2013-03-29T11:19:47.000Z</time>
      </trkpt>
      <trkpt lat="43.21227" lon="5.4539">
        <ele>12.634399</ele>
        <time>2013-03-29T11:19:53.000Z</time>
      </trkpt>
      <trkpt lat="43.21223" lon="5.45382">
        <ele>12.634399</ele>
        <time>2013-03-29T11:19:58.000Z</time>
      </trkpt>
      <trkpt lat="43.21221" lon="5.45383">
        <ele>14.557007</ele>
        <time>2013-03-29T11:20:02.000Z</time>
      </trkpt>
      <trkpt lat="43.2122" lon="5.45381">
        <ele>15.03772</ele>
        <time>2013-03-29T11:20:04.000Z</time>
      </trkpt>
      <trkpt lat="43.21217" lon="5.45375">
        <ele>15.518433</ele>
        <time>2013-03-29T11:20:10.000Z</time>
      </trkpt>
      <trkpt lat="43.21214" lon="5.45366">
        <ele>19.36377</ele>
        <time>2013-03-29T11:20:15.000Z</time>
      </trkpt>
      <trkpt lat="43.21213" lon="5.4536">
        <ele>21.766968</ele>
        <time>2013-03-29T11:20:20.000Z</time>
      </trkpt>
      <trkpt lat="43.21211" lon="5.4536">
        <ele>22.247559</ele>
        <time>2013-03-29T11:20:22.000Z</time>
      </trkpt>
      <trkpt lat="43.2121" lon="5.45359">
        <ele>25.131714</ele>
        <time>2013-03-29T11:20:28.000Z</time>
      </trkpt>
      <trkpt lat="43.21209" lon="5.45358">
        <ele>31.860718</ele>
        <time>2013-03-29T11:20:42.000Z</time>
      </trkpt>
      <trkpt lat="43.21208" lon="5.4536">
        <ele>32.822266</ele>
        <time>2013-03-29T11:20:44.000Z</time>
      </trkpt>
      <trkpt lat="43.21203" lon="5.45363">
        <ele>36.66748</ele>
        <time>2013-03-29T11:20:49.000Z</time>
      </trkpt>
      <trkpt lat="43.21193" lon="5.45365">
        <ele>37.628662</ele>
        <time>2013-03-29T11:20:55.000Z</time>
      </trkpt>
      <trkpt lat="43.21195" lon="5.45365">
        <ele>41.474</ele>
        <time>2013-03-29T11:21:00.000Z</time>
      </trkpt>
      <trkpt lat="43.21187" lon="5.45363">
        <ele>38.590088</ele>
        <time>2013-03-29T11:21:18.000Z</time>
      </trkpt>
      <trkpt lat="43.21182" lon="5.45365">
        <ele>43.396606</ele>
        <time>2013-03-29T11:21:25.000Z</time>
      </trkpt>
      <trkpt lat="43.21179" lon="5.45364">
        <ele>44.838623</ele>
        <time>2013-03-29T11:21:29.000Z</time>
      </trkpt>
      <trkpt lat="43.21177" lon="5.45361">
        <ele>45.799927</ele>
        <time>2013-03-29T11:21:34.000Z</time>
      </trkpt>
      <trkpt lat="43.21176" lon="5.45363">
        <ele>46.76123</ele>
        <time>2013-03-29T11:21:37.000Z</time>
      </trkpt>
      <trkpt lat="43.21171" lon="5.45369">
        <ele>48.68396</ele>
        <time>2013-03-29T11:21:43.000Z</time>
      </trkpt>
      <trkpt lat="43.21166" lon="5.45374">
        <ele>50.606567</ele>
        <time>2013-03-29T11:21:48.000Z</time>
      </trkpt>
      <trkpt lat="43.21161" lon="5.45376">
        <ele>49.16455</ele>
        <time>2013-03-29T11:21:52.000Z</time>
      </trkpt>
      <trkpt lat="43.21158" lon="5.45378">
        <ele>47.722534</ele>
        <time>2013-03-29T11:21:54.000Z</time>
      </trkpt>
      <trkpt lat="43.21156" lon="5.45379">
        <ele>47.722534</ele>
        <time>2013-03-29T11:21:56.000Z</time>
      </trkpt>
      <trkpt lat="43.21152" lon="5.45376">
        <ele>49.16455</ele>
        <time>2013-03-29T11:22:00.000Z</time>
      </trkpt>
      <trkpt lat="43.2115" lon="5.45376">
        <ele>48.68396</ele>
        <time>2013-03-29T11:22:02.000Z</time>
      </trkpt>
      <trkpt lat="43.21146" lon="5.45375">
        <ele>49.645264</ele>
        <time>2013-03-29T11:22:06.000Z</time>
      </trkpt>
      <trkpt lat="43.21136" lon="5.45375">
        <ele>50.125977</ele>
        <time>2013-03-29T11:22:13.000Z</time>
      </trkpt>
      <trkpt lat="43.21135" lon="5.45371">
        <ele>49.645264</ele>
        <time>2013-03-29T11:22:18.000Z</time>
      </trkpt>
      <trkpt lat="43.21137" lon="5.45369">
        <ele>50.125977</ele>
        <time>2013-03-29T11:22:20.000Z</time>
      </trkpt>
      <trkpt lat="43.21141" lon="5.45364">
        <ele>53.009766</ele>
        <time>2013-03-29T11:22:26.000Z</time>
      </trkpt>
      <trkpt lat="43.21138" lon="5.4536">
        <ele>54.451782</ele>
        <time>2013-03-29T11:22:30.000Z</time>
      </trkpt>
      <trkpt lat="43.21136" lon="5.45359">
        <ele>55.8938</ele>
        <time>2013-03-29T11:22:32.000Z</time>
      </trkpt>
      <trkpt lat="43.21129" lon="5.4536">
        <ele>57.335815</ele>
        <time>2013-03-29T11:22:37.000Z</time>
      </trkpt>
      <trkpt lat="43.21125" lon="5.45361">
        <ele>59.258423</ele>
        <time>2013-03-29T11:22:40.000Z</time>
      </trkpt>
      <trkpt lat="43.21122" lon="5.45361">
        <ele>61.18103</ele>
        <time>2013-03-29T11:22:44.000Z</time>
      </trkpt>
      <trkpt lat="43.21115" lon="5.45362">
        <ele>62.142334</ele>
        <time>2013-03-29T11:22:49.000Z</time>
      </trkpt>
      <trkpt lat="43.21107" lon="5.45362">
        <ele>61.18103</ele>
        <time>2013-03-29T11:22:53.000Z</time>
      </trkpt>
      <trkpt lat="43.211" lon="5.45357">
        <ele>59.739136</ele>
        <time>2013-03-29T11:22:57.000Z</time>
      </trkpt>
      <trkpt lat="43.21095" lon="5.45353">
        <ele>56.855103</ele>
        <time>2013-03-29T11:23:00.000Z</time>
      </trkpt>
      <trkpt lat="43.21088" lon="5.45347">
        <ele>53.49048</ele>
        <time>2013-03-29T11:23:04.000Z</time>
      </trkpt>
      <trkpt lat="43.21085" lon="5.45348">
        <ele>53.009766</ele>
        <time>2013-03-29T11:23:05.000Z</time>
      </trkpt>
      <trkpt lat="43.21079" lon="5.4535">
        <ele>52.048584</ele>
        <time>2013-03-29T11:23:07.000Z</time>
      </trkpt>
      <trkpt lat="43.2107" lon="5.45349">
        <ele>50.606567</ele>
        <time>2013-03-29T11:23:11.000Z</time>
      </trkpt>
      <trkpt lat="43.21062" lon="5.45351">
        <ele>52.048584</ele>
        <time>2013-03-29T11:23:17.000Z</time>
      </trkpt>
      <trkpt lat="43.21049" lon="5.45353">
        <ele>53.009766</ele>
        <time>2013-03-29T11:23:22.000Z</time>
      </trkpt>
      <trkpt lat="43.21036" lon="5.45353">
        <ele>53.009766</ele>
        <time>2013-03-29T11:23:27.000Z</time>
      </trkpt>
      <trkpt lat="43.21025" lon="5.45353">
        <ele>52.529175</ele>
        <time>2013-03-29T11:23:32.000Z</time>
      </trkpt>
      <trkpt lat="43.21021" lon="5.45353">
        <ele>53.009766</ele>
        <time>2013-03-29T11:23:34.000Z</time>
      </trkpt>
      <trkpt lat="43.21018" lon="5.45351">
        <ele>53.009766</ele>
        <time>2013-03-29T11:23:37.000Z</time>
      </trkpt>
      <trkpt lat="43.21017" lon="5.45349">
        <ele>52.529175</ele>
        <time>2013-03-29T11:23:44.000Z</time>
      </trkpt>
      <trkpt lat="43.21016" lon="5.45344">
        <ele>52.048584</ele>
        <time>2013-03-29T11:23:47.000Z</time>
      </trkpt>
      <trkpt lat="43.21021" lon="5.45333">
        <ele>53.009766</ele>
        <time>2013-03-29T11:23:51.000Z</time>
      </trkpt>
      <trkpt lat="43.21026" lon="5.45323">
        <ele>54.451782</ele>
        <time>2013-03-29T11:23:56.000Z</time>
      </trkpt>
      <trkpt lat="43.21027" lon="5.45318">
        <ele>55.413086</ele>
        <time>2013-03-29T11:24:00.000Z</time>
      </trkpt>
      <trkpt lat="43.21027" lon="5.45317">
        <ele>54.932373</ele>
        <time>2013-03-29T11:24:10.000Z</time>
      </trkpt>
      <trkpt lat="43.21026" lon="5.45315">
        <ele>54.451782</ele>
        <time>2013-03-29T11:24:18.000Z</time>
      </trkpt>
      <trkpt lat="43.21026" lon="5.45313">
        <ele>57.81653</ele>
        <time>2013-03-29T11:24:25.000Z</time>
      </trkpt>
      <trkpt lat="43.21025" lon="5.45317">
        <ele>50.125977</ele>
        <time>2013-03-29T11:24:29.000Z</time>
      </trkpt>
      <trkpt lat="43.21022" lon="5.45317">
        <ele>46.76123</ele>
        <time>2013-03-29T11:24:34.000Z</time>
      </trkpt>
      <trkpt lat="43.2102" lon="5.45313">
        <ele>44.838623</ele>
        <time>2013-03-29T11:24:43.000Z</time>
      </trkpt>
      <trkpt lat="43.21017" lon="5.45311">
        <ele>42.435425</ele>
        <time>2013-03-29T11:24:49.000Z</time>
      </trkpt>
      <trkpt lat="43.21015" lon="5.45309">
        <ele>40.99341</ele>
        <time>2013-03-29T11:24:53.000Z</time>
      </trkpt>
      <trkpt lat="43.21014" lon="5.45306">
        <ele>40.032104</ele>
        <time>2013-03-29T11:24:56.000Z</time>
      </trkpt>
      <trkpt lat="43.21014" lon="5.45299">
        <ele>38.109375</ele>
        <time>2013-03-29T11:24:59.000Z</time>
      </trkpt>
      <trkpt lat="43.21015" lon="5.45293">
        <ele>37.628662</ele>
        <time>2013-03-29T11:25:03.000Z</time>
      </trkpt>
      <trkpt lat="43.21012" lon="5.45287">
        <ele>39.07068</ele>
        <time>2013-03-29T11:25:07.000Z</time>
      </trkpt>
      <trkpt lat="43.2101" lon="5.45278">
        <ele>41.474</ele>
        <time>2013-03-29T11:25:11.000Z</time>
      </trkpt>
      <trkpt lat="43.21011" lon="5.4527">
        <ele>43.396606</ele>
        <time>2013-03-29T11:25:16.000Z</time>
      </trkpt>
      <trkpt lat="43.2102" lon="5.45255">
        <ele>45.799927</ele>
        <time>2013-03-29T11:25:22.000Z</time>
      </trkpt>
      <trkpt lat="43.21022" lon="5.45252">
        <ele>46.28064</ele>
        <time>2013-03-29T11:25:23.000Z</time>
      </trkpt>
      <trkpt lat="43.21024" lon="5.4524">
        <ele>47.722534</ele>
        <time>2013-03-29T11:25:27.000Z</time>
      </trkpt>
      <trkpt lat="43.21023" lon="5.45235">
        <ele>47.722534</ele>
        <time>2013-03-29T11:25:29.000Z</time>
      </trkpt>
      <trkpt lat="43.21023" lon="5.45227">
        <ele>47.24182</ele>
        <time>2013-03-29T11:25:33.000Z</time>
      </trkpt>
      <trkpt lat="43.21023" lon="5.45225">
        <ele>47.24182</ele>
        <time>2013-03-29T11:25:34.000Z</time>
      </trkpt>
      <trkpt lat="43.21023" lon="5.45219">
        <ele>48.20337</ele>
        <time>2013-03-29T11:25:40.000Z</time>
      </trkpt>
      <trkpt lat="43.21024" lon="5.45213">
        <ele>46.76123</ele>
        <time>2013-03-29T11:25:45.000Z</time>
      </trkpt>
      <trkpt lat="43.2103" lon="5.45202">
        <ele>46.76123</ele>
        <time>2013-03-29T11:25:50.000Z</time>
      </trkpt>
      <trkpt lat="43.21035" lon="5.45204">
        <ele>47.24182</ele>
        <time>2013-03-29T11:25:55.000Z</time>
      </trkpt>
      <trkpt lat="43.21041" lon="5.452">
        <ele>51.08716</ele>
        <time>2013-03-29T11:25:59.000Z</time>
      </trkpt>
      <trkpt lat="43.21047" lon="5.45196">
        <ele>52.529175</ele>
        <time>2013-03-29T11:26:02.000Z</time>
      </trkpt>
      <trkpt lat="43.2105" lon="5.45192">
        <ele>54.451782</ele>
        <time>2013-03-29T11:26:05.000Z</time>
      </trkpt>
      <trkpt lat="43.21057" lon="5.45179">
        <ele>56.37451</ele>
        <time>2013-03-29T11:26:11.000Z</time>
      </trkpt>
      <trkpt lat="43.2106" lon="5.45173">
        <ele>54.932373</ele>
        <time>2013-03-29T11:26:15.000Z</time>
      </trkpt>
      <trkpt lat="43.21064" lon="5.4517">
        <ele>52.529175</ele>
        <time>2013-03-29T11:26:18.000Z</time>
      </trkpt>
      <trkpt lat="43.21067" lon="5.45164">
        <ele>53.009766</ele>
        <time>2013-03-29T11:26:21.000Z</time>
      </trkpt>
      <trkpt lat="43.21068" lon="5.45154">
        <ele>53.49048</ele>
        <time>2013-03-29T11:26:26.000Z</time>
      </trkpt>
      <trkpt lat="43.21069" lon="5.45151">
        <ele>54.451782</ele>
        <time>2013-03-29T11:26:28.000Z</time>
      </trkpt>
      <trkpt lat="43.2107" lon="5.45145">
        <ele>54.932373</ele>
        <time>2013-03-29T11:26:31.000Z</time>
      </trkpt>
      <trkpt lat="43.21068" lon="5.45131">
        <ele>58.77771</ele>
        <time>2013-03-29T11:26:37.000Z</time>
      </trkpt>
      <trkpt lat="43.21067" lon="5.45127">
        <ele>60.219727</ele>
        <time>2013-03-29T11:26:41.000Z</time>
      </trkpt>
      <trkpt lat="43.21069" lon="5.45126">
        <ele>60.700317</ele>
        <time>2013-03-29T11:26:43.000Z</time>
      </trkpt>
      <trkpt lat="43.21069" lon="5.45125">
        <ele>61.661743</ele>
        <time>2013-03-29T11:26:53.000Z</time>
      </trkpt>
      <trkpt lat="43.2107" lon="5.45122">
        <ele>60.219727</ele>
        <time>2013-03-29T11:26:59.000Z</time>
      </trkpt>
      <trkpt lat="43.21073" lon="5.45114">
        <ele>60.219727</ele>
        <time>2013-03-29T11:27:03.000Z</time>
      </trkpt>
      <trkpt lat="43.21076" lon="5.45111">
        <ele>60.219727</ele>
        <time>2013-03-29T11:27:05.000Z</time>
      </trkpt>
      <trkpt lat="43.21083" lon="5.45103">
        <ele>62.142334</ele>
        <time>2013-03-29T11:27:09.000Z</time>
      </trkpt>
      <trkpt lat="43.21092" lon="5.45096">
        <ele>62.622925</ele>
        <time>2013-03-29T11:27:13.000Z</time>
      </trkpt>
      <trkpt lat="43.21099" lon="5.45086">
        <ele>62.622925</ele>
        <time>2013-03-29T11:27:17.000Z</time>
      </trkpt>
      <trkpt lat="43.21104" lon="5.45073">
        <ele>62.142334</ele>
        <time>2013-03-29T11:27:22.000Z</time>
      </trkpt>
      <trkpt lat="43.2111" lon="5.45069">
        <ele>62.622925</ele>
        <time>2013-03-29T11:27:25.000Z</time>
      </trkpt>
      <trkpt lat="43.21112" lon="5.45067">
        <ele>62.622925</ele>
        <time>2013-03-29T11:27:27.000Z</time>
      </trkpt>
      <trkpt lat="43.21119" lon="5.45059">
        <ele>59.258423</ele>
        <time>2013-03-29T11:27:32.000Z</time>
      </trkpt>
      <trkpt lat="43.21127" lon="5.45049">
        <ele>57.81653</ele>
        <time>2013-03-29T11:27:37.000Z</time>
      </trkpt>
      <trkpt lat="43.21124" lon="5.45032">
        <ele>55.413086</ele>
        <time>2013-03-29T11:27:42.000Z</time>
      </trkpt>
      <trkpt lat="43.21122" lon="5.45029">
        <ele>54.932373</ele>
        <time>2013-03-29T11:27:43.000Z</time>
      </trkpt>
      <trkpt lat="43.21114" lon="5.45015">
        <ele>54.451782</ele>
        <time>2013-03-29T11:27:49.000Z</time>
      </trkpt>
      <trkpt lat="43.21107" lon="5.45005">
        <ele>55.413086</ele>
        <time>2013-03-29T11:27:53.000Z</time>
      </trkpt>
      <trkpt lat="43.21103" lon="5.44993">
        <ele>56.37451</ele>
        <time>2013-03-29T11:27:57.000Z</time>
      </trkpt>
      <trkpt lat="43.211" lon="5.44975">
        <ele>57.81653</ele>
        <time>2013-03-29T11:28:03.000Z</time>
      </trkpt>
      <trkpt lat="43.21104" lon="5.44964">
        <ele>58.77771</ele>
        <time>2013-03-29T11:28:07.000Z</time>
      </trkpt>
      <trkpt lat="43.21104" lon="5.44962">
        <ele>58.77771</ele>
        <time>2013-03-29T11:28:08.000Z</time>
      </trkpt>
      <trkpt lat="43.21111" lon="5.44945">
        <ele>60.219727</ele>
        <time>2013-03-29T11:28:14.000Z</time>
      </trkpt>
      <trkpt lat="43.21113" lon="5.44939">
        <ele>59.258423</ele>
        <time>2013-03-29T11:28:17.000Z</time>
      </trkpt>
      <trkpt lat="43.21108" lon="5.44929">
        <ele>56.855103</ele>
        <time>2013-03-29T11:28:22.000Z</time>
      </trkpt>
      <trkpt lat="43.21103" lon="5.44927">
        <ele>55.8938</ele>
        <time>2013-03-29T11:28:24.000Z</time>
      </trkpt>
      <trkpt lat="43.21094" lon="5.44921">
        <ele>54.451782</ele>
        <time>2013-03-29T11:28:28.000Z</time>
      </trkpt>
      <trkpt lat="43.21088" lon="5.44915">
        <ele>52.529175</ele>
        <time>2013-03-29T11:28:31.000Z</time>
      </trkpt>
      <trkpt lat="43.21084" lon="5.44904">
        <ele>50.125977</ele>
        <time>2013-03-29T11:28:35.000Z</time>
      </trkpt>
      <trkpt lat="43.21085" lon="5.44898">
        <ele>48.68396</ele>
        <time>2013-03-29T11:28:39.000Z</time>
      </trkpt>
      <trkpt lat="43.21085" lon="5.44897">
        <ele>48.68396</ele>
        <time>2013-03-29T11:28:40.000Z</time>
      </trkpt>
      <trkpt lat="43.21087" lon="5.44897">
        <ele>47.722534</ele>
        <time>2013-03-29T11:28:42.000Z</time>
      </trkpt>
      <trkpt lat="43.21089" lon="5.44892">
        <ele>46.28064</ele>
        <time>2013-03-29T11:28:46.000Z</time>
      </trkpt>
      <trkpt lat="43.21092" lon="5.44888">
        <ele>44.838623</ele>
        <time>2013-03-29T11:28:50.000Z</time>
      </trkpt>
      <trkpt lat="43.21096" lon="5.44881">
        <ele>43.396606</ele>
        <time>2013-03-29T11:28:54.000Z</time>
      </trkpt>
      <trkpt lat="43.21096" lon="5.44877">
        <ele>42.916016</ele>
        <time>2013-03-29T11:28:56.000Z</time>
      </trkpt>
      <trkpt lat="43.21099" lon="5.44863">
        <ele>42.916016</ele>
        <time>2013-03-29T11:29:00.000Z</time>
      </trkpt>
      <trkpt lat="43.21098" lon="5.44855">
        <ele>41.954712</ele>
        <time>2013-03-29T11:29:03.000Z</time>
      </trkpt>
      <trkpt lat="43.211" lon="5.44848">
        <ele>41.474</ele>
        <time>2013-03-29T11:29:08.000Z</time>
      </trkpt>
      <trkpt lat="43.211" lon="5.44845">
        <ele>43.396606</ele>
        <time>2013-03-29T11:29:12.000Z</time>
      </trkpt>
      <trkpt lat="43.21099" lon="5.44837">
        <ele>52.529175</ele>
        <time>2013-03-29T11:29:30.000Z</time>
      </trkpt>
      <trkpt lat="43.21103" lon="5.44832">
        <ele>54.451782</ele>
        <time>2013-03-29T11:29:36.000Z</time>
      </trkpt>
      <trkpt lat="43.21105" lon="5.44831">
        <ele>55.413086</ele>
        <time>2013-03-29T11:29:40.000Z</time>
      </trkpt>
      <trkpt lat="43.21107" lon="5.4483">
        <ele>53.97119</ele>
        <time>2013-03-29T11:29:44.000Z</time>
      </trkpt>
      <trkpt lat="43.21104" lon="5.44828">
        <ele>53.009766</ele>
        <time>2013-03-29T11:29:48.000Z</time>
      </trkpt>
      <trkpt lat="43.21103" lon="5.44826">
        <ele>51.08716</ele>
        <time>2013-03-29T11:29:51.000Z</time>
      </trkpt>
      <trkpt lat="43.21106" lon="5.44826">
        <ele>48.68396</ele>
        <time>2013-03-29T11:29:54.000Z</time>
      </trkpt>
      <trkpt lat="43.21109" lon="5.44827">
        <ele>50.125977</ele>
        <time>2013-03-29T11:29:59.000Z</time>
      </trkpt>
      <trkpt lat="43.21109" lon="5.44825">
        <ele>48.20337</ele>
        <time>2013-03-29T11:30:05.000Z</time>
      </trkpt>
      <trkpt lat="43.21107" lon="5.44822">
        <ele>45.319214</ele>
        <time>2013-03-29T11:30:09.000Z</time>
      </trkpt>
      <trkpt lat="43.21109" lon="5.44821">
        <ele>43.87732</ele>
        <time>2013-03-29T11:30:13.000Z</time>
      </trkpt>
      <trkpt lat="43.2111" lon="5.44819">
        <ele>42.916016</ele>
        <time>2013-03-29T11:30:19.000Z</time>
      </trkpt>
      <trkpt lat="43.21113" lon="5.44817">
        <ele>40.99341</ele>
        <time>2013-03-29T11:30:23.000Z</time>
      </trkpt>
      <trkpt lat="43.21116" lon="5.44814">
        <ele>36.66748</ele>
        <time>2013-03-29T11:30:27.000Z</time>
      </trkpt>
      <trkpt lat="43.21117" lon="5.44812">
        <ele>36.186768</ele>
        <time>2013-03-29T11:30:28.000Z</time>
      </trkpt>
      <trkpt lat="43.21126" lon="5.44804">
        <ele>35.225464</ele>
        <time>2013-03-29T11:30:33.000Z</time>
      </trkpt>
      <trkpt lat="43.21129" lon="5.44802">
        <ele>34.744873</ele>
        <time>2013-03-29T11:30:35.000Z</time>
      </trkpt>
      <trkpt lat="43.21136" lon="5.44789">
        <ele>36.186768</ele>
        <time>2013-03-29T11:30:40.000Z</time>
      </trkpt>
      <trkpt lat="43.21137" lon="5.44786">
        <ele>37.14807</ele>
        <time>2013-03-29T11:30:41.000Z</time>
      </trkpt>
      <trkpt lat="43.21142" lon="5.44783">
        <ele>37.14807</ele>
        <time>2013-03-29T11:30:46.000Z</time>
      </trkpt>
      <trkpt lat="43.21147" lon="5.44781">
        <ele>36.186768</ele>
        <time>2013-03-29T11:30:50.000Z</time>
      </trkpt>
      <trkpt lat="43.21151" lon="5.44779">
        <ele>36.66748</ele>
        <time>2013-03-29T11:30:52.000Z</time>
      </trkpt>
      <trkpt lat="43.21157" lon="5.4477">
        <ele>35.706055</ele>
        <time>2013-03-29T11:30:56.000Z</time>
      </trkpt>
      <trkpt lat="43.21165" lon="5.4477">
        <ele>35.225464</ele>
        <time>2013-03-29T11:31:00.000Z</time>
      </trkpt>
      <trkpt lat="43.21167" lon="5.44769">
        <ele>35.706055</ele>
        <time>2013-03-29T11:31:01.000Z</time>
      </trkpt>
      <trkpt lat="43.21175" lon="5.44765">
        <ele>35.706055</ele>
        <time>2013-03-29T11:31:06.000Z</time>
      </trkpt>
      <trkpt lat="43.21185" lon="5.44759">
        <ele>37.14807</ele>
        <time>2013-03-29T11:31:10.000Z</time>
      </trkpt>
      <trkpt lat="43.21192" lon="5.4475">
        <ele>39.55127</ele>
        <time>2013-03-29T11:31:14.000Z</time>
      </trkpt>
      <trkpt lat="43.21199" lon="5.44738">
        <ele>41.954712</ele>
        <time>2013-03-29T11:31:19.000Z</time>
      </trkpt>
      <trkpt lat="43.21202" lon="5.4473">
        <ele>41.474</ele>
        <time>2013-03-29T11:31:23.000Z</time>
      </trkpt>
      <trkpt lat="43.21202" lon="5.44719">
        <ele>43.87732</ele>
        <time>2013-03-29T11:31:27.000Z</time>
      </trkpt>
      <trkpt lat="43.21205" lon="5.44707">
        <ele>47.24182</ele>
        <time>2013-03-29T11:31:32.000Z</time>
      </trkpt>
      <trkpt lat="43.21207" lon="5.44696">
        <ele>49.16455</ele>
        <time>2013-03-29T11:31:37.000Z</time>
      </trkpt>
      <trkpt lat="43.21212" lon="5.44689">
        <ele>49.645264</ele>
        <time>2013-03-29T11:31:41.000Z</time>
      </trkpt>
      <trkpt lat="43.21218" lon="5.4468">
        <ele>50.606567</ele>
        <time>2013-03-29T11:31:45.000Z</time>
      </trkpt>
      <trkpt lat="43.21219" lon="5.44677">
        <ele>50.606567</ele>
        <time>2013-03-29T11:31:46.000Z</time>
      </trkpt>
      <trkpt lat="43.21227" lon="5.44661">
        <ele>50.606567</ele>
        <time>2013-03-29T11:31:52.000Z</time>
      </trkpt>
      <trkpt lat="43.21239" lon="5.44656">
        <ele>49.645264</ele>
        <time>2013-03-29T11:31:57.000Z</time>
      </trkpt>
      <trkpt lat="43.21245" lon="5.44653">
        <ele>49.645264</ele>
        <time>2013-03-29T11:32:00.000Z</time>
      </trkpt>
      <trkpt lat="43.21248" lon="5.44643">
        <ele>48.20337</ele>
        <time>2013-03-29T11:32:05.000Z</time>
      </trkpt>
      <trkpt lat="43.21249" lon="5.44639">
        <ele>48.68396</ele>
        <time>2013-03-29T11:32:07.000Z</time>
      </trkpt>
      <trkpt lat="43.21248" lon="5.44627">
        <ele>49.16455</ele>
        <time>2013-03-29T11:32:12.000Z</time>
      </trkpt>
      <trkpt lat="43.2125" lon="5.44626">
        <ele>50.125977</ele>
        <time>2013-03-29T11:32:14.000Z</time>
      </trkpt>
      <trkpt lat="43.21252" lon="5.44618">
        <ele>51.56787</ele>
        <time>2013-03-29T11:32:19.000Z</time>
      </trkpt>
      <trkpt lat="43.21256" lon="5.44616">
        <ele>51.08716</ele>
        <time>2013-03-29T11:32:23.000Z</time>
      </trkpt>
      <trkpt lat="43.21264" lon="5.44606">
        <ele>48.68396</ele>
        <time>2013-03-29T11:32:29.000Z</time>
      </trkpt>
      <trkpt lat="43.21269" lon="5.44591">
        <ele>47.722534</ele>
        <time>2013-03-29T11:32:34.000Z</time>
      </trkpt>
      <trkpt lat="43.21276" lon="5.44584">
        <ele>43.396606</ele>
        <time>2013-03-29T11:32:39.000Z</time>
      </trkpt>
      <trkpt lat="43.21281" lon="5.4458">
        <ele>41.474</ele>
        <time>2013-03-29T11:32:42.000Z</time>
      </trkpt>
      <trkpt lat="43.21287" lon="5.44573">
        <ele>39.07068</ele>
        <time>2013-03-29T11:32:47.000Z</time>
      </trkpt>
      <trkpt lat="43.21291" lon="5.4457">
        <ele>38.590088</ele>
        <time>2013-03-29T11:32:54.000Z</time>
      </trkpt>
      <trkpt lat="43.21292" lon="5.44569">
        <ele>37.14807</ele>
        <time>2013-03-29T11:32:58.000Z</time>
      </trkpt>
      <trkpt lat="43.21292" lon="5.44562">
        <ele>36.66748</ele>
        <time>2013-03-29T11:33:02.000Z</time>
      </trkpt>
      <trkpt lat="43.21294" lon="5.44558">
        <ele>34.744873</ele>
        <time>2013-03-29T11:33:06.000Z</time>
      </trkpt>
      <trkpt lat="43.21295" lon="5.44551">
        <ele>32.822266</ele>
        <time>2013-03-29T11:33:13.000Z</time>
      </trkpt>
      <trkpt lat="43.21295" lon="5.44546">
        <ele>30.418823</ele>
        <time>2013-03-29T11:33:17.000Z</time>
      </trkpt>
      <trkpt lat="43.21295" lon="5.44542">
        <ele>27.054321</ele>
        <time>2013-03-29T11:33:20.000Z</time>
      </trkpt>
      <trkpt lat="43.21293" lon="5.4454">
        <ele>26.092896</ele>
        <time>2013-03-29T11:33:22.000Z</time>
      </trkpt>
      <trkpt lat="43.21291" lon="5.44532">
        <ele>25.612305</ele>
        <time>2013-03-29T11:33:28.000Z</time>
      </trkpt>
      <trkpt lat="43.21288" lon="5.44531">
        <ele>22.247559</ele>
        <time>2013-03-29T11:33:33.000Z</time>
      </trkpt>
      <trkpt lat="43.21282" lon="5.44527">
        <ele>21.766968</ele>
        <time>2013-03-29T11:33:39.000Z</time>
      </trkpt>
      <trkpt lat="43.21282" lon="5.44525">
        <ele>21.766968</ele>
        <time>2013-03-29T11:33:40.000Z</time>
      </trkpt>
      <trkpt lat="43.21284" lon="5.44517">
        <ele>18.402344</ele>
        <time>2013-03-29T11:33:45.000Z</time>
      </trkpt>
      <trkpt lat="43.21284" lon="5.44515">
        <ele>18.402344</ele>
        <time>2013-03-29T11:33:46.000Z</time>
      </trkpt>
      <trkpt lat="43.21289" lon="5.44504">
        <ele>18.883057</ele>
        <time>2013-03-29T11:33:52.000Z</time>
      </trkpt>
      <trkpt lat="43.21288" lon="5.44502">
        <ele>17.441162</ele>
        <time>2013-03-29T11:33:57.000Z</time>
      </trkpt>
      <trkpt lat="43.21285" lon="5.44496">
        <ele>15.03772</ele>
        <time>2013-03-29T11:34:03.000Z</time>
      </trkpt>
      <trkpt lat="43.2128" lon="5.44488">
        <ele>14.076416</ele>
        <time>2013-03-29T11:34:07.000Z</time>
      </trkpt>
      <trkpt lat="43.21278" lon="5.44486">
        <ele>14.557007</ele>
        <time>2013-03-29T11:34:08.000Z</time>
      </trkpt>
      <trkpt lat="43.21275" lon="5.44479">
        <ele>14.076416</ele>
        <time>2013-03-29T11:34:12.000Z</time>
      </trkpt>
      <trkpt lat="43.21274" lon="5.44461">
        <ele>14.076416</ele>
        <time>2013-03-29T11:34:19.000Z</time>
      </trkpt>
      <trkpt lat="43.21274" lon="5.4446">
        <ele>13.595825</ele>
        <time>2013-03-29T11:34:20.000Z</time>
      </trkpt>
      <trkpt lat="43.21272" lon="5.44455">
        <ele>13.595825</ele>
        <time>2013-03-29T11:34:23.000Z</time>
      </trkpt>
      <trkpt lat="43.21278" lon="5.44446">
        <ele>12.634399</ele>
        <time>2013-03-29T11:34:29.000Z</time>
      </trkpt>
      <trkpt lat="43.21283" lon="5.4444">
        <ele>12.153809</ele>
        <time>2013-03-29T11:34:34.000Z</time>
      </trkpt>
      <trkpt lat="43.21286" lon="5.44435">
        <ele>13.115112</ele>
        <time>2013-03-29T11:34:37.000Z</time>
      </trkpt>
      <trkpt lat="43.2129" lon="5.44425">
        <ele>12.634399</ele>
        <time>2013-03-29T11:34:43.000Z</time>
      </trkpt>
      <trkpt lat="43.2129" lon="5.44421">
        <ele>11.673218</ele>
        <time>2013-03-29T11:34:47.000Z</time>
      </trkpt>
      <trkpt lat="43.21292" lon="5.44417">
        <ele>11.192505</ele>
        <time>2013-03-29T11:34:50.000Z</time>
      </trkpt>
      <trkpt lat="43.21299" lon="5.44408">
        <ele>11.673218</ele>
        <time>2013-03-29T11:34:56.000Z</time>
      </trkpt>
      <trkpt lat="43.21296" lon="5.44404">
        <ele>9.75061</ele>
        <time>2013-03-29T11:35:04.000Z</time>
      </trkpt>
      <trkpt lat="43.21298" lon="5.44401">
        <ele>9.75061</ele>
        <time>2013-03-29T11:35:07.000Z</time>
      </trkpt>
      <trkpt lat="43.21299" lon="5.44397">
        <ele>9.75061</ele>
        <time>2013-03-29T11:35:09.000Z</time>
      </trkpt>
      <trkpt lat="43.213" lon="5.44387">
        <ele>7.827881</ele>
        <time>2013-03-29T11:35:14.000Z</time>
      </trkpt>
      <trkpt lat="43.21301" lon="5.44375">
        <ele>9.269897</ele>
        <time>2013-03-29T11:35:29.000Z</time>
      </trkpt>
      <trkpt lat="43.21306" lon="5.44363">
        <ele>8.789185</ele>
        <time>2013-03-29T11:35:34.000Z</time>
      </trkpt>
      <trkpt lat="43.2131" lon="5.44348">
        <ele>6.866455</ele>
        <time>2013-03-29T11:35:39.000Z</time>
      </trkpt>
      <trkpt lat="43.21309" lon="5.44336">
        <ele>6.866455</ele>
        <time>2013-03-29T11:35:42.000Z</time>
      </trkpt>
      <trkpt lat="43.21314" lon="5.44322">
        <ele>5.9052734</ele>
        <time>2013-03-29T11:35:46.000Z</time>
      </trkpt>
      <trkpt lat="43.21315" lon="5.44315">
        <ele>4.9438477</ele>
        <time>2013-03-29T11:35:48.000Z</time>
      </trkpt>
      <trkpt lat="43.21322" lon="5.44288">
        <ele>5.4245605</ele>
        <time>2013-03-29T11:35:55.000Z</time>
      </trkpt>
      <trkpt lat="43.21324" lon="5.44274">
        <ele>4.463257</ele>
        <time>2013-03-29T11:35:59.000Z</time>
      </trkpt>
      <trkpt lat="43.21326" lon="5.44259">
        <ele>3.0212402</ele>
        <time>2013-03-29T11:36:03.000Z</time>
      </trkpt>
      <trkpt lat="43.21326" lon="5.4424">
        <ele>3.0212402</ele>
        <time>2013-03-29T11:36:08.000Z</time>
      </trkpt>
      <trkpt lat="43.21326" lon="5.44225">
        <ele>2.5406494</ele>
        <time>2013-03-29T11:36:12.000Z</time>
      </trkpt>
      <trkpt lat="43.2133" lon="5.44193">
        <ele>17.921753</ele>
        <time>2013-03-29T11:36:18.000Z</time>
      </trkpt>
      <trkpt lat="43.21332" lon="5.44169">
        <ele>28.496216</ele>
        <time>2013-03-29T11:36:23.000Z</time>
      </trkpt>
      <trkpt lat="43.21335" lon="5.44159">
        <ele>26.573608</ele>
        <time>2013-03-29T11:36:27.000Z</time>
      </trkpt>
      <trkpt lat="43.21335" lon="5.44152">
        <ele>26.092896</ele>
        <time>2013-03-29T11:36:29.000Z</time>
      </trkpt>
      <trkpt lat="43.2134" lon="5.44141">
        <ele>24.170288</ele>
        <time>2013-03-29T11:36:33.000Z</time>
      </trkpt>
      <trkpt lat="43.21342" lon="5.44139">
        <ele>24.170288</ele>
        <time>2013-03-29T11:36:34.000Z</time>
      </trkpt>
      <trkpt lat="43.21353" lon="5.44127">
        <ele>29.93811</ele>
        <time>2013-03-29T11:36:39.000Z</time>
      </trkpt>
      <trkpt lat="43.21365" lon="5.44123">
        <ele>31.860718</ele>
        <time>2013-03-29T11:36:44.000Z</time>
      </trkpt>
      <trkpt lat="43.21378" lon="5.44116">
        <ele>34.26416</ele>
        <time>2013-03-29T11:36:49.000Z</time>
      </trkpt>
      <trkpt lat="43.21383" lon="5.44112">
        <ele>33.302856</ele>
        <time>2013-03-29T11:36:53.000Z</time>
      </trkpt>
      <trkpt lat="43.21383" lon="5.44115">
        <ele>20.805664</ele>
        <time>2013-03-29T11:37:00.000Z</time>
      </trkpt>
      <trkpt lat="43.21388" lon="5.44106">
        <ele>21.286377</ele>
        <time>2013-03-29T11:37:07.000Z</time>
      </trkpt>
      <trkpt lat="43.21396" lon="5.44093">
        <ele>21.766968</ele>
        <time>2013-03-29T11:37:12.000Z</time>
      </trkpt>
      <trkpt lat="43.21402" lon="5.44083">
        <ele>22.247559</ele>
        <time>2013-03-29T11:37:16.000Z</time>
      </trkpt>
      <trkpt lat="43.21405" lon="5.44077">
        <ele>23.208984</ele>
        <time>2013-03-29T11:37:21.000Z</time>
      </trkpt>
      <trkpt lat="43.2141" lon="5.44066">
        <ele>24.170288</ele>
        <time>2013-03-29T11:37:25.000Z</time>
      </trkpt>
      <trkpt lat="43.21411" lon="5.44058">
        <ele>27.054321</ele>
        <time>2013-03-29T11:37:27.000Z</time>
      </trkpt>
      <trkpt lat="43.21409" lon="5.44043">
        <ele>26.573608</ele>
        <time>2013-03-29T11:37:31.000Z</time>
      </trkpt>
      <trkpt lat="43.21413" lon="5.44021">
        <ele>25.612305</ele>
        <time>2013-03-29T11:37:37.000Z</time>
      </trkpt>
      <trkpt lat="43.21418" lon="5.44008">
        <ele>23.689575</ele>
        <time>2013-03-29T11:37:41.000Z</time>
      </trkpt>
      <trkpt lat="43.21425" lon="5.44">
        <ele>23.208984</ele>
        <time>2013-03-29T11:37:45.000Z</time>
      </trkpt>
      <trkpt lat="43.2143" lon="5.43991">
        <ele>24.651001</ele>
        <time>2013-03-29T11:37:48.000Z</time>
      </trkpt>
      <trkpt lat="43.21439" lon="5.43976">
        <ele>18.402344</ele>
        <time>2013-03-29T11:37:54.000Z</time>
      </trkpt>
      <trkpt lat="43.2144" lon="5.43971">
        <ele>17.441162</ele>
        <time>2013-03-29T11:37:58.000Z</time>
      </trkpt>
      <trkpt lat="43.21441" lon="5.43967">
        <ele>22.247559</ele>
        <time>2013-03-29T11:38:05.000Z</time>
      </trkpt>
      <trkpt lat="43.21438" lon="5.4397">
        <ele>17.441162</ele>
        <time>2013-03-29T11:38:14.000Z</time>
      </trkpt>
      <trkpt lat="43.21438" lon="5.43966">
        <ele>17.441162</ele>
        <time>2013-03-29T11:38:19.000Z</time>
      </trkpt>
      <trkpt lat="43.21436" lon="5.43966">
        <ele>17.921753</ele>
        <time>2013-03-29T11:38:23.000Z</time>
      </trkpt>
      <trkpt lat="43.21433" lon="5.43968">
        <ele>18.883057</ele>
        <time>2013-03-29T11:38:27.000Z</time>
      </trkpt>
      <trkpt lat="43.2143" lon="5.43971">
        <ele>19.84436</ele>
        <time>2013-03-29T11:38:32.000Z</time>
      </trkpt>
      <trkpt lat="43.21427" lon="5.43972">
        <ele>21.766968</ele>
        <time>2013-03-29T11:38:36.000Z</time>
      </trkpt>
      <trkpt lat="43.21424" lon="5.43974">
        <ele>22.728271</ele>
        <time>2013-03-29T11:38:40.000Z</time>
      </trkpt>
      <trkpt lat="43.21418" lon="5.43976">
        <ele>25.612305</ele>
        <time>2013-03-29T11:38:46.000Z</time>
      </trkpt>
      <trkpt lat="43.21415" lon="5.43975">
        <ele>27.534912</ele>
        <time>2013-03-29T11:38:50.000Z</time>
      </trkpt>
      <trkpt lat="43.21412" lon="5.43974">
        <ele>28.976929</ele>
        <time>2013-03-29T11:38:54.000Z</time>
      </trkpt>
      <trkpt lat="43.2141" lon="5.43974">
        <ele>29.45752</ele>
        <time>2013-03-29T11:38:55.000Z</time>
      </trkpt>
      <trkpt lat="43.21407" lon="5.43969">
        <ele>31.380127</ele>
        <time>2013-03-29T11:39:00.000Z</time>
      </trkpt>
      <trkpt lat="43.21406" lon="5.43965">
        <ele>31.860718</ele>
        <time>2013-03-29T11:39:03.000Z</time>
      </trkpt>
      <trkpt lat="43.21406" lon="5.43957">
        <ele>33.783447</ele>
        <time>2013-03-29T11:39:08.000Z</time>
      </trkpt>
      <trkpt lat="43.21404" lon="5.4395">
        <ele>32.341553</ele>
        <time>2013-03-29T11:39:12.000Z</time>
      </trkpt>
      <trkpt lat="43.21401" lon="5.43949">
        <ele>33.302856</ele>
        <time>2013-03-29T11:39:18.000Z</time>
      </trkpt>
      <trkpt lat="43.21398" lon="5.43952">
        <ele>33.783447</ele>
        <time>2013-03-29T11:39:22.000Z</time>
      </trkpt>
      <trkpt lat="43.21395" lon="5.43952">
        <ele>35.706055</ele>
        <time>2013-03-29T11:39:27.000Z</time>
      </trkpt>
      <trkpt lat="43.21393" lon="5.43949">
        <ele>36.66748</ele>
        <time>2013-03-29T11:39:32.000Z</time>
      </trkpt>
      <trkpt lat="43.21393" lon="5.43944">
        <ele>37.628662</ele>
        <time>2013-03-29T11:39:37.000Z</time>
      </trkpt>
      <trkpt lat="43.21394" lon="5.43939">
        <ele>39.07068</ele>
        <time>2013-03-29T11:39:42.000Z</time>
      </trkpt>
      <trkpt lat="43.21393" lon="5.43933">
        <ele>39.55127</ele>
        <time>2013-03-29T11:39:47.000Z</time>
      </trkpt>
      <trkpt lat="43.21395" lon="5.43931">
        <ele>39.55127</ele>
        <time>2013-03-29T11:39:49.000Z</time>
      </trkpt>
      <trkpt lat="43.21399" lon="5.43923">
        <ele>40.99341</ele>
        <time>2013-03-29T11:39:54.000Z</time>
      </trkpt>
      <trkpt lat="43.21398" lon="5.43917">
        <ele>40.99341</ele>
        <time>2013-03-29T11:39:59.000Z</time>
      </trkpt>
      <trkpt lat="43.21396" lon="5.43911">
        <ele>43.396606</ele>
        <time>2013-03-29T11:40:02.000Z</time>
      </trkpt>
      <trkpt lat="43.21395" lon="5.43908">
        <ele>44.358032</ele>
        <time>2013-03-29T11:40:05.000Z</time>
      </trkpt>
      <trkpt lat="43.2139" lon="5.43907">
        <ele>46.76123</ele>
        <time>2013-03-29T11:40:11.000Z</time>
      </trkpt>
      <trkpt lat="43.21389" lon="5.43904">
        <ele>51.08716</ele>
        <time>2013-03-29T11:40:16.000Z</time>
      </trkpt>
      <trkpt lat="43.21385" lon="5.43902">
        <ele>52.048584</ele>
        <time>2013-03-29T11:40:21.000Z</time>
      </trkpt>
      <trkpt lat="43.21383" lon="5.439">
        <ele>53.49048</ele>
        <time>2013-03-29T11:40:25.000Z</time>
      </trkpt>
      <trkpt lat="43.21382" lon="5.43896">
        <ele>57.81653</ele>
        <time>2013-03-29T11:40:30.000Z</time>
      </trkpt>
      <trkpt lat="43.21379" lon="5.43893">
        <ele>60.700317</ele>
        <time>2013-03-29T11:40:38.000Z</time>
      </trkpt>
      <trkpt lat="43.21377" lon="5.43896">
        <ele>60.219727</ele>
        <time>2013-03-29T11:40:40.000Z</time>
      </trkpt>
      <trkpt lat="43.21372" lon="5.43904">
        <ele>63.58435</ele>
        <time>2013-03-29T11:40:45.000Z</time>
      </trkpt>
      <trkpt lat="43.21363" lon="5.43916">
        <ele>63.58435</ele>
        <time>2013-03-29T11:40:53.000Z</time>
      </trkpt>
      <trkpt lat="43.21358" lon="5.43924">
        <ele>63.58435</ele>
        <time>2013-03-29T11:40:59.000Z</time>
      </trkpt>
      <trkpt lat="43.21349" lon="5.43934">
        <ele>64.545654</ele>
        <time>2013-03-29T11:41:06.000Z</time>
      </trkpt>
      <trkpt lat="43.2134" lon="5.43941">
        <ele>66.46826</ele>
        <time>2013-03-29T11:41:12.000Z</time>
      </trkpt>
      <trkpt lat="43.21334" lon="5.43948">
        <ele>68.39087</ele>
        <time>2013-03-29T11:41:17.000Z</time>
      </trkpt>
      <trkpt lat="43.21332" lon="5.4395">
        <ele>69.352295</ele>
        <time>2013-03-29T11:41:19.000Z</time>
      </trkpt>
      <trkpt lat="43.21326" lon="5.43951">
        <ele>69.832886</ele>
        <time>2013-03-29T11:41:23.000Z</time>
      </trkpt>
      <trkpt lat="43.21331" lon="5.43941">
        <ele>69.832886</ele>
        <time>2013-03-29T11:41:27.000Z</time>
      </trkpt>
      <trkpt lat="43.21336" lon="5.43928">
        <ele>70.31348</ele>
        <time>2013-03-29T11:41:33.000Z</time>
      </trkpt>
      <trkpt lat="43.2134" lon="5.43916">
        <ele>69.832886</ele>
        <time>2013-03-29T11:41:39.000Z</time>
      </trkpt>
      <trkpt lat="43.21342" lon="5.43907">
        <ele>69.832886</ele>
        <time>2013-03-29T11:41:44.000Z</time>
      </trkpt>
      <trkpt lat="43.21343" lon="5.43899">
        <ele>71.75549</ele>
        <time>2013-03-29T11:41:49.000Z</time>
      </trkpt>
      <trkpt lat="43.21348" lon="5.43892">
        <ele>75.60083</ele>
        <time>2013-03-29T11:41:55.000Z</time>
      </trkpt>
      <trkpt lat="43.2135" lon="5.43882">
        <ele>79.446045</ele>
        <time>2013-03-29T11:42:01.000Z</time>
      </trkpt>
      <trkpt lat="43.21351" lon="5.43878">
        <ele>79.926636</ele>
        <time>2013-03-29T11:42:04.000Z</time>
      </trkpt>
      <trkpt lat="43.2135" lon="5.43873">
        <ele>79.446045</ele>
        <time>2013-03-29T11:42:07.000Z</time>
      </trkpt>
      <trkpt lat="43.21352" lon="5.43864">
        <ele>82.33008</ele>
        <time>2013-03-29T11:42:12.000Z</time>
      </trkpt>
      <trkpt lat="43.21353" lon="5.43861">
        <ele>83.29138</ele>
        <time>2013-03-29T11:42:14.000Z</time>
      </trkpt>
      <trkpt lat="43.21357" lon="5.4385">
        <ele>85.21399</ele>
        <time>2013-03-29T11:42:21.000Z</time>
      </trkpt>
      <trkpt lat="43.21361" lon="5.43844">
        <ele>88.578735</ele>
        <time>2013-03-29T11:42:26.000Z</time>
      </trkpt>
      <trkpt lat="43.21363" lon="5.43833">
        <ele>89.53992</ele>
        <time>2013-03-29T11:42:33.000Z</time>
      </trkpt>
      <trkpt lat="43.21363" lon="5.43829">
        <ele>89.53992</ele>
        <time>2013-03-29T11:42:35.000Z</time>
      </trkpt>
      <trkpt lat="43.21362" lon="5.43817">
        <ele>90.02063</ele>
        <time>2013-03-29T11:42:40.000Z</time>
      </trkpt>
      <trkpt lat="43.21362" lon="5.43806">
        <ele>90.50134</ele>
        <time>2013-03-29T11:42:44.000Z</time>
      </trkpt>
      <trkpt lat="43.21363" lon="5.438">
        <ele>90.50134</ele>
        <time>2013-03-29T11:42:46.000Z</time>
      </trkpt>
      <trkpt lat="43.21362" lon="5.43783">
        <ele>90.50134</ele>
        <time>2013-03-29T11:42:52.000Z</time>
      </trkpt>
      <trkpt lat="43.21362" lon="5.43765">
        <ele>91.462524</ele>
        <time>2013-03-29T11:42:58.000Z</time>
      </trkpt>
      <trkpt lat="43.21362" lon="5.43753">
        <ele>91.94324</ele>
        <time>2013-03-29T11:43:03.000Z</time>
      </trkpt>
      <trkpt lat="43.21363" lon="5.43752">
        <ele>92.90454</ele>
        <time>2013-03-29T11:43:05.000Z</time>
      </trkpt>
      <trkpt lat="43.2137" lon="5.43741">
        <ele>98.191895</ele>
        <time>2013-03-29T11:43:11.000Z</time>
      </trkpt>
      <trkpt lat="43.21375" lon="5.43735">
        <ele>99.153076</ele>
        <time>2013-03-29T11:43:15.000Z</time>
      </trkpt>
      <trkpt lat="43.21376" lon="5.43733">
        <ele>99.63379</ele>
        <time>2013-03-29T11:43:16.000Z</time>
      </trkpt>
      <trkpt lat="43.21387" lon="5.43726">
        <ele>100.1145</ele>
        <time>2013-03-29T11:43:23.000Z</time>
      </trkpt>
      <trkpt lat="43.21394" lon="5.43721">
        <ele>101.5564</ele>
        <time>2013-03-29T11:43:27.000Z</time>
      </trkpt>
      <trkpt lat="43.21403" lon="5.43716">
        <ele>105.88245</ele>
        <time>2013-03-29T11:43:33.000Z</time>
      </trkpt>
      <trkpt lat="43.21407" lon="5.43712">
        <ele>107.32434</ele>
        <time>2013-03-29T11:43:37.000Z</time>
      </trkpt>
      <trkpt lat="43.21414" lon="5.43705">
        <ele>111.169556</ele>
        <time>2013-03-29T11:43:42.000Z</time>
      </trkpt>
      <trkpt lat="43.21421" lon="5.43694">
        <ele>114.53418</ele>
        <time>2013-03-29T11:43:48.000Z</time>
      </trkpt>
      <trkpt lat="43.21425" lon="5.43684">
        <ele>117.41821</ele>
        <time>2013-03-29T11:43:53.000Z</time>
      </trkpt>
      <trkpt lat="43.21427" lon="5.43673">
        <ele>116.45679</ele>
        <time>2013-03-29T11:43:58.000Z</time>
      </trkpt>
      <trkpt lat="43.21429" lon="5.43669">
        <ele>116.45679</ele>
        <time>2013-03-29T11:44:00.000Z</time>
      </trkpt>
      <trkpt lat="43.21432" lon="5.43655">
        <ele>118.86011</ele>
        <time>2013-03-29T11:44:05.000Z</time>
      </trkpt>
      <trkpt lat="43.21436" lon="5.43642">
        <ele>120.302124</ele>
        <time>2013-03-29T11:44:10.000Z</time>
      </trkpt>
      <trkpt lat="43.21438" lon="5.43637">
        <ele>120.78284</ele>
        <time>2013-03-29T11:44:12.000Z</time>
      </trkpt>
      <trkpt lat="43.21443" lon="5.43626">
        <ele>122.22473</ele>
        <time>2013-03-29T11:44:17.000Z</time>
      </trkpt>
      <trkpt lat="43.21447" lon="5.43615">
        <ele>122.22473</ele>
        <time>2013-03-29T11:44:22.000Z</time>
      </trkpt>
      <trkpt lat="43.21448" lon="5.43613">
        <ele>122.22473</ele>
        <time>2013-03-29T11:44:23.000Z</time>
      </trkpt>
      <trkpt lat="43.21454" lon="5.43599">
        <ele>124.14734</ele>
        <time>2013-03-29T11:44:30.000Z</time>
      </trkpt>
      <trkpt lat="43.21458" lon="5.43587">
        <ele>125.108765</ele>
        <time>2013-03-29T11:44:36.000Z</time>
      </trkpt>
      <trkpt lat="43.21459" lon="5.43581">
        <ele>125.589355</ele>
        <time>2013-03-29T11:44:40.000Z</time>
      </trkpt>
      <trkpt lat="43.21464" lon="5.43574">
        <ele>125.589355</ele>
        <time>2013-03-29T11:44:47.000Z</time>
      </trkpt>
      <trkpt lat="43.21467" lon="5.43569">
        <ele>127.03137</ele>
        <time>2013-03-29T11:44:52.000Z</time>
      </trkpt>
      <trkpt lat="43.21469" lon="5.43562">
        <ele>128.9541</ele>
        <time>2013-03-29T11:44:58.000Z</time>
      </trkpt>
      <trkpt lat="43.21474" lon="5.43557">
        <ele>130.396</ele>
        <time>2013-03-29T11:45:04.000Z</time>
      </trkpt>
      <trkpt lat="43.21472" lon="5.43552">
        <ele>132.79932</ele>
        <time>2013-03-29T11:45:09.000Z</time>
      </trkpt>
      <trkpt lat="43.21471" lon="5.43548">
        <ele>133.2799</ele>
        <time>2013-03-29T11:45:13.000Z</time>
      </trkpt>
      <trkpt lat="43.21474" lon="5.43544">
        <ele>133.7605</ele>
        <time>2013-03-29T11:45:18.000Z</time>
      </trkpt>
      <trkpt lat="43.21478" lon="5.43536">
        <ele>137.12524</ele>
        <time>2013-03-29T11:45:24.000Z</time>
      </trkpt>
      <trkpt lat="43.21482" lon="5.43529">
        <ele>140.48987</ele>
        <time>2013-03-29T11:45:31.000Z</time>
      </trkpt>
      <trkpt lat="43.21486" lon="5.43524">
        <ele>142.89307</ele>
        <time>2013-03-29T11:45:35.000Z</time>
      </trkpt>
      <trkpt lat="43.21492" lon="5.43518">
        <ele>145.29639</ele>
        <time>2013-03-29T11:45:41.000Z</time>
      </trkpt>
      <trkpt lat="43.21494" lon="5.43514">
        <ele>146.7384</ele>
        <time>2013-03-29T11:45:45.000Z</time>
      </trkpt>
      <trkpt lat="43.21496" lon="5.43508">
        <ele>146.25781</ele>
        <time>2013-03-29T11:45:49.000Z</time>
      </trkpt>
      <trkpt lat="43.21497" lon="5.43504">
        <ele>147.6997</ele>
        <time>2013-03-29T11:45:54.000Z</time>
      </trkpt>
      <trkpt lat="43.21498" lon="5.43503">
        <ele>149.62231</ele>
        <time>2013-03-29T11:45:55.000Z</time>
      </trkpt>
      <trkpt lat="43.21499" lon="5.43496">
        <ele>150.10303</ele>
        <time>2013-03-29T11:46:01.000Z</time>
      </trkpt>
      <trkpt lat="43.21499" lon="5.43486">
        <ele>149.1416</ele>
        <time>2013-03-29T11:46:08.000Z</time>
      </trkpt>
      <trkpt lat="43.21495" lon="5.43476">
        <ele>148.66101</ele>
        <time>2013-03-29T11:46:13.000Z</time>
      </trkpt>
      <trkpt lat="43.21491" lon="5.43471">
        <ele>149.1416</ele>
        <time>2013-03-29T11:46:16.000Z</time>
      </trkpt>
      <trkpt lat="43.21486" lon="5.43462">
        <ele>153.46765</ele>
        <time>2013-03-29T11:46:23.000Z</time>
      </trkpt>
      <trkpt lat="43.21483" lon="5.4346">
        <ele>154.42896</ele>
        <time>2013-03-29T11:46:26.000Z</time>
      </trkpt>
      <trkpt lat="43.21482" lon="5.4346">
        <ele>155.39026</ele>
        <time>2013-03-29T11:46:28.000Z</time>
      </trkpt>
      <trkpt lat="43.21476" lon="5.43454">
        <ele>157.31287</ele>
        <time>2013-03-29T11:46:33.000Z</time>
      </trkpt>
      <trkpt lat="43.2147" lon="5.43449">
        <ele>159.71619</ele>
        <time>2013-03-29T11:46:38.000Z</time>
      </trkpt>
      <trkpt lat="43.21466" lon="5.43448">
        <ele>162.6001</ele>
        <time>2013-03-29T11:46:42.000Z</time>
      </trkpt>
      <trkpt lat="43.21461" lon="5.43447">
        <ele>163.56152</ele>
        <time>2013-03-29T11:46:46.000Z</time>
      </trkpt>
      <trkpt lat="43.21457" lon="5.43441">
        <ele>164.5227</ele>
        <time>2013-03-29T11:46:50.000Z</time>
      </trkpt>
      <trkpt lat="43.21457" lon="5.4344">
        <ele>165.00342</ele>
        <time>2013-03-29T11:46:51.000Z</time>
      </trkpt>
      <trkpt lat="43.21455" lon="5.43436">
        <ele>165.48413</ele>
        <time>2013-03-29T11:46:53.000Z</time>
      </trkpt>
      <trkpt lat="43.21453" lon="5.43424">
        <ele>166.44531</ele>
        <time>2013-03-29T11:46:58.000Z</time>
      </trkpt>
      <trkpt lat="43.21449" lon="5.43415">
        <ele>167.88733</ele>
        <time>2013-03-29T11:47:01.000Z</time>
      </trkpt>
      <trkpt lat="43.2144" lon="5.43402">
        <ele>165.48413</ele>
        <time>2013-03-29T11:47:08.000Z</time>
      </trkpt>
      <trkpt lat="43.21433" lon="5.43395">
        <ele>165.96472</ele>
        <time>2013-03-29T11:47:14.000Z</time>
      </trkpt>
      <trkpt lat="43.21427" lon="5.43387">
        <ele>168.36804</ele>
        <time>2013-03-29T11:47:19.000Z</time>
      </trkpt>
      <trkpt lat="43.21423" lon="5.43378">
        <ele>169.81006</ele>
        <time>2013-03-29T11:47:24.000Z</time>
      </trkpt>
      <trkpt lat="43.21423" lon="5.43366">
        <ele>169.81006</ele>
        <time>2013-03-29T11:47:28.000Z</time>
      </trkpt>
      <trkpt lat="43.21421" lon="5.4336">
        <ele>169.81006</ele>
        <time>2013-03-29T11:47:30.000Z</time>
      </trkpt>
      <trkpt lat="43.21413" lon="5.43353">
        <ele>168.84875</ele>
        <time>2013-03-29T11:47:36.000Z</time>
      </trkpt>
      <trkpt lat="43.21407" lon="5.43349">
        <ele>170.29065</ele>
        <time>2013-03-29T11:47:41.000Z</time>
      </trkpt>
      <trkpt lat="43.21401" lon="5.43346">
        <ele>172.69397</ele>
        <time>2013-03-29T11:47:48.000Z</time>
      </trkpt>
      <trkpt lat="43.21401" lon="5.43338">
        <ele>175.09729</ele>
        <time>2013-03-29T11:47:54.000Z</time>
      </trkpt>
      <trkpt lat="43.21402" lon="5.43331">
        <ele>176.0586</ele>
        <time>2013-03-29T11:47:57.000Z</time>
      </trkpt>
      <trkpt lat="43.21403" lon="5.43318">
        <ele>177.50061</ele>
        <time>2013-03-29T11:48:02.000Z</time>
      </trkpt>
      <trkpt lat="43.21406" lon="5.43314">
        <ele>177.50061</ele>
        <time>2013-03-29T11:48:04.000Z</time>
      </trkpt>
      <trkpt lat="43.21403" lon="5.43302">
        <ele>175.57788</ele>
        <time>2013-03-29T11:48:09.000Z</time>
      </trkpt>
      <trkpt lat="43.21399" lon="5.4329">
        <ele>173.17468</ele>
        <time>2013-03-29T11:48:14.000Z</time>
      </trkpt>
      <trkpt lat="43.21397" lon="5.43285">
        <ele>172.21326</ele>
        <time>2013-03-29T11:48:16.000Z</time>
      </trkpt>
      <trkpt lat="43.21393" lon="5.43274">
        <ele>170.29065</ele>
        <time>2013-03-29T11:48:20.000Z</time>
      </trkpt>
      <trkpt lat="43.21383" lon="5.43265">
        <ele>170.77136</ele>
        <time>2013-03-29T11:48:26.000Z</time>
      </trkpt>
      <trkpt lat="43.2138" lon="5.4326">
        <ele>171.73267</ele>
        <time>2013-03-29T11:48:28.000Z</time>
      </trkpt>
      <trkpt lat="43.2137" lon="5.4326">
        <ele>172.69397</ele>
        <time>2013-03-29T11:48:34.000Z</time>
      </trkpt>
      <trkpt lat="43.21367" lon="5.4326">
        <ele>174.61658</ele>
        <time>2013-03-29T11:48:37.000Z</time>
      </trkpt>
      <trkpt lat="43.21361" lon="5.4326">
        <ele>177.02002</ele>
        <time>2013-03-29T11:48:43.000Z</time>
      </trkpt>
      <trkpt lat="43.21358" lon="5.43259">
        <ele>178.46191</ele>
        <time>2013-03-29T11:48:46.000Z</time>
      </trkpt>
      <trkpt lat="43.21355" lon="5.43263">
        <ele>180.86523</ele>
        <time>2013-03-29T11:48:50.000Z</time>
      </trkpt>
      <trkpt lat="43.21355" lon="5.43266">
        <ele>181.82642</ele>
        <time>2013-03-29T11:48:52.000Z</time>
      </trkpt>
      <trkpt lat="43.21351" lon="5.43261">
        <ele>183.74902</ele>
        <time>2013-03-29T11:48:57.000Z</time>
      </trkpt>
      <trkpt lat="43.21349" lon="5.43254">
        <ele>184.71057</ele>
        <time>2013-03-29T11:49:00.000Z</time>
      </trkpt>
      <trkpt lat="43.21352" lon="5.43243">
        <ele>186.15247</ele>
        <time>2013-03-29T11:49:05.000Z</time>
      </trkpt>
      <trkpt lat="43.21354" lon="5.43241">
        <ele>186.63318</ele>
        <time>2013-03-29T11:49:06.000Z</time>
      </trkpt>
      <trkpt lat="43.21363" lon="5.43231">
        <ele>188.07507</ele>
        <time>2013-03-29T11:49:12.000Z</time>
      </trkpt>
      <trkpt lat="43.21368" lon="5.43219">
        <ele>188.55579</ele>
        <time>2013-03-29T11:49:17.000Z</time>
      </trkpt>
      <trkpt lat="43.21368" lon="5.43211">
        <ele>188.07507</ele>
        <time>2013-03-29T11:49:20.000Z</time>
      </trkpt>
      <trkpt lat="43.21369" lon="5.43198">
        <ele>188.55579</ele>
        <time>2013-03-29T11:49:26.000Z</time>
      </trkpt>
      <trkpt lat="43.21369" lon="5.43186">
        <ele>190.4784</ele>
        <time>2013-03-29T11:49:31.000Z</time>
      </trkpt>
      <trkpt lat="43.2137" lon="5.43181">
        <ele>191.43958</ele>
        <time>2013-03-29T11:49:34.000Z</time>
      </trkpt>
      <trkpt lat="43.2137" lon="5.43178">
        <ele>191.43958</ele>
        <time>2013-03-29T11:49:36.000Z</time>
      </trkpt>
      <trkpt lat="43.21374" lon="5.43165">
        <ele>195.28491</ele>
        <time>2013-03-29T11:49:43.000Z</time>
      </trkpt>
      <trkpt lat="43.21376" lon="5.43158">
        <ele>198.16895</ele>
        <time>2013-03-29T11:49:47.000Z</time>
      </trkpt>
      <trkpt lat="43.21384" lon="5.43152">
        <ele>199.61084</ele>
        <time>2013-03-29T11:49:52.000Z</time>
      </trkpt>
      <trkpt lat="43.21392" lon="5.43153">
        <ele>202.01428</ele>
        <time>2013-03-29T11:49:57.000Z</time>
      </trkpt>
      <trkpt lat="43.21397" lon="5.43155">
        <ele>203.93689</ele>
        <time>2013-03-29T11:50:01.000Z</time>
      </trkpt>
      <trkpt lat="43.21407" lon="5.43159">
        <ele>204.41748</ele>
        <time>2013-03-29T11:50:07.000Z</time>
      </trkpt>
      <trkpt lat="43.21407" lon="5.43157">
        <ele>205.37878</ele>
        <time>2013-03-29T11:50:11.000Z</time>
      </trkpt>
      <trkpt lat="43.21404" lon="5.43149">
        <ele>205.37878</ele>
        <time>2013-03-29T11:50:15.000Z</time>
      </trkpt>
      <trkpt lat="43.21403" lon="5.43145">
        <ele>206.34009</ele>
        <time>2013-03-29T11:50:17.000Z</time>
      </trkpt>
      <trkpt lat="43.21397" lon="5.43132">
        <ele>207.7821</ele>
        <time>2013-03-29T11:50:23.000Z</time>
      </trkpt>
      <trkpt lat="43.21396" lon="5.4313">
        <ele>208.26282</ele>
        <time>2013-03-29T11:50:24.000Z</time>
      </trkpt>
      <trkpt lat="43.21394" lon="5.43126">
        <ele>208.26282</ele>
        <time>2013-03-29T11:50:26.000Z</time>
      </trkpt>
      <trkpt lat="43.21384" lon="5.43122">
        <ele>210.18542</ele>
        <time>2013-03-29T11:50:32.000Z</time>
      </trkpt>
      <trkpt lat="43.21372" lon="5.43123">
        <ele>211.62744</ele>
        <time>2013-03-29T11:50:37.000Z</time>
      </trkpt>
      <trkpt lat="43.21366" lon="5.43127">
        <ele>212.10803</ele>
        <time>2013-03-29T11:50:41.000Z</time>
      </trkpt>
      <trkpt lat="43.21358" lon="5.43144">
        <ele>212.58862</ele>
        <time>2013-03-29T11:50:48.000Z</time>
      </trkpt>
      <trkpt lat="43.21351" lon="5.43153">
        <ele>213.55005</ele>
        <time>2013-03-29T11:50:52.000Z</time>
      </trkpt>
      <trkpt lat="43.21347" lon="5.43159">
        <ele>214.03064</ele>
        <time>2013-03-29T11:50:55.000Z</time>
      </trkpt>
      <trkpt lat="43.21339" lon="5.4317">
        <ele>215.95325</ele>
        <time>2013-03-29T11:51:01.000Z</time>
      </trkpt>
      <trkpt lat="43.21332" lon="5.4318">
        <ele>217.87598</ele>
        <time>2013-03-29T11:51:06.000Z</time>
      </trkpt>
      <trkpt lat="43.21328" lon="5.43184">
        <ele>218.83728</ele>
        <time>2013-03-29T11:51:09.000Z</time>
      </trkpt>
      <trkpt lat="43.21321" lon="5.43189">
        <ele>221.2406</ele>
        <time>2013-03-29T11:51:14.000Z</time>
      </trkpt>
      <trkpt lat="43.21313" lon="5.43195">
        <ele>223.16321</ele>
        <time>2013-03-29T11:51:19.000Z</time>
      </trkpt>
      <trkpt lat="43.21308" lon="5.43199">
        <ele>225.08594</ele>
        <time>2013-03-29T11:51:23.000Z</time>
      </trkpt>
      <trkpt lat="43.21301" lon="5.43208">
        <ele>227.96973</ele>
        <time>2013-03-29T11:51:29.000Z</time>
      </trkpt>
      <trkpt lat="43.21298" lon="5.43215">
        <ele>228.45044</ele>
        <time>2013-03-29T11:51:33.000Z</time>
      </trkpt>
      <trkpt lat="43.21291" lon="5.43225">
        <ele>229.41174</ele>
        <time>2013-03-29T11:51:39.000Z</time>
      </trkpt>
      <trkpt lat="43.21288" lon="5.43229">
        <ele>230.37305</ele>
        <time>2013-03-29T11:51:41.000Z</time>
      </trkpt>
      <trkpt lat="43.21286" lon="5.43233">
        <ele>230.85376</ele>
        <time>2013-03-29T11:51:43.000Z</time>
      </trkpt>
      <trkpt lat="43.21276" lon="5.43241">
        <ele>233.73767</ele>
        <time>2013-03-29T11:51:50.000Z</time>
      </trkpt>
      <trkpt lat="43.21274" lon="5.43242">
        <ele>234.21838</ele>
        <time>2013-03-29T11:51:56.000Z</time>
      </trkpt>
      <trkpt lat="43.21272" lon="5.43242">
        <ele>234.6991</ele>
        <time>2013-03-29T11:51:58.000Z</time>
      </trkpt>
      <trkpt lat="43.21268" lon="5.43238">
        <ele>235.17969</ele>
        <time>2013-03-29T11:52:04.000Z</time>
      </trkpt>
      <trkpt lat="43.21263" lon="5.43234">
        <ele>235.66028</ele>
        <time>2013-03-29T11:52:10.000Z</time>
      </trkpt>
      <trkpt lat="43.21263" lon="5.43232">
        <ele>236.6217</ele>
        <time>2013-03-29T11:52:15.000Z</time>
      </trkpt>
      <trkpt lat="43.21264" lon="5.43232">
        <ele>236.6217</ele>
        <time>2013-03-29T11:52:19.000Z</time>
      </trkpt>
      <trkpt lat="43.21264" lon="5.43236">
        <ele>237.1023</ele>
        <time>2013-03-29T11:52:23.000Z</time>
      </trkpt>
      <trkpt lat="43.21265" lon="5.43236">
        <ele>237.58289</ele>
        <time>2013-03-29T11:52:27.000Z</time>
      </trkpt>
      <trkpt lat="43.21265" lon="5.43232">
        <ele>238.0636</ele>
        <time>2013-03-29T11:52:34.000Z</time>
      </trkpt>
      <trkpt lat="43.2126" lon="5.43222">
        <ele>237.58289</ele>
        <time>2013-03-29T11:52:39.000Z</time>
      </trkpt>
      <trkpt lat="43.21258" lon="5.43217">
        <ele>237.1023</ele>
        <time>2013-03-29T11:52:41.000Z</time>
      </trkpt>
      <trkpt lat="43.21251" lon="5.4321">
        <ele>235.66028</ele>
        <time>2013-03-29T11:52:46.000Z</time>
      </trkpt>
      <trkpt lat="43.21244" lon="5.43202">
        <ele>234.21838</ele>
        <time>2013-03-29T11:52:50.000Z</time>
      </trkpt>
      <trkpt lat="43.21239" lon="5.43192">
        <ele>232.77649</ele>
        <time>2013-03-29T11:52:55.000Z</time>
      </trkpt>
      <trkpt lat="43.21235" lon="5.4319">
        <ele>229.89233</ele>
        <time>2013-03-29T11:52:59.000Z</time>
      </trkpt>
      <trkpt lat="43.21232" lon="5.43192">
        <ele>228.45044</ele>
        <time>2013-03-29T11:53:01.000Z</time>
      </trkpt>
      <trkpt lat="43.21229" lon="5.43183">
        <ele>225.56653</ele>
        <time>2013-03-29T11:53:06.000Z</time>
      </trkpt>
      <trkpt lat="43.21225" lon="5.43178">
        <ele>223.6438</ele>
        <time>2013-03-29T11:53:10.000Z</time>
      </trkpt>
      <trkpt lat="43.21221" lon="5.43169">
        <ele>221.2406</ele>
        <time>2013-03-29T11:53:14.000Z</time>
      </trkpt>
      <trkpt lat="43.21217" lon="5.43159">
        <ele>219.318</ele>
        <time>2013-03-29T11:53:18.000Z</time>
      </trkpt>
      <trkpt lat="43.21215" lon="5.43145">
        <ele>216.91467</ele>
        <time>2013-03-29T11:53:22.000Z</time>
      </trkpt>
      <trkpt lat="43.21216" lon="5.43144">
        <ele>215.95325</ele>
        <time>2013-03-29T11:53:32.000Z</time>
      </trkpt>
      <trkpt lat="43.21216" lon="5.4314">
        <ele>214.51123</ele>
        <time>2013-03-29T11:53:40.000Z</time>
      </trkpt>
      <trkpt lat="43.21217" lon="5.43127">
        <ele>213.55005</ele>
        <time>2013-03-29T11:53:44.000Z</time>
      </trkpt>
      <trkpt lat="43.21217" lon="5.43111">
        <ele>210.66602</ele>
        <time>2013-03-29T11:53:49.000Z</time>
      </trkpt>
      <trkpt lat="43.21224" lon="5.43099">
        <ele>209.70483</ele>
        <time>2013-03-29T11:53:53.000Z</time>
      </trkpt>
      <trkpt lat="43.21232" lon="5.43092">
        <ele>208.26282</ele>
        <time>2013-03-29T11:53:56.000Z</time>
      </trkpt>
      <trkpt lat="43.21234" lon="5.4309">
        <ele>207.7821</ele>
        <time>2013-03-29T11:53:57.000Z</time>
      </trkpt>
      <trkpt lat="43.21246" lon="5.4308">
        <ele>205.8595</ele>
        <time>2013-03-29T11:54:03.000Z</time>
      </trkpt>
      <trkpt lat="43.21252" lon="5.43064">
        <ele>203.93689</ele>
        <time>2013-03-29T11:54:09.000Z</time>
      </trkpt>
      <trkpt lat="43.21254" lon="5.43054">
        <ele>202.97546</ele>
        <time>2013-03-29T11:54:12.000Z</time>
      </trkpt>
      <trkpt lat="43.21259" lon="5.43034">
        <ele>202.49487</ele>
        <time>2013-03-29T11:54:17.000Z</time>
      </trkpt>
      <trkpt lat="43.21269" lon="5.43023">
        <ele>202.49487</ele>
        <time>2013-03-29T11:54:22.000Z</time>
      </trkpt>
      <trkpt lat="43.21279" lon="5.43022">
        <ele>202.49487</ele>
        <time>2013-03-29T11:54:26.000Z</time>
      </trkpt>
      <trkpt lat="43.21281" lon="5.43021">
        <ele>202.49487</ele>
        <time>2013-03-29T11:54:27.000Z</time>
      </trkpt>
      <trkpt lat="43.21295" lon="5.43018">
        <ele>202.49487</ele>
        <time>2013-03-29T11:54:33.000Z</time>
      </trkpt>
      <trkpt lat="43.21305" lon="5.43011">
        <ele>201.05286</ele>
        <time>2013-03-29T11:54:38.000Z</time>
      </trkpt>
      <trkpt lat="43.21314" lon="5.42999">
        <ele>202.01428</ele>
        <time>2013-03-29T11:54:42.000Z</time>
      </trkpt>
      <trkpt lat="43.21322" lon="5.42983">
        <ele>202.97546</ele>
        <time>2013-03-29T11:54:47.000Z</time>
      </trkpt>
      <trkpt lat="43.21326" lon="5.42966">
        <ele>203.93689</ele>
        <time>2013-03-29T11:54:52.000Z</time>
      </trkpt>
      <trkpt lat="43.21327" lon="5.4296">
        <ele>203.93689</ele>
        <time>2013-03-29T11:54:54.000Z</time>
      </trkpt>
      <trkpt lat="43.21335" lon="5.42956">
        <ele>203.45618</ele>
        <time>2013-03-29T11:54:59.000Z</time>
      </trkpt>
      <trkpt lat="43.21336" lon="5.42955">
        <ele>203.45618</ele>
        <time>2013-03-29T11:55:00.000Z</time>
      </trkpt>
      <trkpt lat="43.2134" lon="5.42953">
        <ele>204.41748</ele>
        <time>2013-03-29T11:55:07.000Z</time>
      </trkpt>
      <trkpt lat="43.21348" lon="5.42945">
        <ele>203.45618</ele>
        <time>2013-03-29T11:55:11.000Z</time>
      </trkpt>
      <trkpt lat="43.21355" lon="5.42934">
        <ele>203.45618</ele>
        <time>2013-03-29T11:55:15.000Z</time>
      </trkpt>
      <trkpt lat="43.2136" lon="5.42914">
        <ele>203.45618</ele>
        <time>2013-03-29T11:55:20.000Z</time>
      </trkpt>
      <trkpt lat="43.21361" lon="5.42902">
        <ele>202.01428</ele>
        <time>2013-03-29T11:55:23.000Z</time>
      </trkpt>
      <trkpt lat="43.21362" lon="5.4289">
        <ele>201.05286</ele>
        <time>2013-03-29T11:55:26.000Z</time>
      </trkpt>
      <trkpt lat="43.21362" lon="5.4288">
        <ele>199.61084</ele>
        <time>2013-03-29T11:55:29.000Z</time>
      </trkpt>
      <trkpt lat="43.21364" lon="5.42864">
        <ele>199.13013</ele>
        <time>2013-03-29T11:55:34.000Z</time>
      </trkpt>
      <trkpt lat="43.21363" lon="5.42857">
        <ele>199.13013</ele>
        <time>2013-03-29T11:55:36.000Z</time>
      </trkpt>
      <trkpt lat="43.21357" lon="5.42846">
        <ele>197.68823</ele>
        <time>2013-03-29T11:55:41.000Z</time>
      </trkpt>
      <trkpt lat="43.21353" lon="5.42841">
        <ele>197.20752</ele>
        <time>2013-03-29T11:55:43.000Z</time>
      </trkpt>
      <trkpt lat="43.21348" lon="5.42839">
        <ele>196.72693</ele>
        <time>2013-03-29T11:55:45.000Z</time>
      </trkpt>
      <trkpt lat="43.2134" lon="5.42834">
        <ele>193.3623</ele>
        <time>2013-03-29T11:55:49.000Z</time>
      </trkpt>
      <trkpt lat="43.21337" lon="5.42828">
        <ele>192.88171</ele>
        <time>2013-03-29T11:55:51.000Z</time>
      </trkpt>
      <trkpt lat="43.21336" lon="5.42822">
        <ele>191.92029</ele>
        <time>2013-03-29T11:55:54.000Z</time>
      </trkpt>
      <trkpt lat="43.21334" lon="5.42819">
        <ele>190.4784</ele>
        <time>2013-03-29T11:55:57.000Z</time>
      </trkpt>
      <trkpt lat="43.21328" lon="5.42815">
        <ele>189.51697</ele>
        <time>2013-03-29T11:56:01.000Z</time>
      </trkpt>
      <trkpt lat="43.21319" lon="5.42807">
        <ele>187.59436</ele>
        <time>2013-03-29T11:56:05.000Z</time>
      </trkpt>
      <trkpt lat="43.21316" lon="5.42795">
        <ele>186.63318</ele>
        <time>2013-03-29T11:56:08.000Z</time>
      </trkpt>
      <trkpt lat="43.21313" lon="5.42785">
        <ele>187.11377</ele>
        <time>2013-03-29T11:56:11.000Z</time>
      </trkpt>
      <trkpt lat="43.21308" lon="5.42779">
        <ele>188.07507</ele>
        <time>2013-03-29T11:56:14.000Z</time>
      </trkpt>
      <trkpt lat="43.21305" lon="5.42774">
        <ele>188.55579</ele>
        <time>2013-03-29T11:56:16.000Z</time>
      </trkpt>
      <trkpt lat="43.21302" lon="5.42767">
        <ele>189.99768</ele>
        <time>2013-03-29T11:56:21.000Z</time>
      </trkpt>
      <trkpt lat="43.21302" lon="5.42769">
        <ele>189.03638</ele>
        <time>2013-03-29T11:56:28.000Z</time>
      </trkpt>
      <trkpt lat="43.213" lon="5.42767">
        <ele>187.59436</ele>
        <time>2013-03-29T11:56:38.000Z</time>
      </trkpt>
      <trkpt lat="43.21297" lon="5.42766">
        <ele>186.63318</ele>
        <time>2013-03-29T11:56:43.000Z</time>
      </trkpt>
      <trkpt lat="43.21296" lon="5.42768">
        <ele>186.15247</ele>
        <time>2013-03-29T11:56:45.000Z</time>
      </trkpt>
      <trkpt lat="43.21293" lon="5.42766">
        <ele>184.22986</ele>
        <time>2013-03-29T11:56:49.000Z</time>
      </trkpt>
      <trkpt lat="43.2129" lon="5.4276">
        <ele>183.26843</ele>
        <time>2013-03-29T11:56:52.000Z</time>
      </trkpt>
      <trkpt lat="43.21285" lon="5.42757">
        <ele>181.82642</ele>
        <time>2013-03-29T11:56:56.000Z</time>
      </trkpt>
      <trkpt lat="43.21285" lon="5.42752">
        <ele>180.86523</ele>
        <time>2013-03-29T11:56:59.000Z</time>
      </trkpt>
      <trkpt lat="43.2128" lon="5.42753">
        <ele>179.42322</ele>
        <time>2013-03-29T11:57:02.000Z</time>
      </trkpt>
      <trkpt lat="43.21275" lon="5.4275">
        <ele>177.02002</ele>
        <time>2013-03-29T11:57:06.000Z</time>
      </trkpt>
      <trkpt lat="43.21275" lon="5.42748">
        <ele>176.5393</ele>
        <time>2013-03-29T11:57:07.000Z</time>
      </trkpt>
      <trkpt lat="43.21278" lon="5.42738">
        <ele>174.13586</ele>
        <time>2013-03-29T11:57:12.000Z</time>
      </trkpt>
      <trkpt lat="43.21281" lon="5.42737">
        <ele>171.73267</ele>
        <time>2013-03-29T11:57:18.000Z</time>
      </trkpt>
      <trkpt lat="43.21282" lon="5.42738">
        <ele>170.29065</ele>
        <time>2013-03-29T11:57:23.000Z</time>
      </trkpt>
      <trkpt lat="43.21281" lon="5.42734">
        <ele>167.88733</ele>
        <time>2013-03-29T11:57:36.000Z</time>
      </trkpt>
      <trkpt lat="43.21282" lon="5.42733">
        <ele>167.88733</ele>
        <time>2013-03-29T11:57:37.000Z</time>
      </trkpt>
      <trkpt lat="43.21286" lon="5.4273">
        <ele>165.96472</ele>
        <time>2013-03-29T11:57:41.000Z</time>
      </trkpt>
      <trkpt lat="43.21288" lon="5.42726">
        <ele>164.04211</ele>
        <time>2013-03-29T11:57:44.000Z</time>
      </trkpt>
      <trkpt lat="43.21283" lon="5.42725">
        <ele>160.67749</ele>
        <time>2013-03-29T11:57:48.000Z</time>
      </trkpt>
      <trkpt lat="43.21282" lon="5.42725">
        <ele>160.1969</ele>
        <time>2013-03-29T11:57:49.000Z</time>
      </trkpt>
      <trkpt lat="43.21277" lon="5.42721">
        <ele>159.23547</ele>
        <time>2013-03-29T11:57:54.000Z</time>
      </trkpt>
      <trkpt lat="43.21273" lon="5.42714">
        <ele>156.83215</ele>
        <time>2013-03-29T11:58:00.000Z</time>
      </trkpt>
      <trkpt lat="43.21266" lon="5.42711">
        <ele>153.94836</ele>
        <time>2013-03-29T11:58:05.000Z</time>
      </trkpt>
      <trkpt lat="43.21262" lon="5.42709">
        <ele>152.50635</ele>
        <time>2013-03-29T11:58:08.000Z</time>
      </trkpt>
      <trkpt lat="43.21251" lon="5.42705">
        <ele>150.10303</ele>
        <time>2013-03-29T11:58:15.000Z</time>
      </trkpt>
      <trkpt lat="43.21248" lon="5.42704">
        <ele>148.66101</ele>
        <time>2013-03-29T11:58:17.000Z</time>
      </trkpt>
      <trkpt lat="43.21238" lon="5.42703">
        <ele>143.85437</ele>
        <time>2013-03-29T11:58:22.000Z</time>
      </trkpt>
      <trkpt lat="43.21235" lon="5.42699">
        <ele>140.97046</ele>
        <time>2013-03-29T11:58:26.000Z</time>
      </trkpt>
      <trkpt lat="43.21235" lon="5.42698">
        <ele>140.48987</ele>
        <time>2013-03-29T11:58:27.000Z</time>
      </trkpt>
      <trkpt lat="43.21233" lon="5.42695">
        <ele>139.04785</ele>
        <time>2013-03-29T11:58:31.000Z</time>
      </trkpt>
      <trkpt lat="43.21229" lon="5.42689">
        <ele>136.64465</ele>
        <time>2013-03-29T11:58:37.000Z</time>
      </trkpt>
      <trkpt lat="43.21222" lon="5.42688">
        <ele>135.6831</ele>
        <time>2013-03-29T11:58:40.000Z</time>
      </trkpt>
      <trkpt lat="43.2122" lon="5.42684">
        <ele>136.64465</ele>
        <time>2013-03-29T11:58:43.000Z</time>
      </trkpt>
      <trkpt lat="43.21221" lon="5.42684">
        <ele>135.6831</ele>
        <time>2013-03-29T11:58:44.000Z</time>
      </trkpt>
      <trkpt lat="43.21216" lon="5.42681">
        <ele>135.6831</ele>
        <time>2013-03-29T11:58:48.000Z</time>
      </trkpt>
      <trkpt lat="43.21217" lon="5.42678">
        <ele>135.20251</ele>
        <time>2013-03-29T11:58:50.000Z</time>
      </trkpt>
      <trkpt lat="43.21216" lon="5.42675">
        <ele>133.7605</ele>
        <time>2013-03-29T11:58:54.000Z</time>
      </trkpt>
      <trkpt lat="43.21213" lon="5.42673">
        <ele>129.4347</ele>
        <time>2013-03-29T11:59:00.000Z</time>
      </trkpt>
      <trkpt lat="43.21212" lon="5.4267">
        <ele>126.06995</ele>
        <time>2013-03-29T11:59:05.000Z</time>
      </trkpt>
      <trkpt lat="43.2121" lon="5.4267">
        <ele>123.66675</ele>
        <time>2013-03-29T11:59:08.000Z</time>
      </trkpt>
      <trkpt lat="43.21204" lon="5.42671">
        <ele>119.82141</ele>
        <time>2013-03-29T11:59:12.000Z</time>
      </trkpt>
      <trkpt lat="43.21198" lon="5.42671">
        <ele>116.45679</ele>
        <time>2013-03-29T11:59:18.000Z</time>
      </trkpt>
      <trkpt lat="43.21198" lon="5.4267">
        <ele>115.495605</ele>
        <time>2013-03-29T11:59:19.000Z</time>
      </trkpt>
      <trkpt lat="43.21198" lon="5.42664">
        <ele>114.05359</ele>
        <time>2013-03-29T11:59:23.000Z</time>
      </trkpt>
      <trkpt lat="43.21193" lon="5.42662">
        <ele>112.13098</ele>
        <time>2013-03-29T11:59:28.000Z</time>
      </trkpt>
      <trkpt lat="43.21192" lon="5.4266">
        <ele>111.169556</ele>
        <time>2013-03-29T11:59:32.000Z</time>
      </trkpt>
      <trkpt lat="43.21193" lon="5.42655">
        <ele>111.169556</ele>
        <time>2013-03-29T11:59:36.000Z</time>
      </trkpt>
      <trkpt lat="43.21195" lon="5.42652">
        <ele>111.65027</ele>
        <time>2013-03-29T11:59:38.000Z</time>
      </trkpt>
      <trkpt lat="43.212" lon="5.42643">
        <ele>112.13098</ele>
        <time>2013-03-29T11:59:45.000Z</time>
      </trkpt>
      <trkpt lat="43.21202" lon="5.4264">
        <ele>111.169556</ele>
        <time>2013-03-29T11:59:50.000Z</time>
      </trkpt>
      <trkpt lat="43.21199" lon="5.42639">
        <ele>108.766235</ele>
        <time>2013-03-29T11:59:54.000Z</time>
      </trkpt>
      <trkpt lat="43.21195" lon="5.42638">
        <ele>106.84363</ele>
        <time>2013-03-29T11:59:57.000Z</time>
      </trkpt>
      <trkpt lat="43.21185" lon="5.42641">
        <ele>103.95972</ele>
        <time>2013-03-29T12:00:03.000Z</time>
      </trkpt>
      <trkpt lat="43.21178" lon="5.42637">
        <ele>101.5564</ele>
        <time>2013-03-29T12:00:07.000Z</time>
      </trkpt>
      <trkpt lat="43.21171" lon="5.42637">
        <ele>99.153076</ele>
        <time>2013-03-29T12:00:12.000Z</time>
      </trkpt>
      <trkpt lat="43.2117" lon="5.42636">
        <ele>98.191895</ele>
        <time>2013-03-29T12:00:14.000Z</time>
      </trkpt>
      <trkpt lat="43.21173" lon="5.4263">
        <ele>97.23047</ele>
        <time>2013-03-29T12:00:19.000Z</time>
      </trkpt>
      <trkpt lat="43.21171" lon="5.42627">
        <ele>96.74988</ele>
        <time>2013-03-29T12:00:23.000Z</time>
      </trkpt>
      <trkpt lat="43.21167" lon="5.4262">
        <ele>95.30774</ele>
        <time>2013-03-29T12:00:29.000Z</time>
      </trkpt>
      <trkpt lat="43.21163" lon="5.42616">
        <ele>93.38513</ele>
        <time>2013-03-29T12:00:35.000Z</time>
      </trkpt>
      <trkpt lat="43.2116" lon="5.42613">
        <ele>91.462524</ele>
        <time>2013-03-29T12:00:40.000Z</time>
      </trkpt>
      <trkpt lat="43.21157" lon="5.42609">
        <ele>90.02063</ele>
        <time>2013-03-29T12:00:44.000Z</time>
      </trkpt>
      <trkpt lat="43.21156" lon="5.42607">
        <ele>89.53992</ele>
        <time>2013-03-29T12:00:46.000Z</time>
      </trkpt>
      <trkpt lat="43.21152" lon="5.42604">
        <ele>87.61719</ele>
        <time>2013-03-29T12:00:51.000Z</time>
      </trkpt>
      <trkpt lat="43.21152" lon="5.42601">
        <ele>87.1366</ele>
        <time>2013-03-29T12:00:53.000Z</time>
      </trkpt>
      <trkpt lat="43.21148" lon="5.42599">
        <ele>84.7334</ele>
        <time>2013-03-29T12:00:57.000Z</time>
      </trkpt>
      <trkpt lat="43.21141" lon="5.42596">
        <ele>81.368774</ele>
        <time>2013-03-29T12:01:03.000Z</time>
      </trkpt>
      <trkpt lat="43.21139" lon="5.42594">
        <ele>81.368774</ele>
        <time>2013-03-29T12:01:05.000Z</time>
      </trkpt>
      <trkpt lat="43.21138" lon="5.42589">
        <ele>80.40747</ele>
        <time>2013-03-29T12:01:08.000Z</time>
      </trkpt>
      <trkpt lat="43.21131" lon="5.42585">
        <ele>78.48474</ele>
        <time>2013-03-29T12:01:13.000Z</time>
      </trkpt>
      <trkpt lat="43.2113" lon="5.42576">
        <ele>75.12024</ele>
        <time>2013-03-29T12:01:18.000Z</time>
      </trkpt>
      <trkpt lat="43.21126" lon="5.42567">
        <ele>71.75549</ele>
        <time>2013-03-29T12:01:24.000Z</time>
      </trkpt>
      <trkpt lat="43.21123" lon="5.42559">
        <ele>69.832886</ele>
        <time>2013-03-29T12:01:28.000Z</time>
      </trkpt>
      <trkpt lat="43.21121" lon="5.42552">
        <ele>68.87158</ele>
        <time>2013-03-29T12:01:31.000Z</time>
      </trkpt>
      <trkpt lat="43.21118" lon="5.42542">
        <ele>66.948975</ele>
        <time>2013-03-29T12:01:35.000Z</time>
      </trkpt>
      <trkpt lat="43.21112" lon="5.42534">
        <ele>63.103638</ele>
        <time>2013-03-29T12:01:41.000Z</time>
      </trkpt>
      <trkpt lat="43.21112" lon="5.42533">
        <ele>62.142334</ele>
        <time>2013-03-29T12:01:43.000Z</time>
      </trkpt>
      <trkpt lat="43.2111" lon="5.42534">
        <ele>60.219727</ele>
        <time>2013-03-29T12:01:45.000Z</time>
      </trkpt>
      <trkpt lat="43.21106" lon="5.42533">
        <ele>57.335815</ele>
        <time>2013-03-29T12:01:50.000Z</time>
      </trkpt>
      <trkpt lat="43.21104" lon="5.4253">
        <ele>56.37451</ele>
        <time>2013-03-29T12:01:53.000Z</time>
      </trkpt>
      <trkpt lat="43.211" lon="5.42526">
        <ele>54.932373</ele>
        <time>2013-03-29T12:01:57.000Z</time>
      </trkpt>
      <trkpt lat="43.2109" lon="5.42521">
        <ele>51.56787</ele>
        <time>2013-03-29T12:02:03.000Z</time>
      </trkpt>
      <trkpt lat="43.21086" lon="5.42513">
        <ele>49.645264</ele>
        <time>2013-03-29T12:02:07.000Z</time>
      </trkpt>
      <trkpt lat="43.21084" lon="5.4251">
        <ele>48.68396</ele>
        <time>2013-03-29T12:02:09.000Z</time>
      </trkpt>
      <trkpt lat="43.2108" lon="5.42503">
        <ele>48.20337</ele>
        <time>2013-03-29T12:02:14.000Z</time>
      </trkpt>
      <trkpt lat="43.21077" lon="5.425">
        <ele>48.20337</ele>
        <time>2013-03-29T12:02:24.000Z</time>
      </trkpt>
      <trkpt lat="43.21079" lon="5.42495">
        <ele>47.722534</ele>
        <time>2013-03-29T12:02:29.000Z</time>
      </trkpt>
      <trkpt lat="43.21083" lon="5.42486">
        <ele>45.799927</ele>
        <time>2013-03-29T12:02:35.000Z</time>
      </trkpt>
      <trkpt lat="43.21088" lon="5.42482">
        <ele>43.87732</ele>
        <time>2013-03-29T12:02:41.000Z</time>
      </trkpt>
      <trkpt lat="43.21089" lon="5.42481">
        <ele>42.916016</ele>
        <time>2013-03-29T12:02:43.000Z</time>
      </trkpt>
      <trkpt lat="43.21086" lon="5.42473">
        <ele>41.474</ele>
        <time>2013-03-29T12:02:48.000Z</time>
      </trkpt>
      <trkpt lat="43.21078" lon="5.42472">
        <ele>39.07068</ele>
        <time>2013-03-29T12:02:52.000Z</time>
      </trkpt>
      <trkpt lat="43.21077" lon="5.42466">
        <ele>36.66748</ele>
        <time>2013-03-29T12:02:55.000Z</time>
      </trkpt>
      <trkpt lat="43.21073" lon="5.42465">
        <ele>36.186768</ele>
        <time>2013-03-29T12:02:58.000Z</time>
      </trkpt>
      <trkpt lat="43.2107" lon="5.42465">
        <ele>35.706055</ele>
        <time>2013-03-29T12:03:02.000Z</time>
      </trkpt>
      <trkpt lat="43.2107" lon="5.42459">
        <ele>35.225464</ele>
        <time>2013-03-29T12:03:07.000Z</time>
      </trkpt>
      <trkpt lat="43.21066" lon="5.42459">
        <ele>34.26416</ele>
        <time>2013-03-29T12:03:12.000Z</time>
      </trkpt>
      <trkpt lat="43.21061" lon="5.42458">
        <ele>32.341553</ele>
        <time>2013-03-29T12:03:17.000Z</time>
      </trkpt>
      <trkpt lat="43.21062" lon="5.42444">
        <ele>29.45752</ele>
        <time>2013-03-29T12:03:23.000Z</time>
      </trkpt>
      <trkpt lat="43.21062" lon="5.42441">
        <ele>29.45752</ele>
        <time>2013-03-29T12:03:24.000Z</time>
      </trkpt>
      <trkpt lat="43.21066" lon="5.42433">
        <ele>27.054321</ele>
        <time>2013-03-29T12:03:28.000Z</time>
      </trkpt>
      <trkpt lat="43.21075" lon="5.4242">
        <ele>24.170288</ele>
        <time>2013-03-29T12:03:34.000Z</time>
      </trkpt>
      <trkpt lat="43.21081" lon="5.4242">
        <ele>21.286377</ele>
        <time>2013-03-29T12:03:37.000Z</time>
      </trkpt>
      <trkpt lat="43.21089" lon="5.42422">
        <ele>18.402344</ele>
        <time>2013-03-29T12:03:41.000Z</time>
      </trkpt>
      <trkpt lat="43.21096" lon="5.42422">
        <ele>15.999023</ele>
        <time>2013-03-29T12:03:45.000Z</time>
      </trkpt>
      <trkpt lat="43.211" lon="5.42419">
        <ele>16.479736</ele>
        <time>2013-03-29T12:03:52.000Z</time>
      </trkpt>
      <trkpt lat="43.21107" lon="5.42414">
        <ele>16.479736</ele>
        <time>2013-03-29T12:03:57.000Z</time>
      </trkpt>
      <trkpt lat="43.21106" lon="5.42412">
        <ele>20.805664</ele>
        <time>2013-03-29T12:04:00.000Z</time>
      </trkpt>
      <trkpt lat="43.21111" lon="5.42406">
        <ele>21.766968</ele>
        <time>2013-03-29T12:04:06.000Z</time>
      </trkpt>
      <trkpt lat="43.21121" lon="5.42399">
        <ele>19.36377</ele>
        <time>2013-03-29T12:04:11.000Z</time>
      </trkpt>
      <trkpt lat="43.21127" lon="5.42391">
        <ele>20.324951</ele>
        <time>2013-03-29T12:04:15.000Z</time>
      </trkpt>
      <trkpt lat="43.21132" lon="5.42386">
        <ele>17.921753</ele>
        <time>2013-03-29T12:04:18.000Z</time>
      </trkpt>
      <trkpt lat="43.21134" lon="5.42364">
        <ele>16.96045</ele>
        <time>2013-03-29T12:04:24.000Z</time>
      </trkpt>
      <trkpt lat="43.21135" lon="5.42361">
        <ele>16.96045</ele>
        <time>2013-03-29T12:04:25.000Z</time>
      </trkpt>
      <trkpt lat="43.21141" lon="5.4235">
        <ele>16.96045</ele>
        <time>2013-03-29T12:04:31.000Z</time>
      </trkpt>
      <trkpt lat="43.21144" lon="5.42348">
        <ele>16.479736</ele>
        <time>2013-03-29T12:04:39.000Z</time>
      </trkpt>
      <trkpt lat="43.21153" lon="5.42342">
        <ele>15.518433</ele>
        <time>2013-03-29T12:04:44.000Z</time>
      </trkpt>
      <trkpt lat="43.21156" lon="5.4234">
        <ele>16.479736</ele>
        <time>2013-03-29T12:04:50.000Z</time>
      </trkpt>
      <trkpt lat="43.21157" lon="5.4234">
        <ele>15.999023</ele>
        <time>2013-03-29T12:04:51.000Z</time>
      </trkpt>
      <trkpt lat="43.21168" lon="5.42335">
        <ele>14.557007</ele>
        <time>2013-03-29T12:04:58.000Z</time>
      </trkpt>
      <trkpt lat="43.21174" lon="5.42329">
        <ele>15.999023</ele>
        <time>2013-03-29T12:05:03.000Z</time>
      </trkpt>
      <trkpt lat="43.21172" lon="5.42316">
        <ele>17.441162</ele>
        <time>2013-03-29T12:05:07.000Z</time>
      </trkpt>
      <trkpt lat="43.21171" lon="5.42313">
        <ele>16.479736</ele>
        <time>2013-03-29T12:05:09.000Z</time>
      </trkpt>
      <trkpt lat="43.2117" lon="5.42329">
        <ele>21.766968</ele>
        <time>2013-03-29T12:17:59.000Z</time>
      </trkpt>
      <trkpt lat="43.21171" lon="5.42328">
        <ele>20.805664</ele>
        <time>2013-03-29T12:18:00.000Z</time>
      </trkpt>
      <trkpt lat="43.21172" lon="5.42326">
        <ele>19.84436</ele>
        <time>2013-03-29T12:18:01.000Z</time>
      </trkpt>
      <trkpt lat="43.21172" lon="5.42313">
        <ele>17.441162</ele>
        <time>2013-03-29T12:18:06.000Z</time>
      </trkpt>
      <trkpt lat="43.21166" lon="5.423">
        <ele>16.96045</ele>
        <time>2013-03-29T12:18:12.000Z</time>
      </trkpt>
      <trkpt lat="43.2116" lon="5.42291">
        <ele>17.921753</ele>
        <time>2013-03-29T12:18:17.000Z</time>
      </trkpt>
      <trkpt lat="43.21154" lon="5.42284">
        <ele>17.921753</ele>
        <time>2013-03-29T12:18:21.000Z</time>
      </trkpt>
      <trkpt lat="43.21152" lon="5.42282">
        <ele>17.921753</ele>
        <time>2013-03-29T12:18:22.000Z</time>
      </trkpt>
      <trkpt lat="43.2114" lon="5.42271">
        <ele>15.999023</ele>
        <time>2013-03-29T12:18:29.000Z</time>
      </trkpt>
      <trkpt lat="43.2113" lon="5.42265">
        <ele>15.03772</ele>
        <time>2013-03-29T12:18:34.000Z</time>
      </trkpt>
      <trkpt lat="43.21112" lon="5.42258">
        <ele>14.076416</ele>
        <time>2013-03-29T12:18:41.000Z</time>
      </trkpt>
      <trkpt lat="43.2111" lon="5.42258">
        <ele>13.595825</ele>
        <time>2013-03-29T12:18:42.000Z</time>
      </trkpt>
      <trkpt lat="43.21101" lon="5.4225">
        <ele>12.153809</ele>
        <time>2013-03-29T12:18:46.000Z</time>
      </trkpt>
      <trkpt lat="43.21094" lon="5.42237">
        <ele>11.673218</ele>
        <time>2013-03-29T12:18:51.000Z</time>
      </trkpt>
      <trkpt lat="43.2109" lon="5.42223">
        <ele>10.711792</ele>
        <time>2013-03-29T12:18:55.000Z</time>
      </trkpt>
      <trkpt lat="43.2109" lon="5.42208">
        <ele>9.269897</ele>
        <time>2013-03-29T12:19:00.000Z</time>
      </trkpt>
      <trkpt lat="43.21089" lon="5.42193">
        <ele>9.269897</ele>
        <time>2013-03-29T12:19:05.000Z</time>
      </trkpt>
      <trkpt lat="43.21091" lon="5.42179">
        <ele>7.347168</ele>
        <time>2013-03-29T12:19:10.000Z</time>
      </trkpt>
      <trkpt lat="43.21091" lon="5.42163">
        <ele>6.866455</ele>
        <time>2013-03-29T12:19:15.000Z</time>
      </trkpt>
      <trkpt lat="43.21094" lon="5.42143">
        <ele>8.789185</ele>
        <time>2013-03-29T12:19:21.000Z</time>
      </trkpt>
      <trkpt lat="43.21097" lon="5.42125">
        <ele>10.231201</ele>
        <time>2013-03-29T12:19:26.000Z</time>
      </trkpt>
      <trkpt lat="43.21101" lon="5.42108">
        <ele>13.115112</ele>
        <time>2013-03-29T12:19:31.000Z</time>
      </trkpt>
      <trkpt lat="43.21106" lon="5.42088">
        <ele>13.595825</ele>
        <time>2013-03-29T12:19:37.000Z</time>
      </trkpt>
      <trkpt lat="43.21107" lon="5.42074">
        <ele>15.03772</ele>
        <time>2013-03-29T12:19:41.000Z</time>
      </trkpt>
      <trkpt lat="43.21106" lon="5.42071">
        <ele>15.03772</ele>
        <time>2013-03-29T12:19:42.000Z</time>
      </trkpt>
      <trkpt lat="43.21103" lon="5.42063">
        <ele>15.03772</ele>
        <time>2013-03-29T12:19:45.000Z</time>
      </trkpt>
      <trkpt lat="43.21103" lon="5.42058">
        <ele>16.479736</ele>
        <time>2013-03-29T12:19:52.000Z</time>
      </trkpt>
      <trkpt lat="43.21104" lon="5.42052">
        <ele>16.479736</ele>
        <time>2013-03-29T12:19:57.000Z</time>
      </trkpt>
      <trkpt lat="43.21105" lon="5.42049">
        <ele>16.479736</ele>
        <time>2013-03-29T12:19:59.000Z</time>
      </trkpt>
      <trkpt lat="43.21108" lon="5.42039">
        <ele>16.479736</ele>
        <time>2013-03-29T12:20:05.000Z</time>
      </trkpt>
      <trkpt lat="43.21111" lon="5.42031">
        <ele>15.999023</ele>
        <time>2013-03-29T12:20:10.000Z</time>
      </trkpt>
      <trkpt lat="43.21116" lon="5.42017">
        <ele>15.518433</ele>
        <time>2013-03-29T12:20:14.000Z</time>
      </trkpt>
      <trkpt lat="43.2112" lon="5.42008">
        <ele>13.595825</ele>
        <time>2013-03-29T12:20:17.000Z</time>
      </trkpt>
      <trkpt lat="43.21123" lon="5.42002">
        <ele>14.076416</ele>
        <time>2013-03-29T12:20:19.000Z</time>
      </trkpt>
      <trkpt lat="43.21125" lon="5.41986">
        <ele>16.479736</ele>
        <time>2013-03-29T12:20:24.000Z</time>
      </trkpt>
      <trkpt lat="43.21126" lon="5.41982">
        <ele>16.96045</ele>
        <time>2013-03-29T12:20:25.000Z</time>
      </trkpt>
      <trkpt lat="43.21126" lon="5.41975">
        <ele>17.441162</ele>
        <time>2013-03-29T12:20:27.000Z</time>
      </trkpt>
      <trkpt lat="43.21128" lon="5.41966">
        <ele>19.36377</ele>
        <time>2013-03-29T12:20:31.000Z</time>
      </trkpt>
      <trkpt lat="43.21128" lon="5.41964">
        <ele>20.805664</ele>
        <time>2013-03-29T12:20:36.000Z</time>
      </trkpt>
      <trkpt lat="43.21129" lon="5.41958">
        <ele>21.766968</ele>
        <time>2013-03-29T12:20:45.000Z</time>
      </trkpt>
      <trkpt lat="43.21129" lon="5.41956">
        <ele>21.766968</ele>
        <time>2013-03-29T12:20:46.000Z</time>
      </trkpt>
      <trkpt lat="43.21131" lon="5.41954">
        <ele>21.286377</ele>
        <time>2013-03-29T12:20:48.000Z</time>
      </trkpt>
      <trkpt lat="43.21133" lon="5.41942">
        <ele>20.805664</ele>
        <time>2013-03-29T12:20:52.000Z</time>
      </trkpt>
      <trkpt lat="43.21141" lon="5.41931">
        <ele>22.728271</ele>
        <time>2013-03-29T12:20:58.000Z</time>
      </trkpt>
      <trkpt lat="43.21143" lon="5.41927">
        <ele>24.170288</ele>
        <time>2013-03-29T12:21:00.000Z</time>
      </trkpt>
      <trkpt lat="43.21143" lon="5.41923">
        <ele>27.054321</ele>
        <time>2013-03-29T12:21:09.000Z</time>
      </trkpt>
      <trkpt lat="43.21149" lon="5.41915">
        <ele>28.496216</ele>
        <time>2013-03-29T12:21:18.000Z</time>
      </trkpt>
      <trkpt lat="43.21158" lon="5.4191">
        <ele>29.45752</ele>
        <time>2013-03-29T12:21:23.000Z</time>
      </trkpt>
      <trkpt lat="43.21166" lon="5.41907">
        <ele>30.418823</ele>
        <time>2013-03-29T12:21:27.000Z</time>
      </trkpt>
      <trkpt lat="43.21172" lon="5.41905">
        <ele>31.860718</ele>
        <time>2013-03-29T12:21:30.000Z</time>
      </trkpt>
      <trkpt lat="43.21181" lon="5.41901">
        <ele>35.225464</ele>
        <time>2013-03-29T12:21:35.000Z</time>
      </trkpt>
      <trkpt lat="43.21193" lon="5.41893">
        <ele>35.225464</ele>
        <time>2013-03-29T12:21:41.000Z</time>
      </trkpt>
      <trkpt lat="43.21204" lon="5.41886">
        <ele>36.186768</ele>
        <time>2013-03-29T12:21:46.000Z</time>
      </trkpt>
      <trkpt lat="43.21206" lon="5.41886">
        <ele>37.14807</ele>
        <time>2013-03-29T12:21:47.000Z</time>
      </trkpt>
      <trkpt lat="43.21218" lon="5.41877">
        <ele>40.032104</ele>
        <time>2013-03-29T12:21:53.000Z</time>
      </trkpt>
      <trkpt lat="43.21226" lon="5.41872">
        <ele>41.474</ele>
        <time>2013-03-29T12:21:57.000Z</time>
      </trkpt>
      <trkpt lat="43.21229" lon="5.41871">
        <ele>41.474</ele>
        <time>2013-03-29T12:21:58.000Z</time>
      </trkpt>
      <trkpt lat="43.21242" lon="5.41861">
        <ele>40.99341</ele>
        <time>2013-03-29T12:22:04.000Z</time>
      </trkpt>
      <trkpt lat="43.2125" lon="5.4186">
        <ele>40.032104</ele>
        <time>2013-03-29T12:22:08.000Z</time>
      </trkpt>
      <trkpt lat="43.21255" lon="5.41855">
        <ele>40.512817</ele>
        <time>2013-03-29T12:22:12.000Z</time>
      </trkpt>
      <trkpt lat="43.21257" lon="5.41855">
        <ele>40.032104</ele>
        <time>2013-03-29T12:22:13.000Z</time>
      </trkpt>
      <trkpt lat="43.21264" lon="5.41845">
        <ele>40.032104</ele>
        <time>2013-03-29T12:22:19.000Z</time>
      </trkpt>
      <trkpt lat="43.21268" lon="5.4184">
        <ele>39.55127</ele>
        <time>2013-03-29T12:22:22.000Z</time>
      </trkpt>
      <trkpt lat="43.2127" lon="5.41838">
        <ele>41.474</ele>
        <time>2013-03-29T12:22:25.000Z</time>
      </trkpt>
      <trkpt lat="43.21273" lon="5.41838">
        <ele>42.435425</ele>
        <time>2013-03-29T12:22:28.000Z</time>
      </trkpt>
      <trkpt lat="43.21278" lon="5.41837">
        <ele>42.916016</ele>
        <time>2013-03-29T12:22:32.000Z</time>
      </trkpt>
      <trkpt lat="43.2128" lon="5.41836">
        <ele>42.916016</ele>
        <time>2013-03-29T12:22:34.000Z</time>
      </trkpt>
      <trkpt lat="43.21276" lon="5.41826">
        <ele>44.358032</ele>
        <time>2013-03-29T12:22:39.000Z</time>
      </trkpt>
      <trkpt lat="43.21275" lon="5.41824">
        <ele>44.358032</ele>
        <time>2013-03-29T12:22:40.000Z</time>
      </trkpt>
      <trkpt lat="43.2128" lon="5.4182">
        <ele>43.87732</ele>
        <time>2013-03-29T12:22:44.000Z</time>
      </trkpt>
      <trkpt lat="43.21291" lon="5.41823">
        <ele>44.838623</ele>
        <time>2013-03-29T12:22:50.000Z</time>
      </trkpt>
      <trkpt lat="43.21297" lon="5.4182">
        <ele>46.28064</ele>
        <time>2013-03-29T12:22:56.000Z</time>
      </trkpt>
      <trkpt lat="43.213" lon="5.41813">
        <ele>47.24182</ele>
        <time>2013-03-29T12:23:02.000Z</time>
      </trkpt>
      <trkpt lat="43.213" lon="5.4181">
        <ele>47.722534</ele>
        <time>2013-03-29T12:23:06.000Z</time>
      </trkpt>
      <trkpt lat="43.213" lon="5.41807">
        <ele>47.722534</ele>
        <time>2013-03-29T12:23:08.000Z</time>
      </trkpt>
      <trkpt lat="43.21303" lon="5.41804">
        <ele>50.125977</ele>
        <time>2013-03-29T12:23:13.000Z</time>
      </trkpt>
      <trkpt lat="43.21306" lon="5.41798">
        <ele>52.048584</ele>
        <time>2013-03-29T12:23:18.000Z</time>
      </trkpt>
      <trkpt lat="43.21306" lon="5.41796">
        <ele>52.529175</ele>
        <time>2013-03-29T12:23:19.000Z</time>
      </trkpt>
      <trkpt lat="43.21305" lon="5.41786">
        <ele>56.855103</ele>
        <time>2013-03-29T12:23:26.000Z</time>
      </trkpt>
      <trkpt lat="43.21308" lon="5.41778">
        <ele>60.219727</ele>
        <time>2013-03-29T12:23:31.000Z</time>
      </trkpt>
      <trkpt lat="43.2131" lon="5.4178">
        <ele>60.700317</ele>
        <time>2013-03-29T12:23:33.000Z</time>
      </trkpt>
      <trkpt lat="43.21313" lon="5.41773">
        <ele>62.142334</ele>
        <time>2013-03-29T12:23:39.000Z</time>
      </trkpt>
      <trkpt lat="43.21317" lon="5.4176">
        <ele>63.103638</ele>
        <time>2013-03-29T12:23:44.000Z</time>
      </trkpt>
      <trkpt lat="43.21321" lon="5.41748">
        <ele>61.18103</ele>
        <time>2013-03-29T12:23:49.000Z</time>
      </trkpt>
      <trkpt lat="43.21323" lon="5.41742">
        <ele>60.219727</ele>
        <time>2013-03-29T12:23:51.000Z</time>
      </trkpt>
      <trkpt lat="43.21333" lon="5.41731">
        <ele>58.29712</ele>
        <time>2013-03-29T12:23:57.000Z</time>
      </trkpt>
      <trkpt lat="43.21344" lon="5.41725">
        <ele>57.335815</ele>
        <time>2013-03-29T12:24:02.000Z</time>
      </trkpt>
      <trkpt lat="43.21346" lon="5.41724">
        <ele>56.855103</ele>
        <time>2013-03-29T12:24:03.000Z</time>
      </trkpt>
      <trkpt lat="43.21349" lon="5.41724">
        <ele>58.29712</ele>
        <time>2013-03-29T12:24:05.000Z</time>
      </trkpt>
      <trkpt lat="43.21358" lon="5.41713">
        <ele>59.258423</ele>
        <time>2013-03-29T12:24:11.000Z</time>
      </trkpt>
      <trkpt lat="43.2136" lon="5.41708">
        <ele>60.700317</ele>
        <time>2013-03-29T12:24:13.000Z</time>
      </trkpt>
      <trkpt lat="43.21366" lon="5.41702">
        <ele>65.02637</ele>
        <time>2013-03-29T12:24:18.000Z</time>
      </trkpt>
      <trkpt lat="43.21372" lon="5.41695">
        <ele>67.91028</ele>
        <time>2013-03-29T12:24:22.000Z</time>
      </trkpt>
      <trkpt lat="43.21375" lon="5.41692">
        <ele>69.832886</ele>
        <time>2013-03-29T12:24:24.000Z</time>
      </trkpt>
      <trkpt lat="43.2138" lon="5.41683">
        <ele>71.75549</ele>
        <time>2013-03-29T12:24:29.000Z</time>
      </trkpt>
      <trkpt lat="43.2138" lon="5.41679">
        <ele>72.236206</ele>
        <time>2013-03-29T12:24:32.000Z</time>
      </trkpt>
      <trkpt lat="43.21385" lon="5.41672">
        <ele>73.67822</ele>
        <time>2013-03-29T12:24:38.000Z</time>
      </trkpt>
      <trkpt lat="43.21387" lon="5.41669">
        <ele>76.08142</ele>
        <time>2013-03-29T12:24:42.000Z</time>
      </trkpt>
      <trkpt lat="43.2139" lon="5.41662">
        <ele>77.52344</ele>
        <time>2013-03-29T12:24:48.000Z</time>
      </trkpt>
      <trkpt lat="43.21392" lon="5.41659">
        <ele>78.965454</ele>
        <time>2013-03-29T12:24:50.000Z</time>
      </trkpt>
      <trkpt lat="43.21394" lon="5.41656">
        <ele>80.40747</ele>
        <time>2013-03-29T12:24:53.000Z</time>
      </trkpt>
      <trkpt lat="43.21399" lon="5.41653">
        <ele>84.7334</ele>
        <time>2013-03-29T12:25:00.000Z</time>
      </trkpt>
      <trkpt lat="43.21402" lon="5.4165">
        <ele>86.656006</ele>
        <time>2013-03-29T12:25:05.000Z</time>
      </trkpt>
      <trkpt lat="43.21406" lon="5.41643">
        <ele>89.53992</ele>
        <time>2013-03-29T12:25:10.000Z</time>
      </trkpt>
      <trkpt lat="43.2141" lon="5.41634">
        <ele>90.98193</ele>
        <time>2013-03-29T12:25:15.000Z</time>
      </trkpt>
      <trkpt lat="43.21416" lon="5.41626">
        <ele>91.94324</ele>
        <time>2013-03-29T12:25:19.000Z</time>
      </trkpt>
      <trkpt lat="43.21417" lon="5.41625">
        <ele>91.462524</ele>
        <time>2013-03-29T12:25:20.000Z</time>
      </trkpt>
      <trkpt lat="43.21421" lon="5.41615">
        <ele>90.98193</ele>
        <time>2013-03-29T12:25:26.000Z</time>
      </trkpt>
      <trkpt lat="43.21423" lon="5.41611">
        <ele>91.462524</ele>
        <time>2013-03-29T12:25:31.000Z</time>
      </trkpt>
      <trkpt lat="43.21427" lon="5.41608">
        <ele>92.42395</ele>
        <time>2013-03-29T12:25:34.000Z</time>
      </trkpt>
      <trkpt lat="43.21436" lon="5.41602">
        <ele>96.74988</ele>
        <time>2013-03-29T12:25:41.000Z</time>
      </trkpt>
      <trkpt lat="43.21443" lon="5.41601">
        <ele>97.23047</ele>
        <time>2013-03-29T12:25:46.000Z</time>
      </trkpt>
      <trkpt lat="43.21448" lon="5.41603">
        <ele>97.23047</ele>
        <time>2013-03-29T12:25:48.000Z</time>
      </trkpt>
      <trkpt lat="43.21457" lon="5.41611">
        <ele>97.71118</ele>
        <time>2013-03-29T12:25:53.000Z</time>
      </trkpt>
      <trkpt lat="43.21469" lon="5.41616">
        <ele>97.23047</ele>
        <time>2013-03-29T12:25:59.000Z</time>
      </trkpt>
      <trkpt lat="43.21479" lon="5.41618">
        <ele>98.191895</ele>
        <time>2013-03-29T12:26:04.000Z</time>
      </trkpt>
      <trkpt lat="43.21488" lon="5.41617">
        <ele>99.63379</ele>
        <time>2013-03-29T12:26:09.000Z</time>
      </trkpt>
      <trkpt lat="43.21496" lon="5.41619">
        <ele>101.07568</ele>
        <time>2013-03-29T12:26:14.000Z</time>
      </trkpt>
      <trkpt lat="43.21503" lon="5.41624">
        <ele>102.03711</ele>
        <time>2013-03-29T12:26:19.000Z</time>
      </trkpt>
      <trkpt lat="43.21507" lon="5.41628">
        <ele>102.5177</ele>
        <time>2013-03-29T12:26:23.000Z</time>
      </trkpt>
      <trkpt lat="43.21509" lon="5.41628">
        <ele>102.99829</ele>
        <time>2013-03-29T12:26:25.000Z</time>
      </trkpt>
      <trkpt lat="43.21517" lon="5.41626">
        <ele>104.44043</ele>
        <time>2013-03-29T12:26:32.000Z</time>
      </trkpt>
      <trkpt lat="43.21521" lon="5.41624">
        <ele>105.40173</ele>
        <time>2013-03-29T12:26:36.000Z</time>
      </trkpt>
      <trkpt lat="43.21527" lon="5.41628">
        <ele>106.36304</ele>
        <time>2013-03-29T12:26:42.000Z</time>
      </trkpt>
      <trkpt lat="43.21532" lon="5.41625">
        <ele>109.72766</ele>
        <time>2013-03-29T12:26:48.000Z</time>
      </trkpt>
      <trkpt lat="43.21533" lon="5.41625">
        <ele>110.20825</ele>
        <time>2013-03-29T12:26:49.000Z</time>
      </trkpt>
      <trkpt lat="43.21538" lon="5.41628">
        <ele>113.092285</ele>
        <time>2013-03-29T12:26:54.000Z</time>
      </trkpt>
      <trkpt lat="43.21544" lon="5.41626">
        <ele>115.9762</ele>
        <time>2013-03-29T12:27:00.000Z</time>
      </trkpt>
      <trkpt lat="43.21547" lon="5.41627">
        <ele>116.45679</ele>
        <time>2013-03-29T12:27:03.000Z</time>
      </trkpt>
      <trkpt lat="43.21549" lon="5.41626">
        <ele>117.41821</ele>
        <time>2013-03-29T12:27:07.000Z</time>
      </trkpt>
      <trkpt lat="43.21555" lon="5.4162">
        <ele>120.302124</ele>
        <time>2013-03-29T12:27:13.000Z</time>
      </trkpt>
      <trkpt lat="43.21556" lon="5.41616">
        <ele>119.82141</ele>
        <time>2013-03-29T12:27:15.000Z</time>
      </trkpt>
      <trkpt lat="43.21556" lon="5.4161">
        <ele>121.74414</ele>
        <time>2013-03-29T12:27:20.000Z</time>
      </trkpt>
      <trkpt lat="43.21556" lon="5.41604">
        <ele>121.74414</ele>
        <time>2013-03-29T12:27:23.000Z</time>
      </trkpt>
      <trkpt lat="43.21558" lon="5.416">
        <ele>123.18616</ele>
        <time>2013-03-29T12:27:27.000Z</time>
      </trkpt>
      <trkpt lat="43.21563" lon="5.41605">
        <ele>124.14734</ele>
        <time>2013-03-29T12:27:33.000Z</time>
      </trkpt>
      <trkpt lat="43.21562" lon="5.41603">
        <ele>125.589355</ele>
        <time>2013-03-29T12:27:36.000Z</time>
      </trkpt>
      <trkpt lat="43.21562" lon="5.416">
        <ele>126.06995</ele>
        <time>2013-03-29T12:27:37.000Z</time>
      </trkpt>
      <trkpt lat="43.21556" lon="5.41591">
        <ele>127.99255</ele>
        <time>2013-03-29T12:27:42.000Z</time>
      </trkpt>
      <trkpt lat="43.21549" lon="5.41586">
        <ele>131.83789</ele>
        <time>2013-03-29T12:27:48.000Z</time>
      </trkpt>
      <trkpt lat="43.21547" lon="5.41579">
        <ele>133.2799</ele>
        <time>2013-03-29T12:27:52.000Z</time>
      </trkpt>
      <trkpt lat="43.21554" lon="5.41577">
        <ele>134.72192</ele>
        <time>2013-03-29T12:27:57.000Z</time>
      </trkpt>
      <trkpt lat="43.21565" lon="5.41577">
        <ele>136.64465</ele>
        <time>2013-03-29T12:28:03.000Z</time>
      </trkpt>
      <trkpt lat="43.21567" lon="5.41577">
        <ele>137.12524</ele>
        <time>2013-03-29T12:28:04.000Z</time>
      </trkpt>
      <trkpt lat="43.21566" lon="5.41569">
        <ele>139.04785</ele>
        <time>2013-03-29T12:28:09.000Z</time>
      </trkpt>
      <trkpt lat="43.2157" lon="5.41566">
        <ele>138.56726</ele>
        <time>2013-03-29T12:28:13.000Z</time>
      </trkpt>
      <trkpt lat="43.21573" lon="5.41563">
        <ele>139.52844</ele>
        <time>2013-03-29T12:28:17.000Z</time>
      </trkpt>
      <trkpt lat="43.21577" lon="5.41557">
        <ele>142.41248</ele>
        <time>2013-03-29T12:28:22.000Z</time>
      </trkpt>
      <trkpt lat="43.21584" lon="5.41554">
        <ele>144.8158</ele>
        <time>2013-03-29T12:28:27.000Z</time>
      </trkpt>
      <trkpt lat="43.2159" lon="5.41556">
        <ele>146.7384</ele>
        <time>2013-03-29T12:28:32.000Z</time>
      </trkpt>
      <trkpt lat="43.21598" lon="5.41553">
        <ele>147.219</ele>
        <time>2013-03-29T12:28:37.000Z</time>
      </trkpt>
      <trkpt lat="43.21604" lon="5.41551">
        <ele>145.7771</ele>
        <time>2013-03-29T12:28:40.000Z</time>
      </trkpt>
      <trkpt lat="43.21605" lon="5.41551">
        <ele>146.25781</ele>
        <time>2013-03-29T12:28:41.000Z</time>
      </trkpt>
      <trkpt lat="43.21606" lon="5.41551">
        <ele>145.7771</ele>
        <time>2013-03-29T12:28:49.000Z</time>
      </trkpt>
      <trkpt lat="43.21604" lon="5.41551">
        <ele>145.7771</ele>
        <time>2013-03-29T12:28:51.000Z</time>
      </trkpt>
      <trkpt lat="43.216" lon="5.41553">
        <ele>145.29639</ele>
        <time>2013-03-29T12:28:56.000Z</time>
      </trkpt>
      <trkpt lat="43.21594" lon="5.41556">
        <ele>146.7384</ele>
        <time>2013-03-29T12:29:00.000Z</time>
      </trkpt>
      <trkpt lat="43.2159" lon="5.4156">
        <ele>145.7771</ele>
        <time>2013-03-29T12:29:03.000Z</time>
      </trkpt>
      <trkpt lat="43.21588" lon="5.41562">
        <ele>146.25781</ele>
        <time>2013-03-29T12:29:07.000Z</time>
      </trkpt>
      <trkpt lat="43.2159" lon="5.4156">
        <ele>145.7771</ele>
        <time>2013-03-29T12:29:12.000Z</time>
      </trkpt>
      <trkpt lat="43.21591" lon="5.41559">
        <ele>145.29639</ele>
        <time>2013-03-29T12:29:13.000Z</time>
      </trkpt>
      <trkpt lat="43.216" lon="5.41555">
        <ele>145.7771</ele>
        <time>2013-03-29T12:29:19.000Z</time>
      </trkpt>
      <trkpt lat="43.21605" lon="5.41554">
        <ele>145.29639</ele>
        <time>2013-03-29T12:29:21.000Z</time>
      </trkpt>
      <trkpt lat="43.21618" lon="5.41556">
        <ele>143.85437</ele>
        <time>2013-03-29T12:29:25.000Z</time>
      </trkpt>
      <trkpt lat="43.21629" lon="5.41558">
        <ele>143.85437</ele>
        <time>2013-03-29T12:29:29.000Z</time>
      </trkpt>
      <trkpt lat="43.21639" lon="5.41563">
        <ele>144.3352</ele>
        <time>2013-03-29T12:29:34.000Z</time>
      </trkpt>
      <trkpt lat="43.21651" lon="5.41561">
        <ele>144.8158</ele>
        <time>2013-03-29T12:29:39.000Z</time>
      </trkpt>
      <trkpt lat="43.21662" lon="5.41555">
        <ele>145.29639</ele>
        <time>2013-03-29T12:29:44.000Z</time>
      </trkpt>
      <trkpt lat="43.21674" lon="5.41549">
        <ele>146.25781</ele>
        <time>2013-03-29T12:29:49.000Z</time>
      </trkpt>
      <trkpt lat="43.21683" lon="5.41547">
        <ele>147.6997</ele>
        <time>2013-03-29T12:29:53.000Z</time>
      </trkpt>
      <trkpt lat="43.21695" lon="5.41541">
        <ele>150.10303</ele>
        <time>2013-03-29T12:29:59.000Z</time>
      </trkpt>
      <trkpt lat="43.21698" lon="5.41539">
        <ele>150.58362</ele>
        <time>2013-03-29T12:30:01.000Z</time>
      </trkpt>
      <trkpt lat="43.2171" lon="5.41537">
        <ele>151.54492</ele>
        <time>2013-03-29T12:30:07.000Z</time>
      </trkpt>
      <trkpt lat="43.21713" lon="5.41534">
        <ele>152.02576</ele>
        <time>2013-03-29T12:30:09.000Z</time>
      </trkpt>
      <trkpt lat="43.21718" lon="5.41536">
        <ele>152.98694</ele>
        <time>2013-03-29T12:30:13.000Z</time>
      </trkpt>
      <trkpt lat="43.21724" lon="5.41538">
        <ele>155.39026</ele>
        <time>2013-03-29T12:30:18.000Z</time>
      </trkpt>
      <trkpt lat="43.21731" lon="5.4154">
        <ele>157.79358</ele>
        <time>2013-03-29T12:30:24.000Z</time>
      </trkpt>
      <trkpt lat="43.21735" lon="5.4154">
        <ele>160.1969</ele>
        <time>2013-03-29T12:30:29.000Z</time>
      </trkpt>
      <trkpt lat="43.2174" lon="5.41543">
        <ele>163.08081</ele>
        <time>2013-03-29T12:30:34.000Z</time>
      </trkpt>
      <trkpt lat="43.21745" lon="5.41547">
        <ele>164.5227</ele>
        <time>2013-03-29T12:30:38.000Z</time>
      </trkpt>
      <trkpt lat="43.21746" lon="5.4155">
        <ele>165.48413</ele>
        <time>2013-03-29T12:30:40.000Z</time>
      </trkpt>
      <trkpt lat="43.21752" lon="5.4155">
        <ele>169.32947</ele>
        <time>2013-03-29T12:30:46.000Z</time>
      </trkpt>
      <trkpt lat="43.21755" lon="5.41553">
        <ele>169.32947</ele>
        <time>2013-03-29T12:30:49.000Z</time>
      </trkpt>
      <trkpt lat="43.21762" lon="5.4156">
        <ele>171.73267</ele>
        <time>2013-03-29T12:30:56.000Z</time>
      </trkpt>
      <trkpt lat="43.21765" lon="5.41564">
        <ele>171.73267</ele>
        <time>2013-03-29T12:30:59.000Z</time>
      </trkpt>
      <trkpt lat="43.21768" lon="5.4157">
        <ele>173.17468</ele>
        <time>2013-03-29T12:31:03.000Z</time>
      </trkpt>
      <trkpt lat="43.21773" lon="5.41578">
        <ele>173.17468</ele>
        <time>2013-03-29T12:31:09.000Z</time>
      </trkpt>
      <trkpt lat="43.21774" lon="5.41579">
        <ele>174.13586</ele>
        <time>2013-03-29T12:31:11.000Z</time>
      </trkpt>
      <trkpt lat="43.21778" lon="5.4158">
        <ele>175.57788</ele>
        <time>2013-03-29T12:31:17.000Z</time>
      </trkpt>
      <trkpt lat="43.2178" lon="5.41582">
        <ele>175.57788</ele>
        <time>2013-03-29T12:31:25.000Z</time>
      </trkpt>
      <trkpt lat="43.21785" lon="5.41584">
        <ele>177.50061</ele>
        <time>2013-03-29T12:31:30.000Z</time>
      </trkpt>
      <trkpt lat="43.21789" lon="5.41586">
        <ele>179.90381</ele>
        <time>2013-03-29T12:31:36.000Z</time>
      </trkpt>
      <trkpt lat="43.21791" lon="5.41585">
        <ele>179.90381</ele>
        <time>2013-03-29T12:31:42.000Z</time>
      </trkpt>
      <trkpt lat="43.21793" lon="5.41584">
        <ele>180.38452</ele>
        <time>2013-03-29T12:31:45.000Z</time>
      </trkpt>
      <trkpt lat="43.21799" lon="5.4158">
        <ele>179.90381</ele>
        <time>2013-03-29T12:31:50.000Z</time>
      </trkpt>
      <trkpt lat="43.21801" lon="5.41579">
        <ele>180.38452</ele>
        <time>2013-03-29T12:31:52.000Z</time>
      </trkpt>
      <trkpt lat="43.21807" lon="5.41578">
        <ele>178.94263</ele>
        <time>2013-03-29T12:31:57.000Z</time>
      </trkpt>
      <trkpt lat="43.21811" lon="5.41583">
        <ele>176.5393</ele>
        <time>2013-03-29T12:32:03.000Z</time>
      </trkpt>
      <trkpt lat="43.21814" lon="5.41584">
        <ele>176.5393</ele>
        <time>2013-03-29T12:32:07.000Z</time>
      </trkpt>
      <trkpt lat="43.21816" lon="5.41583">
        <ele>177.50061</ele>
        <time>2013-03-29T12:32:13.000Z</time>
      </trkpt>
      <trkpt lat="43.21814" lon="5.41576">
        <ele>177.9812</ele>
        <time>2013-03-29T12:32:18.000Z</time>
      </trkpt>
      <trkpt lat="43.21815" lon="5.41563">
        <ele>177.02002</ele>
        <time>2013-03-29T12:32:23.000Z</time>
      </trkpt>
      <trkpt lat="43.21819" lon="5.41551">
        <ele>179.90381</ele>
        <time>2013-03-29T12:32:27.000Z</time>
      </trkpt>
      <trkpt lat="43.21827" lon="5.4154">
        <ele>180.38452</ele>
        <time>2013-03-29T12:32:32.000Z</time>
      </trkpt>
      <trkpt lat="43.21829" lon="5.41535">
        <ele>181.34583</ele>
        <time>2013-03-29T12:32:34.000Z</time>
      </trkpt>
      <trkpt lat="43.21833" lon="5.41525">
        <ele>180.86523</ele>
        <time>2013-03-29T12:32:39.000Z</time>
      </trkpt>
      <trkpt lat="43.21835" lon="5.41521">
        <ele>181.82642</ele>
        <time>2013-03-29T12:32:41.000Z</time>
      </trkpt>
      <trkpt lat="43.21837" lon="5.41508">
        <ele>185.19116</ele>
        <time>2013-03-29T12:32:47.000Z</time>
      </trkpt>
      <trkpt lat="43.21833" lon="5.41498">
        <ele>187.59436</ele>
        <time>2013-03-29T12:32:52.000Z</time>
      </trkpt>
      <trkpt lat="43.21832" lon="5.41493">
        <ele>188.55579</ele>
        <time>2013-03-29T12:32:54.000Z</time>
      </trkpt>
      <trkpt lat="43.21833" lon="5.41483">
        <ele>190.4784</ele>
        <time>2013-03-29T12:33:00.000Z</time>
      </trkpt>
      <trkpt lat="43.21837" lon="5.41474">
        <ele>191.92029</ele>
        <time>2013-03-29T12:33:07.000Z</time>
      </trkpt>
      <trkpt lat="43.21837" lon="5.41463">
        <ele>192.40112</ele>
        <time>2013-03-29T12:33:11.000Z</time>
      </trkpt>
      <trkpt lat="43.21836" lon="5.41456">
        <ele>194.32373</ele>
        <time>2013-03-29T12:33:14.000Z</time>
      </trkpt>
      <trkpt lat="43.21833" lon="5.41446">
        <ele>194.32373</ele>
        <time>2013-03-29T12:33:18.000Z</time>
      </trkpt>
      <trkpt lat="43.21828" lon="5.41429">
        <ele>195.76562</ele>
        <time>2013-03-29T12:33:24.000Z</time>
      </trkpt>
      <trkpt lat="43.21826" lon="5.41412">
        <ele>195.76562</ele>
        <time>2013-03-29T12:33:30.000Z</time>
      </trkpt>
      <trkpt lat="43.21823" lon="5.41401">
        <ele>195.28491</ele>
        <time>2013-03-29T12:33:35.000Z</time>
      </trkpt>
      <trkpt lat="43.21819" lon="5.41395">
        <ele>196.72693</ele>
        <time>2013-03-29T12:33:38.000Z</time>
      </trkpt>
      <trkpt lat="43.21809" lon="5.41382">
        <ele>197.68823</ele>
        <time>2013-03-29T12:33:44.000Z</time>
      </trkpt>
      <trkpt lat="43.21803" lon="5.41371">
        <ele>198.64954</ele>
        <time>2013-03-29T12:33:49.000Z</time>
      </trkpt>
      <trkpt lat="43.21803" lon="5.41369">
        <ele>198.64954</ele>
        <time>2013-03-29T12:33:50.000Z</time>
      </trkpt>
      <trkpt lat="43.21802" lon="5.41366">
        <ele>200.09167</ele>
        <time>2013-03-29T12:33:58.000Z</time>
      </trkpt>
      <trkpt lat="43.21802" lon="5.41365">
        <ele>200.57227</ele>
        <time>2013-03-29T12:34:04.000Z</time>
      </trkpt>
      <trkpt lat="43.21802" lon="5.4136">
        <ele>200.57227</ele>
        <time>2013-03-29T12:34:09.000Z</time>
      </trkpt>
      <trkpt lat="43.21803" lon="5.41344">
        <ele>199.61084</ele>
        <time>2013-03-29T12:34:15.000Z</time>
      </trkpt>
      <trkpt lat="43.21803" lon="5.41341">
        <ele>200.09167</ele>
        <time>2013-03-29T12:34:16.000Z</time>
      </trkpt>
      <trkpt lat="43.21804" lon="5.41324">
        <ele>199.61084</ele>
        <time>2013-03-29T12:34:21.000Z</time>
      </trkpt>
      <trkpt lat="43.21805" lon="5.41308">
        <ele>198.64954</ele>
        <time>2013-03-29T12:34:26.000Z</time>
      </trkpt>
      <trkpt lat="43.21809" lon="5.41293">
        <ele>197.20752</ele>
        <time>2013-03-29T12:34:30.000Z</time>
      </trkpt>
      <trkpt lat="43.21814" lon="5.41274">
        <ele>197.20752</ele>
        <time>2013-03-29T12:34:36.000Z</time>
      </trkpt>
      <trkpt lat="43.21814" lon="5.41262">
        <ele>197.20752</ele>
        <time>2013-03-29T12:34:39.000Z</time>
      </trkpt>
      <trkpt lat="43.21806" lon="5.41249">
        <ele>198.16895</ele>
        <time>2013-03-29T12:34:44.000Z</time>
      </trkpt>
      <trkpt lat="43.21787" lon="5.4123">
        <ele>200.09167</ele>
        <time>2013-03-29T12:34:52.000Z</time>
      </trkpt>
      <trkpt lat="43.21776" lon="5.41218">
        <ele>200.09167</ele>
        <time>2013-03-29T12:34:57.000Z</time>
      </trkpt>
      <trkpt lat="43.21762" lon="5.41206">
        <ele>201.05286</ele>
        <time>2013-03-29T12:35:03.000Z</time>
      </trkpt>
      <trkpt lat="43.2175" lon="5.41204">
        <ele>201.53357</ele>
        <time>2013-03-29T12:35:08.000Z</time>
      </trkpt>
      <trkpt lat="43.21737" lon="5.41205">
        <ele>200.57227</ele>
        <time>2013-03-29T12:35:13.000Z</time>
      </trkpt>
      <trkpt lat="43.21728" lon="5.41195">
        <ele>199.61084</ele>
        <time>2013-03-29T12:35:17.000Z</time>
      </trkpt>
      <trkpt lat="43.21727" lon="5.41192">
        <ele>199.61084</ele>
        <time>2013-03-29T12:35:18.000Z</time>
      </trkpt>
      <trkpt lat="43.21724" lon="5.41173">
        <ele>199.61084</ele>
        <time>2013-03-29T12:35:23.000Z</time>
      </trkpt>
      <trkpt lat="43.21722" lon="5.41162">
        <ele>198.64954</ele>
        <time>2013-03-29T12:35:26.000Z</time>
      </trkpt>
      <trkpt lat="43.21722" lon="5.41143">
        <ele>196.72693</ele>
        <time>2013-03-29T12:35:31.000Z</time>
      </trkpt>
      <trkpt lat="43.21724" lon="5.41117">
        <ele>193.84302</ele>
        <time>2013-03-29T12:35:38.000Z</time>
      </trkpt>
      <trkpt lat="43.21721" lon="5.41098">
        <ele>191.92029</ele>
        <time>2013-03-29T12:35:43.000Z</time>
      </trkpt>
      <trkpt lat="43.21718" lon="5.4108">
        <ele>191.43958</ele>
        <time>2013-03-29T12:35:48.000Z</time>
      </trkpt>
      <trkpt lat="43.21713" lon="5.41062">
        <ele>190.95898</ele>
        <time>2013-03-29T12:35:53.000Z</time>
      </trkpt>
      <trkpt lat="43.21708" lon="5.41044">
        <ele>190.95898</ele>
        <time>2013-03-29T12:35:58.000Z</time>
      </trkpt>
      <trkpt lat="43.21704" lon="5.41033">
        <ele>189.99768</ele>
        <time>2013-03-29T12:36:01.000Z</time>
      </trkpt>
      <trkpt lat="43.21694" lon="5.41014">
        <ele>189.03638</ele>
        <time>2013-03-29T12:36:07.000Z</time>
      </trkpt>
      <trkpt lat="43.21686" lon="5.41002">
        <ele>189.03638</ele>
        <time>2013-03-29T12:36:12.000Z</time>
      </trkpt>
      <trkpt lat="43.21685" lon="5.41002">
        <ele>189.51697</ele>
        <time>2013-03-29T12:36:19.000Z</time>
      </trkpt>
      <trkpt lat="43.21685" lon="5.41001">
        <ele>189.99768</ele>
        <time>2013-03-29T12:36:31.000Z</time>
      </trkpt>
      <trkpt lat="43.21683" lon="5.40999">
        <ele>191.92029</ele>
        <time>2013-03-29T12:36:38.000Z</time>
      </trkpt>
      <trkpt lat="43.21677" lon="5.40986">
        <ele>192.40112</ele>
        <time>2013-03-29T12:36:45.000Z</time>
      </trkpt>
      <trkpt lat="43.21663" lon="5.40967">
        <ele>192.88171</ele>
        <time>2013-03-29T12:36:51.000Z</time>
      </trkpt>
      <trkpt lat="43.21651" lon="5.40954">
        <ele>189.99768</ele>
        <time>2013-03-29T12:36:56.000Z</time>
      </trkpt>
      <trkpt lat="43.21643" lon="5.40942">
        <ele>186.63318</ele>
        <time>2013-03-29T12:37:00.000Z</time>
      </trkpt>
      <trkpt lat="43.21639" lon="5.4093">
        <ele>185.19116</ele>
        <time>2013-03-29T12:37:03.000Z</time>
      </trkpt>
      <trkpt lat="43.2164" lon="5.40911">
        <ele>183.74902</ele>
        <time>2013-03-29T12:37:08.000Z</time>
      </trkpt>
      <trkpt lat="43.21643" lon="5.40906">
        <ele>182.30713</ele>
        <time>2013-03-29T12:37:10.000Z</time>
      </trkpt>
      <trkpt lat="43.21648" lon="5.40895">
        <ele>179.90381</ele>
        <time>2013-03-29T12:37:14.000Z</time>
      </trkpt>
      <trkpt lat="43.2165" lon="5.40884">
        <ele>177.50061</ele>
        <time>2013-03-29T12:37:18.000Z</time>
      </trkpt>
      <trkpt lat="43.21651" lon="5.40878">
        <ele>176.0586</ele>
        <time>2013-03-29T12:37:20.000Z</time>
      </trkpt>
      <trkpt lat="43.21654" lon="5.40874">
        <ele>178.46191</ele>
        <time>2013-03-29T12:37:27.000Z</time>
      </trkpt>
      <trkpt lat="43.21653" lon="5.40871">
        <ele>180.38452</ele>
        <time>2013-03-29T12:37:32.000Z</time>
      </trkpt>
      <trkpt lat="43.21655" lon="5.40868">
        <ele>180.38452</ele>
        <time>2013-03-29T12:37:35.000Z</time>
      </trkpt>
      <trkpt lat="43.21655" lon="5.40865">
        <ele>180.86523</ele>
        <time>2013-03-29T12:37:37.000Z</time>
      </trkpt>
      <trkpt lat="43.21653" lon="5.40858">
        <ele>179.90381</ele>
        <time>2013-03-29T12:37:40.000Z</time>
      </trkpt>
      <trkpt lat="43.21649" lon="5.40854">
        <ele>182.30713</ele>
        <time>2013-03-29T12:37:44.000Z</time>
      </trkpt>
      <trkpt lat="43.21648" lon="5.4085">
        <ele>185.67175</ele>
        <time>2013-03-29T12:37:50.000Z</time>
      </trkpt>
      <trkpt lat="43.21647" lon="5.40851">
        <ele>189.99768</ele>
        <time>2013-03-29T12:38:01.000Z</time>
      </trkpt>
      <trkpt lat="43.21647" lon="5.40851">
        <ele>191.43958</ele>
        <time>2013-03-29T12:38:09.000Z</time>
      </trkpt>
      <trkpt lat="43.21647" lon="5.40851">
        <ele>191.43958</ele>
        <time>2013-03-29T12:38:11.000Z</time>
      </trkpt>
      <trkpt lat="43.21645" lon="5.40851">
        <ele>191.92029</ele>
        <time>2013-03-29T12:40:14.000Z</time>
      </trkpt>
      <trkpt lat="43.21644" lon="5.4085">
        <ele>191.92029</ele>
        <time>2013-03-29T12:40:15.000Z</time>
      </trkpt>
      <trkpt lat="43.21641" lon="5.40846">
        <ele>192.88171</ele>
        <time>2013-03-29T12:40:19.000Z</time>
      </trkpt>
      <trkpt lat="43.21642" lon="5.40839">
        <ele>194.32373</ele>
        <time>2013-03-29T12:40:24.000Z</time>
      </trkpt>
      <trkpt lat="43.21642" lon="5.40836">
        <ele>194.32373</ele>
        <time>2013-03-29T12:40:26.000Z</time>
      </trkpt>
      <trkpt lat="43.21639" lon="5.40825">
        <ele>196.24634</ele>
        <time>2013-03-29T12:40:32.000Z</time>
      </trkpt>
      <trkpt lat="43.21635" lon="5.40816">
        <ele>197.20752</ele>
        <time>2013-03-29T12:40:37.000Z</time>
      </trkpt>
      <trkpt lat="43.21636" lon="5.40812">
        <ele>197.68823</ele>
        <time>2013-03-29T12:40:40.000Z</time>
      </trkpt>
      <trkpt lat="43.21636" lon="5.40804">
        <ele>200.09167</ele>
        <time>2013-03-29T12:40:45.000Z</time>
      </trkpt>
      <trkpt lat="43.21636" lon="5.40803">
        <ele>200.09167</ele>
        <time>2013-03-29T12:40:46.000Z</time>
      </trkpt>
      <trkpt lat="43.21638" lon="5.40793">
        <ele>202.97546</ele>
        <time>2013-03-29T12:40:53.000Z</time>
      </trkpt>
      <trkpt lat="43.21639" lon="5.40786">
        <ele>205.37878</ele>
        <time>2013-03-29T12:40:59.000Z</time>
      </trkpt>
      <trkpt lat="43.21638" lon="5.40779">
        <ele>207.7821</ele>
        <time>2013-03-29T12:41:05.000Z</time>
      </trkpt>
      <trkpt lat="43.21638" lon="5.40773">
        <ele>211.62744</ele>
        <time>2013-03-29T12:41:11.000Z</time>
      </trkpt>
      <trkpt lat="43.21644" lon="5.40771">
        <ele>212.58862</ele>
        <time>2013-03-29T12:41:15.000Z</time>
      </trkpt>
      <trkpt lat="43.21651" lon="5.40766">
        <ele>212.10803</ele>
        <time>2013-03-29T12:41:20.000Z</time>
      </trkpt>
      <trkpt lat="43.21653" lon="5.40759">
        <ele>214.03064</ele>
        <time>2013-03-29T12:41:24.000Z</time>
      </trkpt>
      <trkpt lat="43.21651" lon="5.4075">
        <ele>215.95325</ele>
        <time>2013-03-29T12:41:28.000Z</time>
      </trkpt>
      <trkpt lat="43.21651" lon="5.40744">
        <ele>216.43396</ele>
        <time>2013-03-29T12:41:30.000Z</time>
      </trkpt>
      <trkpt lat="43.21649" lon="5.40732">
        <ele>216.91467</ele>
        <time>2013-03-29T12:41:34.000Z</time>
      </trkpt>
      <trkpt lat="43.21653" lon="5.40721">
        <ele>216.91467</ele>
        <time>2013-03-29T12:41:39.000Z</time>
      </trkpt>
      <trkpt lat="43.21655" lon="5.40706">
        <ele>216.91467</ele>
        <time>2013-03-29T12:41:45.000Z</time>
      </trkpt>
      <trkpt lat="43.21653" lon="5.40695">
        <ele>216.43396</ele>
        <time>2013-03-29T12:41:48.000Z</time>
      </trkpt>
      <trkpt lat="43.21654" lon="5.40685">
        <ele>215.95325</ele>
        <time>2013-03-29T12:41:51.000Z</time>
      </trkpt>
      <trkpt lat="43.21658" lon="5.40665">
        <ele>216.43396</ele>
        <time>2013-03-29T12:41:58.000Z</time>
      </trkpt>
      <trkpt lat="43.2166" lon="5.40656">
        <ele>216.91467</ele>
        <time>2013-03-29T12:42:02.000Z</time>
      </trkpt>
      <trkpt lat="43.2166" lon="5.40646">
        <ele>218.83728</ele>
        <time>2013-03-29T12:42:06.000Z</time>
      </trkpt>
      <trkpt lat="43.21658" lon="5.40635">
        <ele>221.2406</ele>
        <time>2013-03-29T12:42:10.000Z</time>
      </trkpt>
      <trkpt lat="43.21655" lon="5.40625">
        <ele>224.12451</ele>
        <time>2013-03-29T12:42:14.000Z</time>
      </trkpt>
      <trkpt lat="43.21654" lon="5.40614">
        <ele>227.00854</ele>
        <time>2013-03-29T12:42:18.000Z</time>
      </trkpt>
      <trkpt lat="43.21653" lon="5.40605">
        <ele>226.04712</ele>
        <time>2013-03-29T12:42:22.000Z</time>
      </trkpt>
      <trkpt lat="43.21653" lon="5.40603">
        <ele>226.04712</ele>
        <time>2013-03-29T12:42:23.000Z</time>
      </trkpt>
      <trkpt lat="43.21652" lon="5.40597">
        <ele>227.48914</ele>
        <time>2013-03-29T12:42:26.000Z</time>
      </trkpt>
      <trkpt lat="43.21648" lon="5.4059">
        <ele>228.45044</ele>
        <time>2013-03-29T12:42:31.000Z</time>
      </trkpt>
      <trkpt lat="43.21645" lon="5.4058">
        <ele>230.37305</ele>
        <time>2013-03-29T12:42:36.000Z</time>
      </trkpt>
      <trkpt lat="43.21645" lon="5.4057">
        <ele>230.85376</ele>
        <time>2013-03-29T12:42:40.000Z</time>
      </trkpt>
      <trkpt lat="43.21642" lon="5.40563">
        <ele>231.81494</ele>
        <time>2013-03-29T12:42:44.000Z</time>
      </trkpt>
      <trkpt lat="43.21643" lon="5.40557">
        <ele>232.77649</ele>
        <time>2013-03-29T12:42:48.000Z</time>
      </trkpt>
      <trkpt lat="43.21642" lon="5.40553">
        <ele>233.25708</ele>
        <time>2013-03-29T12:42:50.000Z</time>
      </trkpt>
      <trkpt lat="43.21642" lon="5.4055">
        <ele>234.6991</ele>
        <time>2013-03-29T12:42:53.000Z</time>
      </trkpt>
      <trkpt lat="43.21643" lon="5.40542">
        <ele>236.14099</ele>
        <time>2013-03-29T12:42:58.000Z</time>
      </trkpt>
      <trkpt lat="43.2164" lon="5.40535">
        <ele>239.9862</ele>
        <time>2013-03-29T12:43:04.000Z</time>
      </trkpt>
      <trkpt lat="43.21644" lon="5.40526">
        <ele>241.42822</ele>
        <time>2013-03-29T12:43:08.000Z</time>
      </trkpt>
      <trkpt lat="43.21646" lon="5.40519">
        <ele>241.42822</ele>
        <time>2013-03-29T12:43:11.000Z</time>
      </trkpt>
      <trkpt lat="43.21652" lon="5.40512">
        <ele>242.38965</ele>
        <time>2013-03-29T12:43:15.000Z</time>
      </trkpt>
      <trkpt lat="43.21664" lon="5.40505">
        <ele>244.31226</ele>
        <time>2013-03-29T12:43:22.000Z</time>
      </trkpt>
      <trkpt lat="43.21672" lon="5.40504">
        <ele>244.31226</ele>
        <time>2013-03-29T12:43:27.000Z</time>
      </trkpt>
      <trkpt lat="43.21679" lon="5.40501">
        <ele>243.35083</ele>
        <time>2013-03-29T12:43:32.000Z</time>
      </trkpt>
      <trkpt lat="43.21681" lon="5.405">
        <ele>243.83154</ele>
        <time>2013-03-29T12:43:33.000Z</time>
      </trkpt>
      <trkpt lat="43.21683" lon="5.40486">
        <ele>243.35083</ele>
        <time>2013-03-29T12:43:38.000Z</time>
      </trkpt>
      <trkpt lat="43.21684" lon="5.4048">
        <ele>243.35083</ele>
        <time>2013-03-29T12:43:42.000Z</time>
      </trkpt>
      <trkpt lat="43.21685" lon="5.40473">
        <ele>240.94763</ele>
        <time>2013-03-29T12:43:51.000Z</time>
      </trkpt>
      <trkpt lat="43.21686" lon="5.40467">
        <ele>241.42822</ele>
        <time>2013-03-29T12:43:54.000Z</time>
      </trkpt>
      <trkpt lat="43.21685" lon="5.4046">
        <ele>243.83154</ele>
        <time>2013-03-29T12:43:58.000Z</time>
      </trkpt>
      <trkpt lat="43.21685" lon="5.40454">
        <ele>247.67676</ele>
        <time>2013-03-29T12:44:03.000Z</time>
      </trkpt>
      <trkpt lat="43.21683" lon="5.40451">
        <ele>249.59949</ele>
        <time>2013-03-29T12:44:08.000Z</time>
      </trkpt>
      <trkpt lat="43.21681" lon="5.40447">
        <ele>250.0802</ele>
        <time>2013-03-29T12:44:13.000Z</time>
      </trkpt>
      <trkpt lat="43.21681" lon="5.40447">
        <ele>250.56079</ele>
        <time>2013-03-29T12:44:24.000Z</time>
      </trkpt>
      <trkpt lat="43.21682" lon="5.40444">
        <ele>250.56079</ele>
        <time>2013-03-29T12:44:31.000Z</time>
      </trkpt>
      <trkpt lat="43.21686" lon="5.4044">
        <ele>251.5221</ele>
        <time>2013-03-29T12:44:37.000Z</time>
      </trkpt>
      <trkpt lat="43.2169" lon="5.40435">
        <ele>253.4447</ele>
        <time>2013-03-29T12:44:43.000Z</time>
      </trkpt>
      <trkpt lat="43.21692" lon="5.40435">
        <ele>255.84802</ele>
        <time>2013-03-29T12:44:47.000Z</time>
      </trkpt>
      <trkpt lat="43.21694" lon="5.40433">
        <ele>257.29004</ele>
        <time>2013-03-29T12:44:51.000Z</time>
      </trkpt>
      <trkpt lat="43.21696" lon="5.40429">
        <ele>259.21265</ele>
        <time>2013-03-29T12:44:57.000Z</time>
      </trkpt>
      <trkpt lat="43.21698" lon="5.40426">
        <ele>261.13525</ele>
        <time>2013-03-29T12:45:02.000Z</time>
      </trkpt>
      <trkpt lat="43.217" lon="5.40423">
        <ele>263.05786</ele>
        <time>2013-03-29T12:45:07.000Z</time>
      </trkpt>
      <trkpt lat="43.21701" lon="5.4042">
        <ele>264.0193</ele>
        <time>2013-03-29T12:45:11.000Z</time>
      </trkpt>
      <trkpt lat="43.21703" lon="5.40418">
        <ele>265.9419</ele>
        <time>2013-03-29T12:45:16.000Z</time>
      </trkpt>
      <trkpt lat="43.21705" lon="5.40415">
        <ele>267.3839</ele>
        <time>2013-03-29T12:45:20.000Z</time>
      </trkpt>
      <trkpt lat="43.21705" lon="5.40412">
        <ele>269.7871</ele>
        <time>2013-03-29T12:45:24.000Z</time>
      </trkpt>
      <trkpt lat="43.21708" lon="5.40408">
        <ele>272.67114</ele>
        <time>2013-03-29T12:45:29.000Z</time>
      </trkpt>
      <trkpt lat="43.21713" lon="5.40407">
        <ele>274.59375</ele>
        <time>2013-03-29T12:45:34.000Z</time>
      </trkpt>
      <trkpt lat="43.21714" lon="5.40405">
        <ele>275.07446</ele>
        <time>2013-03-29T12:45:36.000Z</time>
      </trkpt>
      <trkpt lat="43.21717" lon="5.40397">
        <ele>276.03564</ele>
        <time>2013-03-29T12:45:41.000Z</time>
      </trkpt>
      <trkpt lat="43.2172" lon="5.40393">
        <ele>276.99707</ele>
        <time>2013-03-29T12:45:45.000Z</time>
      </trkpt>
      <trkpt lat="43.21725" lon="5.40389">
        <ele>279.40027</ele>
        <time>2013-03-29T12:45:51.000Z</time>
      </trkpt>
      <trkpt lat="43.21726" lon="5.40388">
        <ele>279.88086</ele>
        <time>2013-03-29T12:45:52.000Z</time>
      </trkpt>
      <trkpt lat="43.21729" lon="5.40383">
        <ele>281.323</ele>
        <time>2013-03-29T12:45:56.000Z</time>
      </trkpt>
      <trkpt lat="43.21732" lon="5.40369">
        <ele>283.7262</ele>
        <time>2013-03-29T12:46:04.000Z</time>
      </trkpt>
      <trkpt lat="43.21734" lon="5.40354">
        <ele>285.1682</ele>
        <time>2013-03-29T12:46:12.000Z</time>
      </trkpt>
      <trkpt lat="43.21738" lon="5.40349">
        <ele>285.6488</ele>
        <time>2013-03-29T12:46:16.000Z</time>
      </trkpt>
      <trkpt lat="43.21741" lon="5.40347">
        <ele>289.97485</ele>
        <time>2013-03-29T12:46:23.000Z</time>
      </trkpt>
      <trkpt lat="43.21744" lon="5.40338">
        <ele>292.37817</ele>
        <time>2013-03-29T12:46:28.000Z</time>
      </trkpt>
      <trkpt lat="43.21747" lon="5.40329">
        <ele>293.33936</ele>
        <time>2013-03-29T12:46:32.000Z</time>
      </trkpt>
      <trkpt lat="43.21751" lon="5.40317">
        <ele>293.33936</ele>
        <time>2013-03-29T12:46:37.000Z</time>
      </trkpt>
      <trkpt lat="43.21751" lon="5.40312">
        <ele>293.33936</ele>
        <time>2013-03-29T12:46:39.000Z</time>
      </trkpt>
      <trkpt lat="43.2175" lon="5.40304">
        <ele>293.82007</ele>
        <time>2013-03-29T12:46:42.000Z</time>
      </trkpt>
      <trkpt lat="43.21751" lon="5.40299">
        <ele>294.78137</ele>
        <time>2013-03-29T12:46:45.000Z</time>
      </trkpt>
      <trkpt lat="43.21751" lon="5.40294">
        <ele>298.14612</ele>
        <time>2013-03-29T12:46:51.000Z</time>
      </trkpt>
      <trkpt lat="43.21753" lon="5.40286">
        <ele>300.06873</ele>
        <time>2013-03-29T12:46:58.000Z</time>
      </trkpt>
      <trkpt lat="43.21754" lon="5.40278">
        <ele>301.0299</ele>
        <time>2013-03-29T12:47:03.000Z</time>
      </trkpt>
      <trkpt lat="43.21757" lon="5.4027">
        <ele>301.51062</ele>
        <time>2013-03-29T12:47:09.000Z</time>
      </trkpt>
      <trkpt lat="43.21756" lon="5.40259">
        <ele>301.0299</ele>
        <time>2013-03-29T12:47:14.000Z</time>
      </trkpt>
      <trkpt lat="43.21757" lon="5.40246">
        <ele>298.6267</ele>
        <time>2013-03-29T12:47:18.000Z</time>
      </trkpt>
      <trkpt lat="43.21755" lon="5.40228">
        <ele>297.6654</ele>
        <time>2013-03-29T12:47:24.000Z</time>
      </trkpt>
      <trkpt lat="43.21755" lon="5.40214">
        <ele>295.74268</ele>
        <time>2013-03-29T12:47:29.000Z</time>
      </trkpt>
      <trkpt lat="43.21754" lon="5.4021">
        <ele>295.74268</ele>
        <time>2013-03-29T12:47:37.000Z</time>
      </trkpt>
      <trkpt lat="43.21755" lon="5.40201">
        <ele>296.2235</ele>
        <time>2013-03-29T12:47:43.000Z</time>
      </trkpt>
      <trkpt lat="43.21759" lon="5.40189">
        <ele>296.7041</ele>
        <time>2013-03-29T12:47:48.000Z</time>
      </trkpt>
      <trkpt lat="43.21762" lon="5.40181">
        <ele>297.1847</ele>
        <time>2013-03-29T12:47:51.000Z</time>
      </trkpt>
      <trkpt lat="43.21764" lon="5.40162">
        <ele>297.6654</ele>
        <time>2013-03-29T12:47:57.000Z</time>
      </trkpt>
      <trkpt lat="43.21765" lon="5.40154">
        <ele>298.14612</ele>
        <time>2013-03-29T12:48:00.000Z</time>
      </trkpt>
      <trkpt lat="43.21766" lon="5.40135">
        <ele>298.6267</ele>
        <time>2013-03-29T12:48:06.000Z</time>
      </trkpt>
      <trkpt lat="43.21763" lon="5.40127">
        <ele>299.1073</ele>
        <time>2013-03-29T12:48:09.000Z</time>
      </trkpt>
      <trkpt lat="43.21759" lon="5.40116">
        <ele>300.54932</ele>
        <time>2013-03-29T12:48:13.000Z</time>
      </trkpt>
      <trkpt lat="43.21758" lon="5.40104">
        <ele>301.99133</ele>
        <time>2013-03-29T12:48:17.000Z</time>
      </trkpt>
      <trkpt lat="43.21759" lon="5.40101">
        <ele>301.99133</ele>
        <time>2013-03-29T12:48:18.000Z</time>
      </trkpt>
      <trkpt lat="43.2176" lon="5.40092">
        <ele>302.47192</ele>
        <time>2013-03-29T12:48:22.000Z</time>
      </trkpt>
      <trkpt lat="43.2176" lon="5.40085">
        <ele>304.39465</ele>
        <time>2013-03-29T12:48:26.000Z</time>
      </trkpt>
      <trkpt lat="43.21763" lon="5.40078">
        <ele>306.79785</ele>
        <time>2013-03-29T12:48:30.000Z</time>
      </trkpt>
      <trkpt lat="43.21767" lon="5.4007">
        <ele>308.23987</ele>
        <time>2013-03-29T12:48:35.000Z</time>
      </trkpt>
      <trkpt lat="43.21771" lon="5.40062">
        <ele>309.6819</ele>
        <time>2013-03-29T12:48:39.000Z</time>
      </trkpt>
      <trkpt lat="43.21775" lon="5.4006">
        <ele>310.16248</ele>
        <time>2013-03-29T12:48:41.000Z</time>
      </trkpt>
      <trkpt lat="43.2178" lon="5.40056">
        <ele>311.6045</ele>
        <time>2013-03-29T12:48:44.000Z</time>
      </trkpt>
      <trkpt lat="43.21787" lon="5.40046">
        <ele>312.5658</ele>
        <time>2013-03-29T12:48:49.000Z</time>
      </trkpt>
      <trkpt lat="43.21793" lon="5.40033">
        <ele>314.4884</ele>
        <time>2013-03-29T12:48:55.000Z</time>
      </trkpt>
      <trkpt lat="43.21796" lon="5.40016">
        <ele>315.93042</ele>
        <time>2013-03-29T12:49:01.000Z</time>
      </trkpt>
      <trkpt lat="43.21797" lon="5.40005">
        <ele>315.93042</ele>
        <time>2013-03-29T12:49:05.000Z</time>
      </trkpt>
      <trkpt lat="43.21792" lon="5.39985">
        <ele>316.411</ele>
        <time>2013-03-29T12:49:12.000Z</time>
      </trkpt>
      <trkpt lat="43.21789" lon="5.39975">
        <ele>316.89172</ele>
        <time>2013-03-29T12:49:15.000Z</time>
      </trkpt>
      <trkpt lat="43.21785" lon="5.39957">
        <ele>315.93042</ele>
        <time>2013-03-29T12:49:20.000Z</time>
      </trkpt>
      <trkpt lat="43.21783" lon="5.39949">
        <ele>315.44983</ele>
        <time>2013-03-29T12:49:23.000Z</time>
      </trkpt>
      <trkpt lat="43.21781" lon="5.39939">
        <ele>316.89172</ele>
        <time>2013-03-29T12:49:28.000Z</time>
      </trkpt>
      <trkpt lat="43.21781" lon="5.39934">
        <ele>318.33362</ele>
        <time>2013-03-29T12:49:32.000Z</time>
      </trkpt>
      <trkpt lat="43.21781" lon="5.39932">
        <ele>318.81433</ele>
        <time>2013-03-29T12:49:34.000Z</time>
      </trkpt>
      <trkpt lat="43.2178" lon="5.39926">
        <ele>322.17896</ele>
        <time>2013-03-29T12:49:41.000Z</time>
      </trkpt>
      <trkpt lat="43.21781" lon="5.39921">
        <ele>324.58228</ele>
        <time>2013-03-29T12:49:47.000Z</time>
      </trkpt>
      <trkpt lat="43.21784" lon="5.39915">
        <ele>326.02417</ele>
        <time>2013-03-29T12:49:52.000Z</time>
      </trkpt>
      <trkpt lat="43.21785" lon="5.39909">
        <ele>326.9856</ele>
        <time>2013-03-29T12:49:56.000Z</time>
      </trkpt>
      <trkpt lat="43.21784" lon="5.39902">
        <ele>329.8695</ele>
        <time>2013-03-29T12:50:02.000Z</time>
      </trkpt>
      <trkpt lat="43.21783" lon="5.39895">
        <ele>330.83093</ele>
        <time>2013-03-29T12:50:06.000Z</time>
      </trkpt>
      <trkpt lat="43.21783" lon="5.39891">
        <ele>331.31152</ele>
        <time>2013-03-29T12:50:08.000Z</time>
      </trkpt>
      <trkpt lat="43.21784" lon="5.39873">
        <ele>329.38892</ele>
        <time>2013-03-29T12:50:14.000Z</time>
      </trkpt>
      <trkpt lat="43.21785" lon="5.39871">
        <ele>329.38892</ele>
        <time>2013-03-29T12:50:15.000Z</time>
      </trkpt>
      <trkpt lat="43.21784" lon="5.39862">
        <ele>329.8695</ele>
        <time>2013-03-29T12:50:19.000Z</time>
      </trkpt>
      <trkpt lat="43.21786" lon="5.39849">
        <ele>332.75354</ele>
        <time>2013-03-29T12:50:25.000Z</time>
      </trkpt>
      <trkpt lat="43.21792" lon="5.3984">
        <ele>332.75354</ele>
        <time>2013-03-29T12:50:28.000Z</time>
      </trkpt>
      <trkpt lat="43.21795" lon="5.39831">
        <ele>333.71472</ele>
        <time>2013-03-29T12:50:32.000Z</time>
      </trkpt>
      <trkpt lat="43.21796" lon="5.39823">
        <ele>334.67615</ele>
        <time>2013-03-29T12:50:35.000Z</time>
      </trkpt>
      <trkpt lat="43.21807" lon="5.39811">
        <ele>334.67615</ele>
        <time>2013-03-29T12:50:41.000Z</time>
      </trkpt>
      <trkpt lat="43.2181" lon="5.39807">
        <ele>336.59888</ele>
        <time>2013-03-29T12:50:45.000Z</time>
      </trkpt>
      <trkpt lat="43.21812" lon="5.39801">
        <ele>338.52148</ele>
        <time>2013-03-29T12:50:50.000Z</time>
      </trkpt>
      <trkpt lat="43.21812" lon="5.398">
        <ele>339.00208</ele>
        <time>2013-03-29T12:50:51.000Z</time>
      </trkpt>
      <trkpt lat="43.2181" lon="5.39796">
        <ele>342.3667</ele>
        <time>2013-03-29T12:50:56.000Z</time>
      </trkpt>
      <trkpt lat="43.2181" lon="5.39792">
        <ele>344.77002</ele>
        <time>2013-03-29T12:51:01.000Z</time>
      </trkpt>
      <trkpt lat="43.21812" lon="5.39789">
        <ele>345.73132</ele>
        <time>2013-03-29T12:51:05.000Z</time>
      </trkpt>
      <trkpt lat="43.21816" lon="5.39787">
        <ele>345.73132</ele>
        <time>2013-03-29T12:51:10.000Z</time>
      </trkpt>
      <trkpt lat="43.21818" lon="5.39782">
        <ele>346.69263</ele>
        <time>2013-03-29T12:51:15.000Z</time>
      </trkpt>
      <trkpt lat="43.21819" lon="5.39777">
        <ele>348.13464</ele>
        <time>2013-03-29T12:51:19.000Z</time>
      </trkpt>
      <trkpt lat="43.2182" lon="5.39777">
        <ele>346.69263</ele>
        <time>2013-03-29T12:51:28.000Z</time>
      </trkpt>
      <trkpt lat="43.21821" lon="5.39777">
        <ele>345.2506</ele>
        <time>2013-03-29T12:51:40.000Z</time>
      </trkpt>
      <trkpt lat="43.21821" lon="5.39776">
        <ele>347.65393</ele>
        <time>2013-03-29T12:51:50.000Z</time>
      </trkpt>
      <trkpt lat="43.21819" lon="5.3977">
        <ele>350.53784</ele>
        <time>2013-03-29T12:51:55.000Z</time>
      </trkpt>
      <trkpt lat="43.21817" lon="5.39768">
        <ele>352.46057</ele>
        <time>2013-03-29T12:51:59.000Z</time>
      </trkpt>
      <trkpt lat="43.21818" lon="5.39767">
        <ele>352.94116</ele>
        <time>2013-03-29T12:52:05.000Z</time>
      </trkpt>
      <trkpt lat="43.21817" lon="5.39764">
        <ele>354.38318</ele>
        <time>2013-03-29T12:52:10.000Z</time>
      </trkpt>
      <trkpt lat="43.21817" lon="5.39762">
        <ele>357.2671</ele>
        <time>2013-03-29T12:52:15.000Z</time>
      </trkpt>
      <trkpt lat="43.21816" lon="5.39758">
        <ele>360.15112</ele>
        <time>2013-03-29T12:52:22.000Z</time>
      </trkpt>
      <trkpt lat="43.21815" lon="5.39756">
        <ele>363.03503</ele>
        <time>2013-03-29T12:52:26.000Z</time>
      </trkpt>
      <trkpt lat="43.21815" lon="5.39753">
        <ele>365.43835</ele>
        <time>2013-03-29T12:52:31.000Z</time>
      </trkpt>
      <trkpt lat="43.21814" lon="5.3975">
        <ele>367.84155</ele>
        <time>2013-03-29T12:52:36.000Z</time>
      </trkpt>
      <trkpt lat="43.21812" lon="5.39747">
        <ele>370.24487</ele>
        <time>2013-03-29T12:52:41.000Z</time>
      </trkpt>
      <trkpt lat="43.2181" lon="5.39744">
        <ele>372.16748</ele>
        <time>2013-03-29T12:52:47.000Z</time>
      </trkpt>
      <trkpt lat="43.21809" lon="5.39741">
        <ele>373.1289</ele>
        <time>2013-03-29T12:52:52.000Z</time>
      </trkpt>
      <trkpt lat="43.21806" lon="5.39742">
        <ele>374.0901</ele>
        <time>2013-03-29T12:52:56.000Z</time>
      </trkpt>
      <trkpt lat="43.21803" lon="5.39744">
        <ele>373.1289</ele>
        <time>2013-03-29T12:53:01.000Z</time>
      </trkpt>
      <trkpt lat="43.21804" lon="5.39743">
        <ele>373.1289</ele>
        <time>2013-03-29T12:53:21.000Z</time>
      </trkpt>
      <trkpt lat="43.21807" lon="5.39739">
        <ele>374.0901</ele>
        <time>2013-03-29T12:53:29.000Z</time>
      </trkpt>
      <trkpt lat="43.21813" lon="5.39731">
        <ele>372.6482</ele>
        <time>2013-03-29T12:53:33.000Z</time>
      </trkpt>
      <trkpt lat="43.2182" lon="5.39719">
        <ele>371.2063</ele>
        <time>2013-03-29T12:53:38.000Z</time>
      </trkpt>
      <trkpt lat="43.21821" lon="5.39715">
        <ele>370.7256</ele>
        <time>2013-03-29T12:53:39.000Z</time>
      </trkpt>
      <trkpt lat="43.2183" lon="5.39706">
        <ele>368.32227</ele>
        <time>2013-03-29T12:53:44.000Z</time>
      </trkpt>
      <trkpt lat="43.21834" lon="5.39705">
        <ele>368.80298</ele>
        <time>2013-03-29T12:53:46.000Z</time>
      </trkpt>
      <trkpt lat="43.21835" lon="5.39703">
        <ele>368.32227</ele>
        <time>2013-03-29T12:53:48.000Z</time>
      </trkpt>
      <trkpt lat="43.21834" lon="5.39701">
        <ele>371.2063</ele>
        <time>2013-03-29T12:53:52.000Z</time>
      </trkpt>
      <trkpt lat="43.2184" lon="5.39697">
        <ele>372.16748</ele>
        <time>2013-03-29T12:53:56.000Z</time>
      </trkpt>
      <trkpt lat="43.21847" lon="5.39693">
        <ele>375.5321</ele>
        <time>2013-03-29T12:54:01.000Z</time>
      </trkpt>
      <trkpt lat="43.21848" lon="5.39693">
        <ele>375.5321</ele>
        <time>2013-03-29T12:54:02.000Z</time>
      </trkpt>
      <trkpt lat="43.2185" lon="5.39691">
        <ele>377.93542</ele>
        <time>2013-03-29T12:54:05.000Z</time>
      </trkpt>
      <trkpt lat="43.21851" lon="5.39688">
        <ele>380.81946</ele>
        <time>2013-03-29T12:54:09.000Z</time>
      </trkpt>
      <trkpt lat="43.21854" lon="5.39685">
        <ele>383.22266</ele>
        <time>2013-03-29T12:54:14.000Z</time>
      </trkpt>
      <trkpt lat="43.21853" lon="5.39682">
        <ele>385.1454</ele>
        <time>2013-03-29T12:54:18.000Z</time>
      </trkpt>
      <trkpt lat="43.21852" lon="5.39682">
        <ele>385.62598</ele>
        <time>2013-03-29T12:54:19.000Z</time>
      </trkpt>
      <trkpt lat="43.21849" lon="5.39678">
        <ele>387.068</ele>
        <time>2013-03-29T12:54:23.000Z</time>
      </trkpt>
      <trkpt lat="43.21852" lon="5.39675">
        <ele>389.9519</ele>
        <time>2013-03-29T12:54:28.000Z</time>
      </trkpt>
      <trkpt lat="43.21856" lon="5.39673">
        <ele>390.9132</ele>
        <time>2013-03-29T12:54:33.000Z</time>
      </trkpt>
      <trkpt lat="43.21859" lon="5.39672">
        <ele>392.35535</ele>
        <time>2013-03-29T12:54:36.000Z</time>
      </trkpt>
      <trkpt lat="43.21866" lon="5.39669">
        <ele>393.79724</ele>
        <time>2013-03-29T12:54:40.000Z</time>
      </trkpt>
      <trkpt lat="43.21867" lon="5.39668">
        <ele>393.79724</ele>
        <time>2013-03-29T12:54:42.000Z</time>
      </trkpt>
      <trkpt lat="43.21867" lon="5.39665">
        <ele>395.23914</ele>
        <time>2013-03-29T12:54:45.000Z</time>
      </trkpt>
      <trkpt lat="43.21869" lon="5.39663">
        <ele>398.60376</ele>
        <time>2013-03-29T12:54:51.000Z</time>
      </trkpt>
      <trkpt lat="43.21868" lon="5.39659">
        <ele>400.5265</ele>
        <time>2013-03-29T12:54:56.000Z</time>
      </trkpt>
      <trkpt lat="43.21867" lon="5.39655">
        <ele>402.9297</ele>
        <time>2013-03-29T12:55:02.000Z</time>
      </trkpt>
      <trkpt lat="43.21867" lon="5.39651">
        <ele>403.4104</ele>
        <time>2013-03-29T12:55:07.000Z</time>
      </trkpt>
      <trkpt lat="43.21867" lon="5.3965">
        <ele>404.8523</ele>
        <time>2013-03-29T12:55:10.000Z</time>
      </trkpt>
      <trkpt lat="43.21869" lon="5.39647">
        <ele>404.3717</ele>
        <time>2013-03-29T12:55:14.000Z</time>
      </trkpt>
      <trkpt lat="43.21868" lon="5.39642">
        <ele>404.8523</ele>
        <time>2013-03-29T12:55:20.000Z</time>
      </trkpt>
      <trkpt lat="43.21866" lon="5.39645">
        <ele>403.4104</ele>
        <time>2013-03-29T12:55:27.000Z</time>
      </trkpt>
      <trkpt lat="43.21866" lon="5.39645">
        <ele>402.4491</ele>
        <time>2013-03-29T12:55:33.000Z</time>
      </trkpt>
      <trkpt lat="43.21867" lon="5.3964">
        <ele>402.4491</ele>
        <time>2013-03-29T12:55:45.000Z</time>
      </trkpt>
      <trkpt lat="43.21872" lon="5.39632">
        <ele>401.9685</ele>
        <time>2013-03-29T12:55:50.000Z</time>
      </trkpt>
      <trkpt lat="43.21876" lon="5.3962">
        <ele>400.5265</ele>
        <time>2013-03-29T12:55:54.000Z</time>
      </trkpt>
      <trkpt lat="43.21877" lon="5.39607">
        <ele>398.12317</ele>
        <time>2013-03-29T12:55:58.000Z</time>
      </trkpt>
      <trkpt lat="43.21876" lon="5.39595">
        <ele>397.64246</ele>
        <time>2013-03-29T12:56:01.000Z</time>
      </trkpt>
      <trkpt lat="43.21876" lon="5.39572">
        <ele>393.79724</ele>
        <time>2013-03-29T12:56:07.000Z</time>
      </trkpt>
      <trkpt lat="43.21877" lon="5.39553">
        <ele>391.3938</ele>
        <time>2013-03-29T12:56:12.000Z</time>
      </trkpt>
      <trkpt lat="43.21878" lon="5.39546">
        <ele>390.9132</ele>
        <time>2013-03-29T12:56:14.000Z</time>
      </trkpt>
      <trkpt lat="43.2188" lon="5.39524">
        <ele>388.9906</ele>
        <time>2013-03-29T12:56:20.000Z</time>
      </trkpt>
      <trkpt lat="43.21878" lon="5.39515">
        <ele>388.51</ele>
        <time>2013-03-29T12:56:22.000Z</time>
      </trkpt>
      <trkpt lat="43.21875" lon="5.39493">
        <ele>387.54858</ele>
        <time>2013-03-29T12:56:28.000Z</time>
      </trkpt>
      <trkpt lat="43.21875" lon="5.39476">
        <ele>386.5874</ele>
        <time>2013-03-29T12:56:32.000Z</time>
      </trkpt>
      <trkpt lat="43.21874" lon="5.39462">
        <ele>386.1067</ele>
        <time>2013-03-29T12:56:36.000Z</time>
      </trkpt>
      <trkpt lat="43.21869" lon="5.39445">
        <ele>385.62598</ele>
        <time>2013-03-29T12:56:41.000Z</time>
      </trkpt>
      <trkpt lat="43.21868" lon="5.39441">
        <ele>385.62598</ele>
        <time>2013-03-29T12:56:42.000Z</time>
      </trkpt>
      <trkpt lat="43.21861" lon="5.39423">
        <ele>386.1067</ele>
        <time>2013-03-29T12:56:47.000Z</time>
      </trkpt>
      <trkpt lat="43.21859" lon="5.39408">
        <ele>385.62598</ele>
        <time>2013-03-29T12:56:52.000Z</time>
      </trkpt>
      <trkpt lat="43.21864" lon="5.39391">
        <ele>384.6648</ele>
        <time>2013-03-29T12:56:57.000Z</time>
      </trkpt>
      <trkpt lat="43.21868" lon="5.39379">
        <ele>383.22266</ele>
        <time>2013-03-29T12:57:01.000Z</time>
      </trkpt>
      <trkpt lat="43.21868" lon="5.39361">
        <ele>381.30005</ele>
        <time>2013-03-29T12:57:06.000Z</time>
      </trkpt>
      <trkpt lat="43.21868" lon="5.39357">
        <ele>381.30005</ele>
        <time>2013-03-29T12:57:07.000Z</time>
      </trkpt>
      <trkpt lat="43.21863" lon="5.39342">
        <ele>379.85803</ele>
        <time>2013-03-29T12:57:12.000Z</time>
      </trkpt>
      <trkpt lat="43.21861" lon="5.39332">
        <ele>378.89685</ele>
        <time>2013-03-29T12:57:15.000Z</time>
      </trkpt>
      <trkpt lat="43.21858" lon="5.39321">
        <ele>378.41614</ele>
        <time>2013-03-29T12:57:19.000Z</time>
      </trkpt>
      <trkpt lat="43.21858" lon="5.39318">
        <ele>377.93542</ele>
        <time>2013-03-29T12:57:20.000Z</time>
      </trkpt>
      <trkpt lat="43.21852" lon="5.39308">
        <ele>376.97424</ele>
        <time>2013-03-29T12:57:25.000Z</time>
      </trkpt>
      <trkpt lat="43.21848" lon="5.393">
        <ele>375.5321</ele>
        <time>2013-03-29T12:57:28.000Z</time>
      </trkpt>
      <trkpt lat="43.21846" lon="5.39291">
        <ele>374.5708</ele>
        <time>2013-03-29T12:57:31.000Z</time>
      </trkpt>
      <trkpt lat="43.21842" lon="5.39268">
        <ele>373.1289</ele>
        <time>2013-03-29T12:57:38.000Z</time>
      </trkpt>
      <trkpt lat="43.21837" lon="5.39252">
        <ele>372.16748</ele>
        <time>2013-03-29T12:57:42.000Z</time>
      </trkpt>
      <trkpt lat="43.21835" lon="5.39235">
        <ele>371.6869</ele>
        <time>2013-03-29T12:57:47.000Z</time>
      </trkpt>
      <trkpt lat="43.21835" lon="5.39211">
        <ele>371.6869</ele>
        <time>2013-03-29T12:57:54.000Z</time>
      </trkpt>
      <trkpt lat="43.21828" lon="5.39191">
        <ele>373.1289</ele>
        <time>2013-03-29T12:58:00.000Z</time>
      </trkpt>
      <trkpt lat="43.21819" lon="5.39174">
        <ele>375.0515</ele>
        <time>2013-03-29T12:58:06.000Z</time>
      </trkpt>
      <trkpt lat="43.21817" lon="5.39164">
        <ele>375.0515</ele>
        <time>2013-03-29T12:58:09.000Z</time>
      </trkpt>
      <trkpt lat="43.21815" lon="5.39143">
        <ele>376.49353</ele>
        <time>2013-03-29T12:58:16.000Z</time>
      </trkpt>
      <trkpt lat="43.21818" lon="5.39127">
        <ele>376.97424</ele>
        <time>2013-03-29T12:58:22.000Z</time>
      </trkpt>
      <trkpt lat="43.21824" lon="5.39114">
        <ele>377.45483</ele>
        <time>2013-03-29T12:58:28.000Z</time>
      </trkpt>
      <trkpt lat="43.21829" lon="5.39102">
        <ele>378.41614</ele>
        <time>2013-03-29T12:58:33.000Z</time>
      </trkpt>
      <trkpt lat="43.21831" lon="5.39089">
        <ele>379.85803</ele>
        <time>2013-03-29T12:58:38.000Z</time>
      </trkpt>
      <trkpt lat="43.21833" lon="5.39077">
        <ele>381.30005</ele>
        <time>2013-03-29T12:58:43.000Z</time>
      </trkpt>
      <trkpt lat="43.21833" lon="5.39075">
        <ele>381.30005</ele>
        <time>2013-03-29T12:58:44.000Z</time>
      </trkpt>
      <trkpt lat="43.21834" lon="5.39064">
        <ele>382.74207</ele>
        <time>2013-03-29T12:58:48.000Z</time>
      </trkpt>
      <trkpt lat="43.21839" lon="5.39048">
        <ele>383.70325</ele>
        <time>2013-03-29T12:58:54.000Z</time>
      </trkpt>
      <trkpt lat="43.21843" lon="5.39035">
        <ele>385.62598</ele>
        <time>2013-03-29T12:58:59.000Z</time>
      </trkpt>
      <trkpt lat="43.21843" lon="5.39032">
        <ele>385.62598</ele>
        <time>2013-03-29T12:59:00.000Z</time>
      </trkpt>
      <trkpt lat="43.21846" lon="5.39015">
        <ele>386.5874</ele>
        <time>2013-03-29T12:59:06.000Z</time>
      </trkpt>
      <trkpt lat="43.21847" lon="5.39009">
        <ele>387.068</ele>
        <time>2013-03-29T12:59:08.000Z</time>
      </trkpt>
      <trkpt lat="43.21847" lon="5.38996">
        <ele>386.5874</ele>
        <time>2013-03-29T12:59:13.000Z</time>
      </trkpt>
      <trkpt lat="43.2185" lon="5.38989">
        <ele>387.068</ele>
        <time>2013-03-29T12:59:16.000Z</time>
      </trkpt>
      <trkpt lat="43.21852" lon="5.38976">
        <ele>388.0293</ele>
        <time>2013-03-29T12:59:21.000Z</time>
      </trkpt>
      <trkpt lat="43.21852" lon="5.38974">
        <ele>388.0293</ele>
        <time>2013-03-29T12:59:22.000Z</time>
      </trkpt>
      <trkpt lat="43.21856" lon="5.3896">
        <ele>388.0293</ele>
        <time>2013-03-29T12:59:28.000Z</time>
      </trkpt>
      <trkpt lat="43.21864" lon="5.38954">
        <ele>387.068</ele>
        <time>2013-03-29T12:59:33.000Z</time>
      </trkpt>
      <trkpt lat="43.21872" lon="5.38945">
        <ele>386.1067</ele>
        <time>2013-03-29T12:59:38.000Z</time>
      </trkpt>
      <trkpt lat="43.21878" lon="5.38928">
        <ele>384.18408</ele>
        <time>2013-03-29T12:59:44.000Z</time>
      </trkpt>
      <trkpt lat="43.21884" lon="5.3892">
        <ele>383.22266</ele>
        <time>2013-03-29T12:59:49.000Z</time>
      </trkpt>
      <trkpt lat="43.21888" lon="5.38912">
        <ele>381.30005</ele>
        <time>2013-03-29T12:59:53.000Z</time>
      </trkpt>
      <trkpt lat="43.21894" lon="5.38903">
        <ele>380.81946</ele>
        <time>2013-03-29T12:59:57.000Z</time>
      </trkpt>
      <trkpt lat="43.21896" lon="5.38898">
        <ele>380.33875</ele>
        <time>2013-03-29T12:59:59.000Z</time>
      </trkpt>
      <trkpt lat="43.21902" lon="5.38893">
        <ele>378.89685</ele>
        <time>2013-03-29T13:00:04.000Z</time>
      </trkpt>
      <trkpt lat="43.21909" lon="5.38886">
        <ele>377.45483</ele>
        <time>2013-03-29T13:00:10.000Z</time>
      </trkpt>
      <trkpt lat="43.21913" lon="5.38879">
        <ele>376.01282</ele>
        <time>2013-03-29T13:00:15.000Z</time>
      </trkpt>
      <trkpt lat="43.21914" lon="5.38869">
        <ele>374.5708</ele>
        <time>2013-03-29T13:00:19.000Z</time>
      </trkpt>
      <trkpt lat="43.21917" lon="5.38864">
        <ele>373.6095</ele>
        <time>2013-03-29T13:00:22.000Z</time>
      </trkpt>
      <trkpt lat="43.21922" lon="5.38855">
        <ele>373.6095</ele>
        <time>2013-03-29T13:00:27.000Z</time>
      </trkpt>
      <trkpt lat="43.2193" lon="5.38849">
        <ele>373.1289</ele>
        <time>2013-03-29T13:00:32.000Z</time>
      </trkpt>
      <trkpt lat="43.21932" lon="5.38841">
        <ele>373.1289</ele>
        <time>2013-03-29T13:00:35.000Z</time>
      </trkpt>
      <trkpt lat="43.21933" lon="5.3883">
        <ele>373.1289</ele>
        <time>2013-03-29T13:00:38.000Z</time>
      </trkpt>
      <trkpt lat="43.21936" lon="5.38818">
        <ele>371.6869</ele>
        <time>2013-03-29T13:00:43.000Z</time>
      </trkpt>
      <trkpt lat="43.21937" lon="5.38816">
        <ele>371.6869</ele>
        <time>2013-03-29T13:00:44.000Z</time>
      </trkpt>
      <trkpt lat="43.21938" lon="5.38815">
        <ele>370.7256</ele>
        <time>2013-03-29T13:00:46.000Z</time>
      </trkpt>
      <trkpt lat="43.21942" lon="5.38814">
        <ele>369.2837</ele>
        <time>2013-03-29T13:00:51.000Z</time>
      </trkpt>
      <trkpt lat="43.21948" lon="5.3881">
        <ele>368.80298</ele>
        <time>2013-03-29T13:00:58.000Z</time>
      </trkpt>
      <trkpt lat="43.2195" lon="5.38812">
        <ele>368.32227</ele>
        <time>2013-03-29T13:01:02.000Z</time>
      </trkpt>
      <trkpt lat="43.21956" lon="5.38814">
        <ele>366.88025</ele>
        <time>2013-03-29T13:01:08.000Z</time>
      </trkpt>
      <trkpt lat="43.21959" lon="5.38812">
        <ele>366.88025</ele>
        <time>2013-03-29T13:01:11.000Z</time>
      </trkpt>
      <trkpt lat="43.21963" lon="5.38811">
        <ele>366.39954</ele>
        <time>2013-03-29T13:01:15.000Z</time>
      </trkpt>
      <trkpt lat="43.2197" lon="5.38804">
        <ele>364.95764</ele>
        <time>2013-03-29T13:01:20.000Z</time>
      </trkpt>
      <trkpt lat="43.21975" lon="5.38802">
        <ele>363.99634</ele>
        <time>2013-03-29T13:01:24.000Z</time>
      </trkpt>
      <trkpt lat="43.21981" lon="5.38797">
        <ele>362.07373</ele>
        <time>2013-03-29T13:01:29.000Z</time>
      </trkpt>
      <trkpt lat="43.21988" lon="5.38789">
        <ele>361.11243</ele>
        <time>2013-03-29T13:01:35.000Z</time>
      </trkpt>
      <trkpt lat="43.21992" lon="5.38786">
        <ele>360.6317</ele>
        <time>2013-03-29T13:01:38.000Z</time>
      </trkpt>
      <trkpt lat="43.21999" lon="5.38779">
        <ele>360.15112</ele>
        <time>2013-03-29T13:01:43.000Z</time>
      </trkpt>
      <trkpt lat="43.22002" lon="5.38777">
        <ele>361.11243</ele>
        <time>2013-03-29T13:01:46.000Z</time>
      </trkpt>
      <trkpt lat="43.22011" lon="5.38776">
        <ele>361.59314</ele>
        <time>2013-03-29T13:01:52.000Z</time>
      </trkpt>
      <trkpt lat="43.22021" lon="5.38774">
        <ele>361.11243</ele>
        <time>2013-03-29T13:01:57.000Z</time>
      </trkpt>
      <trkpt lat="43.22028" lon="5.3877">
        <ele>360.15112</ele>
        <time>2013-03-29T13:02:01.000Z</time>
      </trkpt>
      <trkpt lat="43.22032" lon="5.38769">
        <ele>359.6704</ele>
        <time>2013-03-29T13:02:03.000Z</time>
      </trkpt>
      <trkpt lat="43.22042" lon="5.38767">
        <ele>359.1897</ele>
        <time>2013-03-29T13:02:07.000Z</time>
      </trkpt>
      <trkpt lat="43.2205" lon="5.38771">
        <ele>358.2284</ele>
        <time>2013-03-29T13:02:11.000Z</time>
      </trkpt>
      <trkpt lat="43.22057" lon="5.3877">
        <ele>356.78638</ele>
        <time>2013-03-29T13:02:16.000Z</time>
      </trkpt>
      <trkpt lat="43.22061" lon="5.38769">
        <ele>355.8252</ele>
        <time>2013-03-29T13:02:29.000Z</time>
      </trkpt>
      <trkpt lat="43.22061" lon="5.38768">
        <ele>356.3058</ele>
        <time>2013-03-29T13:02:35.000Z</time>
      </trkpt>
      <trkpt lat="43.22064" lon="5.38767">
        <ele>355.8252</ele>
        <time>2013-03-29T13:02:43.000Z</time>
      </trkpt>
      <trkpt lat="43.22074" lon="5.38766">
        <ele>354.86377</ele>
        <time>2013-03-29T13:02:48.000Z</time>
      </trkpt>
      <trkpt lat="43.22077" lon="5.38766">
        <ele>354.86377</ele>
        <time>2013-03-29T13:02:49.000Z</time>
      </trkpt>
      <trkpt lat="43.22085" lon="5.38765">
        <ele>354.86377</ele>
        <time>2013-03-29T13:02:53.000Z</time>
      </trkpt>
      <trkpt lat="43.22091" lon="5.38762">
        <ele>354.38318</ele>
        <time>2013-03-29T13:02:56.000Z</time>
      </trkpt>
      <trkpt lat="43.22103" lon="5.38752">
        <ele>354.86377</ele>
        <time>2013-03-29T13:03:02.000Z</time>
      </trkpt>
      <trkpt lat="43.22105" lon="5.3875">
        <ele>354.86377</ele>
        <time>2013-03-29T13:03:03.000Z</time>
      </trkpt>
      <trkpt lat="43.22111" lon="5.3874">
        <ele>354.86377</ele>
        <time>2013-03-29T13:03:07.000Z</time>
      </trkpt>
      <trkpt lat="43.2212" lon="5.38737">
        <ele>353.42188</ele>
        <time>2013-03-29T13:03:12.000Z</time>
      </trkpt>
      <trkpt lat="43.22121" lon="5.38736">
        <ele>353.42188</ele>
        <time>2013-03-29T13:03:13.000Z</time>
      </trkpt>
      <trkpt lat="43.22129" lon="5.38728">
        <ele>350.53784</ele>
        <time>2013-03-29T13:03:19.000Z</time>
      </trkpt>
      <trkpt lat="43.2213" lon="5.38726">
        <ele>350.05725</ele>
        <time>2013-03-29T13:03:20.000Z</time>
      </trkpt>
      <trkpt lat="43.22137" lon="5.38721">
        <ele>349.57654</ele>
        <time>2013-03-29T13:03:27.000Z</time>
      </trkpt>
      <trkpt lat="43.22141" lon="5.3872">
        <ele>349.57654</ele>
        <time>2013-03-29T13:03:30.000Z</time>
      </trkpt>
      <trkpt lat="43.22144" lon="5.38717">
        <ele>350.05725</ele>
        <time>2013-03-29T13:03:32.000Z</time>
      </trkpt>
      <trkpt lat="43.22154" lon="5.38705">
        <ele>350.53784</ele>
        <time>2013-03-29T13:03:38.000Z</time>
      </trkpt>
      <trkpt lat="43.22161" lon="5.38701">
        <ele>350.53784</ele>
        <time>2013-03-29T13:03:42.000Z</time>
      </trkpt>
      <trkpt lat="43.22167" lon="5.38697">
        <ele>350.53784</ele>
        <time>2013-03-29T13:03:45.000Z</time>
      </trkpt>
      <trkpt lat="43.22173" lon="5.38693">
        <ele>350.53784</ele>
        <time>2013-03-29T13:03:48.000Z</time>
      </trkpt>
      <trkpt lat="43.22181" lon="5.38681">
        <ele>351.01843</ele>
        <time>2013-03-29T13:03:54.000Z</time>
      </trkpt>
      <trkpt lat="43.22187" lon="5.38671">
        <ele>351.49915</ele>
        <time>2013-03-29T13:03:59.000Z</time>
      </trkpt>
      <trkpt lat="43.22195" lon="5.38663">
        <ele>352.46057</ele>
        <time>2013-03-29T13:04:04.000Z</time>
      </trkpt>
      <trkpt lat="43.22208" lon="5.38657">
        <ele>353.9026</ele>
        <time>2013-03-29T13:04:11.000Z</time>
      </trkpt>
      <trkpt lat="43.22216" lon="5.3865">
        <ele>355.34448</ele>
        <time>2013-03-29T13:04:16.000Z</time>
      </trkpt>
      <trkpt lat="43.22219" lon="5.38646">
        <ele>355.8252</ele>
        <time>2013-03-29T13:04:18.000Z</time>
      </trkpt>
      <trkpt lat="43.22226" lon="5.38639">
        <ele>356.3058</ele>
        <time>2013-03-29T13:04:23.000Z</time>
      </trkpt>
      <trkpt lat="43.22231" lon="5.38626">
        <ele>357.2671</ele>
        <time>2013-03-29T13:04:28.000Z</time>
      </trkpt>
      <trkpt lat="43.22239" lon="5.38613">
        <ele>357.7478</ele>
        <time>2013-03-29T13:04:35.000Z</time>
      </trkpt>
      <trkpt lat="43.22243" lon="5.38604">
        <ele>358.70898</ele>
        <time>2013-03-29T13:04:39.000Z</time>
      </trkpt>
      <trkpt lat="43.22247" lon="5.38594">
        <ele>358.70898</ele>
        <time>2013-03-29T13:04:43.000Z</time>
      </trkpt>
      <trkpt lat="43.22252" lon="5.38587">
        <ele>359.1897</ele>
        <time>2013-03-29T13:04:47.000Z</time>
      </trkpt>
      <trkpt lat="43.22256" lon="5.38575">
        <ele>359.1897</ele>
        <time>2013-03-29T13:04:52.000Z</time>
      </trkpt>
      <trkpt lat="43.22258" lon="5.38565">
        <ele>360.15112</ele>
        <time>2013-03-29T13:04:55.000Z</time>
      </trkpt>
      <trkpt lat="43.22262" lon="5.38557">
        <ele>359.6704</ele>
        <time>2013-03-29T13:04:59.000Z</time>
      </trkpt>
      <trkpt lat="43.22264" lon="5.38552">
        <ele>359.6704</ele>
        <time>2013-03-29T13:05:02.000Z</time>
      </trkpt>
      <trkpt lat="43.2227" lon="5.38546">
        <ele>360.6317</ele>
        <time>2013-03-29T13:05:06.000Z</time>
      </trkpt>
      <trkpt lat="43.2227" lon="5.38537">
        <ele>361.11243</ele>
        <time>2013-03-29T13:05:09.000Z</time>
      </trkpt>
      <trkpt lat="43.22276" lon="5.38533">
        <ele>361.59314</ele>
        <time>2013-03-29T13:05:13.000Z</time>
      </trkpt>
      <trkpt lat="43.22284" lon="5.38525">
        <ele>363.03503</ele>
        <time>2013-03-29T13:05:18.000Z</time>
      </trkpt>
      <trkpt lat="43.22287" lon="5.38521">
        <ele>363.51575</ele>
        <time>2013-03-29T13:05:20.000Z</time>
      </trkpt>
      <trkpt lat="43.2229" lon="5.3851">
        <ele>363.51575</ele>
        <time>2013-03-29T13:05:25.000Z</time>
      </trkpt>
      <trkpt lat="43.22296" lon="5.385">
        <ele>364.47693</ele>
        <time>2013-03-29T13:05:30.000Z</time>
      </trkpt>
      <trkpt lat="43.22302" lon="5.38488">
        <ele>365.43835</ele>
        <time>2013-03-29T13:05:36.000Z</time>
      </trkpt>
      <trkpt lat="43.22303" lon="5.38486">
        <ele>365.91895</ele>
        <time>2013-03-29T13:05:37.000Z</time>
      </trkpt>
      <trkpt lat="43.22311" lon="5.38471">
        <ele>367.36096</ele>
        <time>2013-03-29T13:05:44.000Z</time>
      </trkpt>
      <trkpt lat="43.22319" lon="5.38455">
        <ele>369.76428</ele>
        <time>2013-03-29T13:05:51.000Z</time>
      </trkpt>
      <trkpt lat="43.22324" lon="5.38444">
        <ele>370.7256</ele>
        <time>2013-03-29T13:05:56.000Z</time>
      </trkpt>
      <trkpt lat="43.22329" lon="5.38431">
        <ele>371.2063</ele>
        <time>2013-03-29T13:06:02.000Z</time>
      </trkpt>
      <trkpt lat="43.22334" lon="5.3842">
        <ele>372.16748</ele>
        <time>2013-03-29T13:06:07.000Z</time>
      </trkpt>
      <trkpt lat="43.22335" lon="5.38418">
        <ele>372.16748</ele>
        <time>2013-03-29T13:06:08.000Z</time>
      </trkpt>
      <trkpt lat="43.22334" lon="5.38403">
        <ele>373.6095</ele>
        <time>2013-03-29T13:06:14.000Z</time>
      </trkpt>
      <trkpt lat="43.22335" lon="5.38393">
        <ele>375.0515</ele>
        <time>2013-03-29T13:06:18.000Z</time>
      </trkpt>
      <trkpt lat="43.22334" lon="5.38381">
        <ele>376.49353</ele>
        <time>2013-03-29T13:06:25.000Z</time>
      </trkpt>
      <trkpt lat="43.22334" lon="5.3838">
        <ele>376.97424</ele>
        <time>2013-03-29T13:06:26.000Z</time>
      </trkpt>
      <trkpt lat="43.22331" lon="5.38375">
        <ele>377.45483</ele>
        <time>2013-03-29T13:06:33.000Z</time>
      </trkpt>
      <trkpt lat="43.22332" lon="5.38373">
        <ele>378.41614</ele>
        <time>2013-03-29T13:06:51.000Z</time>
      </trkpt>
      <trkpt lat="43.22334" lon="5.38373">
        <ele>378.41614</ele>
        <time>2013-03-29T13:06:53.000Z</time>
      </trkpt>
      <trkpt lat="43.2234" lon="5.38366">
        <ele>377.93542</ele>
        <time>2013-03-29T13:06:58.000Z</time>
      </trkpt>
      <trkpt lat="43.22341" lon="5.38363">
        <ele>377.45483</ele>
        <time>2013-03-29T13:06:59.000Z</time>
      </trkpt>
      <trkpt lat="43.22346" lon="5.38349">
        <ele>377.45483</ele>
        <time>2013-03-29T13:07:05.000Z</time>
      </trkpt>
      <trkpt lat="43.22348" lon="5.38345">
        <ele>377.45483</ele>
        <time>2013-03-29T13:07:10.000Z</time>
      </trkpt>
      <trkpt lat="43.22347" lon="5.38344">
        <ele>376.97424</ele>
        <time>2013-03-29T13:07:17.000Z</time>
      </trkpt>
      <trkpt lat="43.22347" lon="5.38343">
        <ele>377.93542</ele>
        <time>2013-03-29T13:07:27.000Z</time>
      </trkpt>
      <trkpt lat="43.22344" lon="5.3834">
        <ele>376.97424</ele>
        <time>2013-03-29T13:07:30.000Z</time>
      </trkpt>
      <trkpt lat="43.22342" lon="5.38335">
        <ele>375.0515</ele>
        <time>2013-03-29T13:07:35.000Z</time>
      </trkpt>
      <trkpt lat="43.22341" lon="5.38332">
        <ele>374.5708</ele>
        <time>2013-03-29T13:07:37.000Z</time>
      </trkpt>
      <trkpt lat="43.22337" lon="5.38329">
        <ele>372.16748</ele>
        <time>2013-03-29T13:07:42.000Z</time>
      </trkpt>
      <trkpt lat="43.22334" lon="5.38324">
        <ele>370.7256</ele>
        <time>2013-03-29T13:07:47.000Z</time>
      </trkpt>
      <trkpt lat="43.22336" lon="5.38319">
        <ele>368.32227</ele>
        <time>2013-03-29T13:07:51.000Z</time>
      </trkpt>
      <trkpt lat="43.22336" lon="5.38315">
        <ele>366.88025</ele>
        <time>2013-03-29T13:07:54.000Z</time>
      </trkpt>
      <trkpt lat="43.22335" lon="5.38311">
        <ele>366.39954</ele>
        <time>2013-03-29T13:07:57.000Z</time>
      </trkpt>
      <trkpt lat="43.22337" lon="5.38305">
        <ele>365.43835</ele>
        <time>2013-03-29T13:08:02.000Z</time>
      </trkpt>
      <trkpt lat="43.22336" lon="5.38297">
        <ele>363.03503</ele>
        <time>2013-03-29T13:08:08.000Z</time>
      </trkpt>
      <trkpt lat="43.22336" lon="5.38294">
        <ele>361.59314</ele>
        <time>2013-03-29T13:08:12.000Z</time>
      </trkpt>
      <trkpt lat="43.22334" lon="5.3829">
        <ele>359.6704</ele>
        <time>2013-03-29T13:08:17.000Z</time>
      </trkpt>
      <trkpt lat="43.22331" lon="5.38283">
        <ele>358.2284</ele>
        <time>2013-03-29T13:08:21.000Z</time>
      </trkpt>
      <trkpt lat="43.22329" lon="5.38276">
        <ele>356.78638</ele>
        <time>2013-03-29T13:08:24.000Z</time>
      </trkpt>
      <trkpt lat="43.22328" lon="5.38266">
        <ele>353.9026</ele>
        <time>2013-03-29T13:08:29.000Z</time>
      </trkpt>
      <trkpt lat="43.22329" lon="5.38256">
        <ele>349.57654</ele>
        <time>2013-03-29T13:08:35.000Z</time>
      </trkpt>
      <trkpt lat="43.22328" lon="5.38254">
        <ele>348.13464</ele>
        <time>2013-03-29T13:08:37.000Z</time>
      </trkpt>
      <trkpt lat="43.22326" lon="5.38251">
        <ele>346.69263</ele>
        <time>2013-03-29T13:08:40.000Z</time>
      </trkpt>
      <trkpt lat="43.22329" lon="5.38248">
        <ele>344.28943</ele>
        <time>2013-03-29T13:08:45.000Z</time>
      </trkpt>
      <trkpt lat="43.22329" lon="5.38246">
        <ele>343.32788</ele>
        <time>2013-03-29T13:08:46.000Z</time>
      </trkpt>
      <trkpt lat="43.22326" lon="5.38238">
        <ele>340.4441</ele>
        <time>2013-03-29T13:08:51.000Z</time>
      </trkpt>
      <trkpt lat="43.22322" lon="5.38232">
        <ele>337.07947</ele>
        <time>2013-03-29T13:08:56.000Z</time>
      </trkpt>
      <trkpt lat="43.22323" lon="5.38227">
        <ele>334.67615</ele>
        <time>2013-03-29T13:09:00.000Z</time>
      </trkpt>
      <trkpt lat="43.22325" lon="5.38223">
        <ele>332.27283</ele>
        <time>2013-03-29T13:09:05.000Z</time>
      </trkpt>
      <trkpt lat="43.22327" lon="5.38218">
        <ele>330.35022</ele>
        <time>2013-03-29T13:09:09.000Z</time>
      </trkpt>
      <trkpt lat="43.22328" lon="5.38216">
        <ele>330.35022</ele>
        <time>2013-03-29T13:09:10.000Z</time>
      </trkpt>
      <trkpt lat="43.22328" lon="5.38213">
        <ele>328.90833</ele>
        <time>2013-03-29T13:09:15.000Z</time>
      </trkpt>
      <trkpt lat="43.22327" lon="5.38213">
        <ele>327.94678</ele>
        <time>2013-03-29T13:09:16.000Z</time>
      </trkpt>
      <trkpt lat="43.22323" lon="5.38208">
        <ele>326.9856</ele>
        <time>2013-03-29T13:09:20.000Z</time>
      </trkpt>
      <trkpt lat="43.22318" lon="5.38209">
        <ele>326.02417</ele>
        <time>2013-03-29T13:09:26.000Z</time>
      </trkpt>
      <trkpt lat="43.22315" lon="5.38207">
        <ele>324.58228</ele>
        <time>2013-03-29T13:09:30.000Z</time>
      </trkpt>
      <trkpt lat="43.22311" lon="5.38205">
        <ele>322.65967</ele>
        <time>2013-03-29T13:09:34.000Z</time>
      </trkpt>
      <trkpt lat="43.2231" lon="5.38204">
        <ele>321.69836</ele>
        <time>2013-03-29T13:09:36.000Z</time>
      </trkpt>
      <trkpt lat="43.22308" lon="5.38202">
        <ele>320.73706</ele>
        <time>2013-03-29T13:09:41.000Z</time>
      </trkpt>
      <trkpt lat="43.22307" lon="5.382">
        <ele>318.33362</ele>
        <time>2013-03-29T13:09:46.000Z</time>
      </trkpt>
      <trkpt lat="43.22306" lon="5.38199">
        <ele>317.85303</ele>
        <time>2013-03-29T13:09:52.000Z</time>
      </trkpt>
      <trkpt lat="43.22304" lon="5.38197">
        <ele>316.89172</ele>
        <time>2013-03-29T13:09:56.000Z</time>
      </trkpt>
      <trkpt lat="43.22305" lon="5.38195">
        <ele>315.93042</ele>
        <time>2013-03-29T13:09:59.000Z</time>
      </trkpt>
      <trkpt lat="43.22306" lon="5.38192">
        <ele>314.4884</ele>
        <time>2013-03-29T13:10:02.000Z</time>
      </trkpt>
      <trkpt lat="43.22304" lon="5.38188">
        <ele>313.0465</ele>
        <time>2013-03-29T13:10:08.000Z</time>
      </trkpt>
      <trkpt lat="43.223" lon="5.38185">
        <ele>311.6045</ele>
        <time>2013-03-29T13:10:11.000Z</time>
      </trkpt>
      <trkpt lat="43.22295" lon="5.38179">
        <ele>309.6819</ele>
        <time>2013-03-29T13:10:14.000Z</time>
      </trkpt>
      <trkpt lat="43.22293" lon="5.38177">
        <ele>309.6819</ele>
        <time>2013-03-29T13:10:15.000Z</time>
      </trkpt>
      <trkpt lat="43.22287" lon="5.3817">
        <ele>307.75928</ele>
        <time>2013-03-29T13:10:20.000Z</time>
      </trkpt>
      <trkpt lat="43.22282" lon="5.38165">
        <ele>307.27856</ele>
        <time>2013-03-29T13:10:24.000Z</time>
      </trkpt>
      <trkpt lat="43.22283" lon="5.38159">
        <ele>303.43323</ele>
        <time>2013-03-29T13:10:30.000Z</time>
      </trkpt>
      <trkpt lat="43.2228" lon="5.38155">
        <ele>302.9525</ele>
        <time>2013-03-29T13:10:32.000Z</time>
      </trkpt>
      <trkpt lat="43.22278" lon="5.38151">
        <ele>302.47192</ele>
        <time>2013-03-29T13:10:34.000Z</time>
      </trkpt>
      <trkpt lat="43.22279" lon="5.38139">
        <ele>300.06873</ele>
        <time>2013-03-29T13:10:38.000Z</time>
      </trkpt>
      <trkpt lat="43.22281" lon="5.38127">
        <ele>298.14612</ele>
        <time>2013-03-29T13:10:42.000Z</time>
      </trkpt>
      <trkpt lat="43.22285" lon="5.38114">
        <ele>294.78137</ele>
        <time>2013-03-29T13:10:46.000Z</time>
      </trkpt>
      <trkpt lat="43.22287" lon="5.38107">
        <ele>293.33936</ele>
        <time>2013-03-29T13:10:50.000Z</time>
      </trkpt>
      <trkpt lat="43.22292" lon="5.38094">
        <ele>289.97485</ele>
        <time>2013-03-29T13:10:55.000Z</time>
      </trkpt>
      <trkpt lat="43.22292" lon="5.38084">
        <ele>287.5714</ele>
        <time>2013-03-29T13:10:59.000Z</time>
      </trkpt>
      <trkpt lat="43.22295" lon="5.38071">
        <ele>284.68762</ele>
        <time>2013-03-29T13:11:03.000Z</time>
      </trkpt>
      <trkpt lat="43.22301" lon="5.38058">
        <ele>282.765</ele>
        <time>2013-03-29T13:11:07.000Z</time>
      </trkpt>
      <trkpt lat="43.22304" lon="5.38051">
        <ele>282.2843</ele>
        <time>2013-03-29T13:11:10.000Z</time>
      </trkpt>
      <trkpt lat="43.22309" lon="5.38042">
        <ele>281.323</ele>
        <time>2013-03-29T13:11:14.000Z</time>
      </trkpt>
      <trkpt lat="43.22314" lon="5.38031">
        <ele>282.765</ele>
        <time>2013-03-29T13:11:20.000Z</time>
      </trkpt>
      <trkpt lat="43.22314" lon="5.38028">
        <ele>283.2456</ele>
        <time>2013-03-29T13:11:22.000Z</time>
      </trkpt>
      <trkpt lat="43.22321" lon="5.38014">
        <ele>283.2456</ele>
        <time>2013-03-29T13:11:27.000Z</time>
      </trkpt>
      <trkpt lat="43.22322" lon="5.38004">
        <ele>281.323</ele>
        <time>2013-03-29T13:11:31.000Z</time>
      </trkpt>
      <trkpt lat="43.22321" lon="5.37997">
        <ele>279.88086</ele>
        <time>2013-03-29T13:11:33.000Z</time>
      </trkpt>
      <trkpt lat="43.22319" lon="5.37982">
        <ele>278.43896</ele>
        <time>2013-03-29T13:11:38.000Z</time>
      </trkpt>
      <trkpt lat="43.22319" lon="5.37971">
        <ele>277.47766</ele>
        <time>2013-03-29T13:11:41.000Z</time>
      </trkpt>
      <trkpt lat="43.22321" lon="5.37957">
        <ele>276.99707</ele>
        <time>2013-03-29T13:11:46.000Z</time>
      </trkpt>
      <trkpt lat="43.22321" lon="5.37945">
        <ele>276.99707</ele>
        <time>2013-03-29T13:11:50.000Z</time>
      </trkpt>
      <trkpt lat="43.22323" lon="5.37932">
        <ele>276.03564</ele>
        <time>2013-03-29T13:11:54.000Z</time>
      </trkpt>
      <trkpt lat="43.22329" lon="5.37922">
        <ele>277.47766</ele>
        <time>2013-03-29T13:11:58.000Z</time>
      </trkpt>
      <trkpt lat="43.22335" lon="5.37909">
        <ele>277.47766</ele>
        <time>2013-03-29T13:12:02.000Z</time>
      </trkpt>
      <trkpt lat="43.22343" lon="5.37897">
        <ele>276.51636</ele>
        <time>2013-03-29T13:12:07.000Z</time>
      </trkpt>
      <trkpt lat="43.22346" lon="5.37887">
        <ele>276.03564</ele>
        <time>2013-03-29T13:12:11.000Z</time>
      </trkpt>
      <trkpt lat="43.22346" lon="5.37882">
        <ele>275.55505</ele>
        <time>2013-03-29T13:12:14.000Z</time>
      </trkpt>
      <trkpt lat="43.22347" lon="5.37872">
        <ele>275.55505</ele>
        <time>2013-03-29T13:12:20.000Z</time>
      </trkpt>
      <trkpt lat="43.22347" lon="5.37862">
        <ele>274.59375</ele>
        <time>2013-03-29T13:12:24.000Z</time>
      </trkpt>
      <trkpt lat="43.22347" lon="5.37855">
        <ele>273.63245</ele>
        <time>2013-03-29T13:12:27.000Z</time>
      </trkpt>
      <trkpt lat="43.22347" lon="5.37849">
        <ele>274.11304</ele>
        <time>2013-03-29T13:12:30.000Z</time>
      </trkpt>
      <trkpt lat="43.22345" lon="5.37844">
        <ele>274.59375</ele>
        <time>2013-03-29T13:12:37.000Z</time>
      </trkpt>
      <trkpt lat="43.22344" lon="5.37841">
        <ele>279.40027</ele>
        <time>2013-03-29T13:12:53.000Z</time>
      </trkpt>
      <trkpt lat="43.22342" lon="5.3784">
        <ele>279.88086</ele>
        <time>2013-03-29T13:12:59.000Z</time>
      </trkpt>
      <trkpt lat="43.22342" lon="5.3784">
        <ele>279.40027</ele>
        <time>2013-03-29T13:13:05.000Z</time>
      </trkpt>
      <trkpt lat="43.22342" lon="5.3784">
        <ele>279.88086</ele>
        <time>2013-03-29T13:13:27.000Z</time>
      </trkpt>
      <trkpt lat="43.22344" lon="5.37836">
        <ele>280.3617</ele>
        <time>2013-03-29T13:16:43.000Z</time>
      </trkpt>
      <trkpt lat="43.22344" lon="5.37836">
        <ele>279.88086</ele>
        <time>2013-03-29T13:16:44.000Z</time>
      </trkpt>
      <trkpt lat="43.22343" lon="5.37831">
        <ele>280.3617</ele>
        <time>2013-03-29T13:16:48.000Z</time>
      </trkpt>
      <trkpt lat="43.22344" lon="5.3782">
        <ele>281.323</ele>
        <time>2013-03-29T13:16:56.000Z</time>
      </trkpt>
      <trkpt lat="43.22344" lon="5.37817">
        <ele>281.8036</ele>
        <time>2013-03-29T13:16:58.000Z</time>
      </trkpt>
      <trkpt lat="43.22344" lon="5.37813">
        <ele>281.8036</ele>
        <time>2013-03-29T13:17:02.000Z</time>
      </trkpt>
      <trkpt lat="43.22345" lon="5.37808">
        <ele>281.323</ele>
        <time>2013-03-29T13:17:08.000Z</time>
      </trkpt>
      <trkpt lat="43.22346" lon="5.378">
        <ele>281.323</ele>
        <time>2013-03-29T13:17:14.000Z</time>
      </trkpt>
      <trkpt lat="43.22347" lon="5.37793">
        <ele>281.323</ele>
        <time>2013-03-29T13:17:19.000Z</time>
      </trkpt>
      <trkpt lat="43.22347" lon="5.37788">
        <ele>284.2069</ele>
        <time>2013-03-29T13:17:26.000Z</time>
      </trkpt>
      <trkpt lat="43.22348" lon="5.37784">
        <ele>286.12952</ele>
        <time>2013-03-29T13:17:33.000Z</time>
      </trkpt>
      <trkpt lat="43.22347" lon="5.3778">
        <ele>287.5714</ele>
        <time>2013-03-29T13:17:38.000Z</time>
      </trkpt>
      <trkpt lat="43.22347" lon="5.37773">
        <ele>289.97485</ele>
        <time>2013-03-29T13:17:43.000Z</time>
      </trkpt>
      <trkpt lat="43.22346" lon="5.37768">
        <ele>290.93616</ele>
        <time>2013-03-29T13:17:46.000Z</time>
      </trkpt>
      <trkpt lat="43.22345" lon="5.37762">
        <ele>292.85876</ele>
        <time>2013-03-29T13:17:51.000Z</time>
      </trkpt>
      <trkpt lat="43.22344" lon="5.37756">
        <ele>293.33936</ele>
        <time>2013-03-29T13:17:56.000Z</time>
      </trkpt>
      <trkpt lat="43.22346" lon="5.37751">
        <ele>293.82007</ele>
        <time>2013-03-29T13:18:02.000Z</time>
      </trkpt>
      <trkpt lat="43.22345" lon="5.37746">
        <ele>297.1847</ele>
        <time>2013-03-29T13:18:08.000Z</time>
      </trkpt>
      <trkpt lat="43.22345" lon="5.3774">
        <ele>300.06873</ele>
        <time>2013-03-29T13:18:13.000Z</time>
      </trkpt>
      <trkpt lat="43.22343" lon="5.37739">
        <ele>302.47192</ele>
        <time>2013-03-29T13:18:19.000Z</time>
      </trkpt>
      <trkpt lat="43.22342" lon="5.37738">
        <ele>303.91394</ele>
        <time>2013-03-29T13:18:23.000Z</time>
      </trkpt>
      <trkpt lat="43.22343" lon="5.37735">
        <ele>303.43323</ele>
        <time>2013-03-29T13:18:27.000Z</time>
      </trkpt>
      <trkpt lat="43.22343" lon="5.37731">
        <ele>304.39465</ele>
        <time>2013-03-29T13:18:31.000Z</time>
      </trkpt>
      <trkpt lat="43.22343" lon="5.37729">
        <ele>303.91394</ele>
        <time>2013-03-29T13:18:35.000Z</time>
      </trkpt>
      <trkpt lat="43.22341" lon="5.37727">
        <ele>305.83667</ele>
        <time>2013-03-29T13:18:40.000Z</time>
      </trkpt>
      <trkpt lat="43.22341" lon="5.37725">
        <ele>306.31726</ele>
        <time>2013-03-29T13:18:43.000Z</time>
      </trkpt>
      <trkpt lat="43.22341" lon="5.37721">
        <ele>305.83667</ele>
        <time>2013-03-29T13:18:47.000Z</time>
      </trkpt>
      <trkpt lat="43.2234" lon="5.37716">
        <ele>306.79785</ele>
        <time>2013-03-29T13:18:51.000Z</time>
      </trkpt>
      <trkpt lat="43.22341" lon="5.37713">
        <ele>308.23987</ele>
        <time>2013-03-29T13:18:56.000Z</time>
      </trkpt>
      <trkpt lat="43.22341" lon="5.37708">
        <ele>310.16248</ele>
        <time>2013-03-29T13:19:01.000Z</time>
      </trkpt>
      <trkpt lat="43.22345" lon="5.37707">
        <ele>313.0465</ele>
        <time>2013-03-29T13:19:05.000Z</time>
      </trkpt>
      <trkpt lat="43.22347" lon="5.37705">
        <ele>314.0078</ele>
        <time>2013-03-29T13:19:09.000Z</time>
      </trkpt>
      <trkpt lat="43.22349" lon="5.37702">
        <ele>314.4884</ele>
        <time>2013-03-29T13:19:15.000Z</time>
      </trkpt>
      <trkpt lat="43.22351" lon="5.37702">
        <ele>314.96912</ele>
        <time>2013-03-29T13:19:19.000Z</time>
      </trkpt>
      <trkpt lat="43.22352" lon="5.377">
        <ele>315.44983</ele>
        <time>2013-03-29T13:19:23.000Z</time>
      </trkpt>
      <trkpt lat="43.22354" lon="5.37697">
        <ele>315.44983</ele>
        <time>2013-03-29T13:19:27.000Z</time>
      </trkpt>
      <trkpt lat="43.22353" lon="5.37693">
        <ele>316.411</ele>
        <time>2013-03-29T13:19:31.000Z</time>
      </trkpt>
      <trkpt lat="43.22354" lon="5.37689">
        <ele>317.37244</ele>
        <time>2013-03-29T13:19:35.000Z</time>
      </trkpt>
      <trkpt lat="43.22358" lon="5.37686">
        <ele>318.81433</ele>
        <time>2013-03-29T13:19:41.000Z</time>
      </trkpt>
      <trkpt lat="43.2236" lon="5.37687">
        <ele>321.21777</ele>
        <time>2013-03-29T13:19:47.000Z</time>
      </trkpt>
      <trkpt lat="43.22362" lon="5.37681">
        <ele>321.21777</ele>
        <time>2013-03-29T13:19:52.000Z</time>
      </trkpt>
      <trkpt lat="43.22364" lon="5.37675">
        <ele>322.17896</ele>
        <time>2013-03-29T13:19:58.000Z</time>
      </trkpt>
      <trkpt lat="43.22366" lon="5.37672">
        <ele>322.17896</ele>
        <time>2013-03-29T13:20:03.000Z</time>
      </trkpt>
      <trkpt lat="43.22368" lon="5.37668">
        <ele>325.063</ele>
        <time>2013-03-29T13:20:08.000Z</time>
      </trkpt>
      <trkpt lat="43.22373" lon="5.37662">
        <ele>326.9856</ele>
        <time>2013-03-29T13:20:14.000Z</time>
      </trkpt>
      <trkpt lat="43.22377" lon="5.37657">
        <ele>328.90833</ele>
        <time>2013-03-29T13:20:21.000Z</time>
      </trkpt>
      <trkpt lat="43.22383" lon="5.37651">
        <ele>330.35022</ele>
        <time>2013-03-29T13:20:28.000Z</time>
      </trkpt>
      <trkpt lat="43.22385" lon="5.37648">
        <ele>330.83093</ele>
        <time>2013-03-29T13:20:31.000Z</time>
      </trkpt>
      <trkpt lat="43.22391" lon="5.37644">
        <ele>334.19543</ele>
        <time>2013-03-29T13:20:39.000Z</time>
      </trkpt>
      <trkpt lat="43.22394" lon="5.3764">
        <ele>335.63733</ele>
        <time>2013-03-29T13:20:44.000Z</time>
      </trkpt>
      <trkpt lat="43.22399" lon="5.37638">
        <ele>339.00208</ele>
        <time>2013-03-29T13:20:50.000Z</time>
      </trkpt>
      <trkpt lat="43.22402" lon="5.37635">
        <ele>341.40527</ele>
        <time>2013-03-29T13:20:55.000Z</time>
      </trkpt>
      <trkpt lat="43.22403" lon="5.37631">
        <ele>342.3667</ele>
        <time>2013-03-29T13:21:00.000Z</time>
      </trkpt>
      <trkpt lat="43.22404" lon="5.37626">
        <ele>343.32788</ele>
        <time>2013-03-29T13:21:05.000Z</time>
      </trkpt>
      <trkpt lat="43.22403" lon="5.37621">
        <ele>343.8086</ele>
        <time>2013-03-29T13:21:09.000Z</time>
      </trkpt>
      <trkpt lat="43.22406" lon="5.37615">
        <ele>344.77002</ele>
        <time>2013-03-29T13:21:15.000Z</time>
      </trkpt>
      <trkpt lat="43.2241" lon="5.37614">
        <ele>346.69263</ele>
        <time>2013-03-29T13:21:21.000Z</time>
      </trkpt>
      <trkpt lat="43.22414" lon="5.37608">
        <ele>348.13464</ele>
        <time>2013-03-29T13:21:28.000Z</time>
      </trkpt>
      <trkpt lat="43.22414" lon="5.37604">
        <ele>348.61523</ele>
        <time>2013-03-29T13:21:30.000Z</time>
      </trkpt>
      <trkpt lat="43.22418" lon="5.37596">
        <ele>350.05725</ele>
        <time>2013-03-29T13:21:36.000Z</time>
      </trkpt>
      <trkpt lat="43.22418" lon="5.37594">
        <ele>350.05725</ele>
        <time>2013-03-29T13:21:37.000Z</time>
      </trkpt>
      <trkpt lat="43.22418" lon="5.37591">
        <ele>349.57654</ele>
        <time>2013-03-29T13:21:42.000Z</time>
      </trkpt>
      <trkpt lat="43.22417" lon="5.37591">
        <ele>348.61523</ele>
        <time>2013-03-29T13:21:53.000Z</time>
      </trkpt>
      <trkpt lat="43.22418" lon="5.3759">
        <ele>347.17322</ele>
        <time>2013-03-29T13:22:10.000Z</time>
      </trkpt>
      <trkpt lat="43.22419" lon="5.37585">
        <ele>347.65393</ele>
        <time>2013-03-29T13:22:15.000Z</time>
      </trkpt>
      <trkpt lat="43.22422" lon="5.37583">
        <ele>348.13464</ele>
        <time>2013-03-29T13:22:18.000Z</time>
      </trkpt>
      <trkpt lat="43.22423" lon="5.37579">
        <ele>348.61523</ele>
        <time>2013-03-29T13:22:20.000Z</time>
      </trkpt>
      <trkpt lat="43.22426" lon="5.37572">
        <ele>350.05725</ele>
        <time>2013-03-29T13:22:24.000Z</time>
      </trkpt>
      <trkpt lat="43.22429" lon="5.37564">
        <ele>351.97986</ele>
        <time>2013-03-29T13:22:28.000Z</time>
      </trkpt>
      <trkpt lat="43.22433" lon="5.37556">
        <ele>352.94116</ele>
        <time>2013-03-29T13:22:33.000Z</time>
      </trkpt>
      <trkpt lat="43.22437" lon="5.3755">
        <ele>354.38318</ele>
        <time>2013-03-29T13:22:38.000Z</time>
      </trkpt>
      <trkpt lat="43.22442" lon="5.37546">
        <ele>355.34448</ele>
        <time>2013-03-29T13:22:42.000Z</time>
      </trkpt>
      <trkpt lat="43.22443" lon="5.37545">
        <ele>356.3058</ele>
        <time>2013-03-29T13:22:44.000Z</time>
      </trkpt>
      <trkpt lat="43.22445" lon="5.37538">
        <ele>356.78638</ele>
        <time>2013-03-29T13:22:48.000Z</time>
      </trkpt>
      <trkpt lat="43.22446" lon="5.37529">
        <ele>357.2671</ele>
        <time>2013-03-29T13:22:53.000Z</time>
      </trkpt>
      <trkpt lat="43.22447" lon="5.37525">
        <ele>357.2671</ele>
        <time>2013-03-29T13:22:55.000Z</time>
      </trkpt>
      <trkpt lat="43.22449" lon="5.37519">
        <ele>358.2284</ele>
        <time>2013-03-29T13:22:59.000Z</time>
      </trkpt>
      <trkpt lat="43.22453" lon="5.37513">
        <ele>359.6704</ele>
        <time>2013-03-29T13:23:03.000Z</time>
      </trkpt>
      <trkpt lat="43.22454" lon="5.37511">
        <ele>360.6317</ele>
        <time>2013-03-29T13:23:05.000Z</time>
      </trkpt>
      <trkpt lat="43.22458" lon="5.37504">
        <ele>363.99634</ele>
        <time>2013-03-29T13:23:12.000Z</time>
      </trkpt>
      <trkpt lat="43.22459" lon="5.37498">
        <ele>366.39954</ele>
        <time>2013-03-29T13:23:18.000Z</time>
      </trkpt>
      <trkpt lat="43.22461" lon="5.37498">
        <ele>366.39954</ele>
        <time>2013-03-29T13:23:19.000Z</time>
      </trkpt>
      <trkpt lat="43.22465" lon="5.37492">
        <ele>366.88025</ele>
        <time>2013-03-29T13:23:23.000Z</time>
      </trkpt>
      <trkpt lat="43.22464" lon="5.37487">
        <ele>368.80298</ele>
        <time>2013-03-29T13:23:27.000Z</time>
      </trkpt>
      <trkpt lat="43.22469" lon="5.3748">
        <ele>372.6482</ele>
        <time>2013-03-29T13:23:33.000Z</time>
      </trkpt>
      <trkpt lat="43.2247" lon="5.37473">
        <ele>374.0901</ele>
        <time>2013-03-29T13:23:38.000Z</time>
      </trkpt>
      <trkpt lat="43.2247" lon="5.37466">
        <ele>375.0515</ele>
        <time>2013-03-29T13:23:42.000Z</time>
      </trkpt>
      <trkpt lat="43.22468" lon="5.37453">
        <ele>375.5321</ele>
        <time>2013-03-29T13:23:46.000Z</time>
      </trkpt>
      <trkpt lat="43.22465" lon="5.37443">
        <ele>376.01282</ele>
        <time>2013-03-29T13:23:50.000Z</time>
      </trkpt>
      <trkpt lat="43.22463" lon="5.37431">
        <ele>376.49353</ele>
        <time>2013-03-29T13:23:54.000Z</time>
      </trkpt>
      <trkpt lat="43.22462" lon="5.37428">
        <ele>376.49353</ele>
        <time>2013-03-29T13:23:55.000Z</time>
      </trkpt>
      <trkpt lat="43.22458" lon="5.37412">
        <ele>375.0515</ele>
        <time>2013-03-29T13:24:00.000Z</time>
      </trkpt>
      <trkpt lat="43.22458" lon="5.374">
        <ele>373.1289</ele>
        <time>2013-03-29T13:24:04.000Z</time>
      </trkpt>
      <trkpt lat="43.22458" lon="5.37397">
        <ele>372.6482</ele>
        <time>2013-03-29T13:24:09.000Z</time>
      </trkpt>
      <trkpt lat="43.22457" lon="5.37397">
        <ele>370.7256</ele>
        <time>2013-03-29T13:24:20.000Z</time>
      </trkpt>
      <trkpt lat="43.22454" lon="5.37387">
        <ele>369.2837</ele>
        <time>2013-03-29T13:24:27.000Z</time>
      </trkpt>
      <trkpt lat="43.22458" lon="5.37372">
        <ele>368.80298</ele>
        <time>2013-03-29T13:24:31.000Z</time>
      </trkpt>
      <trkpt lat="43.2246" lon="5.37356">
        <ele>367.84155</ele>
        <time>2013-03-29T13:24:36.000Z</time>
      </trkpt>
      <trkpt lat="43.22461" lon="5.3735">
        <ele>367.84155</ele>
        <time>2013-03-29T13:24:40.000Z</time>
      </trkpt>
      <trkpt lat="43.22461" lon="5.37349">
        <ele>368.32227</ele>
        <time>2013-03-29T13:24:41.000Z</time>
      </trkpt>
      <trkpt lat="43.22459" lon="5.37348">
        <ele>369.76428</ele>
        <time>2013-03-29T13:24:45.000Z</time>
      </trkpt>
      <trkpt lat="43.22461" lon="5.37349">
        <ele>369.2837</ele>
        <time>2013-03-29T13:24:50.000Z</time>
      </trkpt>
      <trkpt lat="43.22461" lon="5.37349">
        <ele>368.32227</ele>
        <time>2013-03-29T13:25:00.000Z</time>
      </trkpt>
      <trkpt lat="43.22461" lon="5.37348">
        <ele>367.36096</ele>
        <time>2013-03-29T13:25:07.000Z</time>
      </trkpt>
      <trkpt lat="43.22461" lon="5.37347">
        <ele>366.39954</ele>
        <time>2013-03-29T13:25:19.000Z</time>
      </trkpt>
      <trkpt lat="43.22459" lon="5.37346">
        <ele>367.84155</ele>
        <time>2013-03-29T13:25:24.000Z</time>
      </trkpt>
      <trkpt lat="43.22457" lon="5.37344">
        <ele>369.2837</ele>
        <time>2013-03-29T13:25:28.000Z</time>
      </trkpt>
      <trkpt lat="43.22455" lon="5.37346">
        <ele>371.6869</ele>
        <time>2013-03-29T13:25:32.000Z</time>
      </trkpt>
      <trkpt lat="43.22453" lon="5.37341">
        <ele>373.6095</ele>
        <time>2013-03-29T13:25:38.000Z</time>
      </trkpt>
      <trkpt lat="43.22455" lon="5.37336">
        <ele>374.0901</ele>
        <time>2013-03-29T13:25:42.000Z</time>
      </trkpt>
      <trkpt lat="43.22457" lon="5.37335">
        <ele>374.5708</ele>
        <time>2013-03-29T13:25:43.000Z</time>
      </trkpt>
      <trkpt lat="43.22459" lon="5.3733">
        <ele>376.49353</ele>
        <time>2013-03-29T13:25:47.000Z</time>
      </trkpt>
      <trkpt lat="43.22455" lon="5.37321">
        <ele>378.89685</ele>
        <time>2013-03-29T13:25:53.000Z</time>
      </trkpt>
      <trkpt lat="43.22452" lon="5.37317">
        <ele>380.33875</ele>
        <time>2013-03-29T13:25:56.000Z</time>
      </trkpt>
      <trkpt lat="43.22451" lon="5.37315">
        <ele>382.74207</ele>
        <time>2013-03-29T13:26:02.000Z</time>
      </trkpt>
      <trkpt lat="43.22449" lon="5.37314">
        <ele>384.18408</ele>
        <time>2013-03-29T13:26:06.000Z</time>
      </trkpt>
      <trkpt lat="43.22448" lon="5.3731">
        <ele>384.6648</ele>
        <time>2013-03-29T13:26:10.000Z</time>
      </trkpt>
      <trkpt lat="43.22448" lon="5.37302">
        <ele>387.54858</ele>
        <time>2013-03-29T13:26:18.000Z</time>
      </trkpt>
      <trkpt lat="43.22448" lon="5.373">
        <ele>388.9906</ele>
        <time>2013-03-29T13:26:23.000Z</time>
      </trkpt>
      <trkpt lat="43.22448" lon="5.37296">
        <ele>390.9132</ele>
        <time>2013-03-29T13:26:30.000Z</time>
      </trkpt>
      <trkpt lat="43.22449" lon="5.37294">
        <ele>391.3938</ele>
        <time>2013-03-29T13:26:35.000Z</time>
      </trkpt>
      <trkpt lat="43.22448" lon="5.37287">
        <ele>392.83594</ele>
        <time>2013-03-29T13:26:41.000Z</time>
      </trkpt>
      <trkpt lat="43.22445" lon="5.37288">
        <ele>395.71985</ele>
        <time>2013-03-29T13:26:46.000Z</time>
      </trkpt>
      <trkpt lat="43.2244" lon="5.37286">
        <ele>398.12317</ele>
        <time>2013-03-29T13:26:51.000Z</time>
      </trkpt>
      <trkpt lat="43.22437" lon="5.37285">
        <ele>401.00708</ele>
        <time>2013-03-29T13:26:57.000Z</time>
      </trkpt>
      <trkpt lat="43.22436" lon="5.37288">
        <ele>401.4878</ele>
        <time>2013-03-29T13:27:00.000Z</time>
      </trkpt>
      <trkpt lat="43.22435" lon="5.3729">
        <ele>402.9297</ele>
        <time>2013-03-29T13:27:04.000Z</time>
      </trkpt>
      <trkpt lat="43.22431" lon="5.37286">
        <ele>405.81372</ele>
        <time>2013-03-29T13:27:09.000Z</time>
      </trkpt>
      <trkpt lat="43.22428" lon="5.37285">
        <ele>406.2943</ele>
        <time>2013-03-29T13:27:14.000Z</time>
      </trkpt>
      <trkpt lat="43.22427" lon="5.37288">
        <ele>406.7749</ele>
        <time>2013-03-29T13:27:17.000Z</time>
      </trkpt>
      <trkpt lat="43.22424" lon="5.37292">
        <ele>407.73633</ele>
        <time>2013-03-29T13:27:23.000Z</time>
      </trkpt>
      <trkpt lat="43.22421" lon="5.37292">
        <ele>408.69763</ele>
        <time>2013-03-29T13:27:29.000Z</time>
      </trkpt>
      <trkpt lat="43.22419" lon="5.37302">
        <ele>410.62024</ele>
        <time>2013-03-29T13:27:36.000Z</time>
      </trkpt>
      <trkpt lat="43.22418" lon="5.37299">
        <ele>411.10095</ele>
        <time>2013-03-29T13:27:39.000Z</time>
      </trkpt>
      <trkpt lat="43.22416" lon="5.37302">
        <ele>411.58167</ele>
        <time>2013-03-29T13:27:45.000Z</time>
      </trkpt>
      <trkpt lat="43.22412" lon="5.37306">
        <ele>413.02356</ele>
        <time>2013-03-29T13:27:50.000Z</time>
      </trkpt>
      <trkpt lat="43.2241" lon="5.37302">
        <ele>414.94617</ele>
        <time>2013-03-29T13:27:55.000Z</time>
      </trkpt>
      <trkpt lat="43.22408" lon="5.37303">
        <ele>416.8689</ele>
        <time>2013-03-29T13:28:00.000Z</time>
      </trkpt>
      <trkpt lat="43.22407" lon="5.37301">
        <ele>417.8302</ele>
        <time>2013-03-29T13:28:04.000Z</time>
      </trkpt>
      <trkpt lat="43.22405" lon="5.37299">
        <ele>418.7915</ele>
        <time>2013-03-29T13:28:16.000Z</time>
      </trkpt>
      <trkpt lat="43.224" lon="5.37297">
        <ele>419.27222</ele>
        <time>2013-03-29T13:28:21.000Z</time>
      </trkpt>
      <trkpt lat="43.22394" lon="5.3729">
        <ele>420.2334</ele>
        <time>2013-03-29T13:28:27.000Z</time>
      </trkpt>
      <trkpt lat="43.22391" lon="5.37287">
        <ele>419.7528</ele>
        <time>2013-03-29T13:28:30.000Z</time>
      </trkpt>
      <trkpt lat="43.22386" lon="5.37284">
        <ele>419.27222</ele>
        <time>2013-03-29T13:28:34.000Z</time>
      </trkpt>
      <trkpt lat="43.22385" lon="5.37284">
        <ele>419.27222</ele>
        <time>2013-03-29T13:28:35.000Z</time>
      </trkpt>
      <trkpt lat="43.22382" lon="5.37283">
        <ele>419.7528</ele>
        <time>2013-03-29T13:28:37.000Z</time>
      </trkpt>
      <trkpt lat="43.2237" lon="5.37278">
        <ele>420.7141</ele>
        <time>2013-03-29T13:28:44.000Z</time>
      </trkpt>
      <trkpt lat="43.22363" lon="5.37269">
        <ele>422.63672</ele>
        <time>2013-03-29T13:28:49.000Z</time>
      </trkpt>
      <trkpt lat="43.22358" lon="5.37258">
        <ele>423.11743</ele>
        <time>2013-03-29T13:28:54.000Z</time>
      </trkpt>
      <trkpt lat="43.22353" lon="5.37253">
        <ele>424.07874</ele>
        <time>2013-03-29T13:28:57.000Z</time>
      </trkpt>
      <trkpt lat="43.22348" lon="5.3725">
        <ele>424.55945</ele>
        <time>2013-03-29T13:29:00.000Z</time>
      </trkpt>
      <trkpt lat="43.22345" lon="5.3725">
        <ele>425.04016</ele>
        <time>2013-03-29T13:29:03.000Z</time>
      </trkpt>
      <trkpt lat="43.22344" lon="5.37247">
        <ele>427.44336</ele>
        <time>2013-03-29T13:29:09.000Z</time>
      </trkpt>
      <trkpt lat="43.22342" lon="5.37244">
        <ele>429.36597</ele>
        <time>2013-03-29T13:29:13.000Z</time>
      </trkpt>
      <trkpt lat="43.22342" lon="5.37235">
        <ele>429.36597</ele>
        <time>2013-03-29T13:29:18.000Z</time>
      </trkpt>
      <trkpt lat="43.22341" lon="5.3722">
        <ele>430.32727</ele>
        <time>2013-03-29T13:29:24.000Z</time>
      </trkpt>
      <trkpt lat="43.22339" lon="5.37217">
        <ele>431.28857</ele>
        <time>2013-03-29T13:29:26.000Z</time>
      </trkpt>
      <trkpt lat="43.22338" lon="5.37214">
        <ele>431.76917</ele>
        <time>2013-03-29T13:29:28.000Z</time>
      </trkpt>
      <trkpt lat="43.22334" lon="5.37206">
        <ele>432.7307</ele>
        <time>2013-03-29T13:29:32.000Z</time>
      </trkpt>
      <trkpt lat="43.22333" lon="5.37201">
        <ele>433.6919</ele>
        <time>2013-03-29T13:29:34.000Z</time>
      </trkpt>
      <trkpt lat="43.22329" lon="5.37194">
        <ele>434.65332</ele>
        <time>2013-03-29T13:29:39.000Z</time>
      </trkpt>
      <trkpt lat="43.2233" lon="5.37197">
        <ele>437.05652</ele>
        <time>2013-03-29T13:34:19.000Z</time>
      </trkpt>
      <trkpt lat="43.2233" lon="5.37198">
        <ele>436.57593</ele>
        <time>2013-03-29T13:34:20.000Z</time>
      </trkpt>
      <trkpt lat="43.22332" lon="5.37201">
        <ele>435.1339</ele>
        <time>2013-03-29T13:34:21.000Z</time>
      </trkpt>
      <trkpt lat="43.22335" lon="5.37211">
        <ele>435.6145</ele>
        <time>2013-03-29T13:34:25.000Z</time>
      </trkpt>
      <trkpt lat="43.22338" lon="5.37214">
        <ele>434.65332</ele>
        <time>2013-03-29T13:34:29.000Z</time>
      </trkpt>
      <trkpt lat="43.22341" lon="5.37218">
        <ele>433.2113</ele>
        <time>2013-03-29T13:34:33.000Z</time>
      </trkpt>
      <trkpt lat="43.22341" lon="5.37228">
        <ele>432.7307</ele>
        <time>2013-03-29T13:34:36.000Z</time>
      </trkpt>
      <trkpt lat="43.22341" lon="5.37236">
        <ele>432.25</ele>
        <time>2013-03-29T13:34:39.000Z</time>
      </trkpt>
      <trkpt lat="43.22343" lon="5.37242">
        <ele>428.88538</ele>
        <time>2013-03-29T13:34:45.000Z</time>
      </trkpt>
      <trkpt lat="43.22343" lon="5.37243">
        <ele>427.92395</ele>
        <time>2013-03-29T13:34:46.000Z</time>
      </trkpt>
      <trkpt lat="43.22343" lon="5.37246">
        <ele>426.48206</ele>
        <time>2013-03-29T13:34:52.000Z</time>
      </trkpt>
      <trkpt lat="43.22342" lon="5.37249">
        <ele>426.00134</ele>
        <time>2013-03-29T13:34:56.000Z</time>
      </trkpt>
      <trkpt lat="43.22343" lon="5.3725">
        <ele>426.00134</ele>
        <time>2013-03-29T13:35:00.000Z</time>
      </trkpt>
      <trkpt lat="43.22345" lon="5.3725">
        <ele>425.04016</ele>
        <time>2013-03-29T13:35:02.000Z</time>
      </trkpt>
      <trkpt lat="43.22353" lon="5.37256">
        <ele>424.07874</ele>
        <time>2013-03-29T13:35:07.000Z</time>
      </trkpt>
      <trkpt lat="43.22357" lon="5.37262">
        <ele>423.11743</ele>
        <time>2013-03-29T13:35:12.000Z</time>
      </trkpt>
      <trkpt lat="43.22359" lon="5.37268">
        <ele>422.156</ele>
        <time>2013-03-29T13:35:14.000Z</time>
      </trkpt>
      <trkpt lat="43.22365" lon="5.37276">
        <ele>421.19482</ele>
        <time>2013-03-29T13:35:19.000Z</time>
      </trkpt>
      <trkpt lat="43.22369" lon="5.37279">
        <ele>420.7141</ele>
        <time>2013-03-29T13:35:21.000Z</time>
      </trkpt>
      <trkpt lat="43.22379" lon="5.37281">
        <ele>419.7528</ele>
        <time>2013-03-29T13:35:27.000Z</time>
      </trkpt>
      <trkpt lat="43.22383" lon="5.37282">
        <ele>419.7528</ele>
        <time>2013-03-29T13:35:29.000Z</time>
      </trkpt>
      <trkpt lat="43.22397" lon="5.37286">
        <ele>419.27222</ele>
        <time>2013-03-29T13:35:35.000Z</time>
      </trkpt>
      <trkpt lat="43.22408" lon="5.37295">
        <ele>417.8302</ele>
        <time>2013-03-29T13:35:41.000Z</time>
      </trkpt>
      <trkpt lat="43.2241" lon="5.37303">
        <ele>416.8689</ele>
        <time>2013-03-29T13:35:46.000Z</time>
      </trkpt>
      <trkpt lat="43.22412" lon="5.37308">
        <ele>414.46545</ele>
        <time>2013-03-29T13:35:51.000Z</time>
      </trkpt>
      <trkpt lat="43.22415" lon="5.37305">
        <ele>411.58167</ele>
        <time>2013-03-29T13:35:56.000Z</time>
      </trkpt>
      <trkpt lat="43.22418" lon="5.37302">
        <ele>409.65906</ele>
        <time>2013-03-29T13:36:01.000Z</time>
      </trkpt>
      <trkpt lat="43.22419" lon="5.37298">
        <ele>407.73633</ele>
        <time>2013-03-29T13:36:05.000Z</time>
      </trkpt>
      <trkpt lat="43.2242" lon="5.37297">
        <ele>407.73633</ele>
        <time>2013-03-29T13:36:06.000Z</time>
      </trkpt>
      <trkpt lat="43.22423" lon="5.37296">
        <ele>405.333</ele>
        <time>2013-03-29T13:36:11.000Z</time>
      </trkpt>
      <trkpt lat="43.22425" lon="5.37289">
        <ele>402.4491</ele>
        <time>2013-03-29T13:36:16.000Z</time>
      </trkpt>
      <trkpt lat="43.22426" lon="5.37287">
        <ele>401.4878</ele>
        <time>2013-03-29T13:36:18.000Z</time>
      </trkpt>
      <trkpt lat="43.22433" lon="5.37293">
        <ele>399.56506</ele>
        <time>2013-03-29T13:36:25.000Z</time>
      </trkpt>
      <trkpt lat="43.22433" lon="5.37291">
        <ele>399.08435</ele>
        <time>2013-03-29T13:36:27.000Z</time>
      </trkpt>
      <trkpt lat="43.22434" lon="5.37288">
        <ele>397.64246</ele>
        <time>2013-03-29T13:36:29.000Z</time>
      </trkpt>
      <trkpt lat="43.22438" lon="5.3729">
        <ele>392.35535</ele>
        <time>2013-03-29T13:36:33.000Z</time>
      </trkpt>
      <trkpt lat="43.22441" lon="5.37291">
        <ele>390.9132</ele>
        <time>2013-03-29T13:36:35.000Z</time>
      </trkpt>
      <trkpt lat="43.22444" lon="5.37289">
        <ele>389.9519</ele>
        <time>2013-03-29T13:36:40.000Z</time>
      </trkpt>
      <trkpt lat="43.22446" lon="5.37287">
        <ele>387.068</ele>
        <time>2013-03-29T13:36:44.000Z</time>
      </trkpt>
      <trkpt lat="43.22447" lon="5.37293">
        <ele>383.70325</ele>
        <time>2013-03-29T13:36:49.000Z</time>
      </trkpt>
      <trkpt lat="43.22446" lon="5.37295">
        <ele>380.81946</ele>
        <time>2013-03-29T13:36:55.000Z</time>
      </trkpt>
      <trkpt lat="43.22446" lon="5.37297">
        <ele>378.89685</ele>
        <time>2013-03-29T13:36:59.000Z</time>
      </trkpt>
      <trkpt lat="43.22445" lon="5.37301">
        <ele>378.41614</ele>
        <time>2013-03-29T13:37:04.000Z</time>
      </trkpt>
      <trkpt lat="43.22447" lon="5.37305">
        <ele>378.41614</ele>
        <time>2013-03-29T13:37:07.000Z</time>
      </trkpt>
      <trkpt lat="43.22446" lon="5.37312">
        <ele>377.45483</ele>
        <time>2013-03-29T13:37:13.000Z</time>
      </trkpt>
      <trkpt lat="43.22447" lon="5.37314">
        <ele>376.97424</ele>
        <time>2013-03-29T13:37:17.000Z</time>
      </trkpt>
      <trkpt lat="43.2245" lon="5.37318">
        <ele>376.01282</ele>
        <time>2013-03-29T13:37:22.000Z</time>
      </trkpt>
      <trkpt lat="43.22453" lon="5.37324">
        <ele>374.0901</ele>
        <time>2013-03-29T13:37:26.000Z</time>
      </trkpt>
      <trkpt lat="43.22458" lon="5.37334">
        <ele>373.1289</ele>
        <time>2013-03-29T13:37:32.000Z</time>
      </trkpt>
      <trkpt lat="43.22455" lon="5.37337">
        <ele>372.6482</ele>
        <time>2013-03-29T13:37:34.000Z</time>
      </trkpt>
      <trkpt lat="43.22454" lon="5.37339">
        <ele>374.5708</ele>
        <time>2013-03-29T13:37:44.000Z</time>
      </trkpt>
      <trkpt lat="43.22454" lon="5.37338">
        <ele>375.0515</ele>
        <time>2013-03-29T13:37:49.000Z</time>
      </trkpt>
      <trkpt lat="43.22454" lon="5.37339">
        <ele>375.5321</ele>
        <time>2013-03-29T13:37:54.000Z</time>
      </trkpt>
      <trkpt lat="43.22452" lon="5.37346">
        <ele>374.5708</ele>
        <time>2013-03-29T13:37:58.000Z</time>
      </trkpt>
      <trkpt lat="43.22452" lon="5.37349">
        <ele>375.0515</ele>
        <time>2013-03-29T13:37:59.000Z</time>
      </trkpt>
      <trkpt lat="43.2245" lon="5.37354">
        <ele>375.5321</ele>
        <time>2013-03-29T13:38:04.000Z</time>
      </trkpt>
      <trkpt lat="43.22448" lon="5.37358">
        <ele>374.0901</ele>
        <time>2013-03-29T13:38:11.000Z</time>
      </trkpt>
      <trkpt lat="43.22448" lon="5.37362">
        <ele>372.16748</ele>
        <time>2013-03-29T13:38:15.000Z</time>
      </trkpt>
      <trkpt lat="43.22448" lon="5.37368">
        <ele>370.24487</ele>
        <time>2013-03-29T13:38:19.000Z</time>
      </trkpt>
      <trkpt lat="43.2245" lon="5.37371">
        <ele>369.76428</ele>
        <time>2013-03-29T13:38:21.000Z</time>
      </trkpt>
      <trkpt lat="43.22453" lon="5.37382">
        <ele>364.95764</ele>
        <time>2013-03-29T13:38:26.000Z</time>
      </trkpt>
      <trkpt lat="43.22454" lon="5.37386">
        <ele>362.55432</ele>
        <time>2013-03-29T13:38:29.000Z</time>
      </trkpt>
      <trkpt lat="43.22459" lon="5.37375">
        <ele>359.6704</ele>
        <time>2013-03-29T13:38:33.000Z</time>
      </trkpt>
      <trkpt lat="43.22462" lon="5.37358">
        <ele>357.7478</ele>
        <time>2013-03-29T13:38:37.000Z</time>
      </trkpt>
      <trkpt lat="43.22463" lon="5.37349">
        <ele>357.2671</ele>
        <time>2013-03-29T13:38:41.000Z</time>
      </trkpt>
      <trkpt lat="43.22466" lon="5.37346">
        <ele>356.78638</ele>
        <time>2013-03-29T13:38:48.000Z</time>
      </trkpt>
      <trkpt lat="43.22469" lon="5.37343">
        <ele>355.8252</ele>
        <time>2013-03-29T13:38:53.000Z</time>
      </trkpt>
      <trkpt lat="43.22471" lon="5.37344">
        <ele>352.94116</ele>
        <time>2013-03-29T13:38:57.000Z</time>
      </trkpt>
      <trkpt lat="43.22476" lon="5.3734">
        <ele>351.97986</ele>
        <time>2013-03-29T13:39:02.000Z</time>
      </trkpt>
      <trkpt lat="43.22477" lon="5.37341">
        <ele>351.97986</ele>
        <time>2013-03-29T13:39:03.000Z</time>
      </trkpt>
      <trkpt lat="43.22479" lon="5.37346">
        <ele>350.05725</ele>
        <time>2013-03-29T13:39:07.000Z</time>
      </trkpt>
      <trkpt lat="43.22484" lon="5.37355">
        <ele>347.65393</ele>
        <time>2013-03-29T13:39:12.000Z</time>
      </trkpt>
      <trkpt lat="43.22485" lon="5.3736">
        <ele>347.17322</ele>
        <time>2013-03-29T13:39:14.000Z</time>
      </trkpt>
      <trkpt lat="43.22491" lon="5.37371">
        <ele>345.2506</ele>
        <time>2013-03-29T13:39:19.000Z</time>
      </trkpt>
      <trkpt lat="43.22491" lon="5.37383">
        <ele>340.92468</ele>
        <time>2013-03-29T13:39:25.000Z</time>
      </trkpt>
      <trkpt lat="43.22491" lon="5.37386">
        <ele>340.4441</ele>
        <time>2013-03-29T13:39:27.000Z</time>
      </trkpt>
      <trkpt lat="43.22498" lon="5.37396">
        <ele>338.04077</ele>
        <time>2013-03-29T13:39:34.000Z</time>
      </trkpt>
      <trkpt lat="43.22498" lon="5.37399">
        <ele>338.52148</ele>
        <time>2013-03-29T13:39:38.000Z</time>
      </trkpt>
      <trkpt lat="43.22499" lon="5.374">
        <ele>339.00208</ele>
        <time>2013-03-29T13:39:39.000Z</time>
      </trkpt>
      <trkpt lat="43.22505" lon="5.37398">
        <ele>336.59888</ele>
        <time>2013-03-29T13:39:45.000Z</time>
      </trkpt>
      <trkpt lat="43.22505" lon="5.37395">
        <ele>335.63733</ele>
        <time>2013-03-29T13:39:48.000Z</time>
      </trkpt>
      <trkpt lat="43.22505" lon="5.37388">
        <ele>334.19543</ele>
        <time>2013-03-29T13:39:54.000Z</time>
      </trkpt>
      <trkpt lat="43.22508" lon="5.37387">
        <ele>332.75354</ele>
        <time>2013-03-29T13:39:58.000Z</time>
      </trkpt>
      <trkpt lat="43.2251" lon="5.37389">
        <ele>331.7921</ele>
        <time>2013-03-29T13:40:07.000Z</time>
      </trkpt>
      <trkpt lat="43.22512" lon="5.3739">
        <ele>330.83093</ele>
        <time>2013-03-29T13:40:11.000Z</time>
      </trkpt>
      <trkpt lat="43.22514" lon="5.37393">
        <ele>326.50488</ele>
        <time>2013-03-29T13:40:16.000Z</time>
      </trkpt>
      <trkpt lat="43.22515" lon="5.374">
        <ele>326.50488</ele>
        <time>2013-03-29T13:40:19.000Z</time>
      </trkpt>
      <trkpt lat="43.22517" lon="5.37402">
        <ele>325.063</ele>
        <time>2013-03-29T13:40:21.000Z</time>
      </trkpt>
      <trkpt lat="43.22521" lon="5.37399">
        <ele>322.65967</ele>
        <time>2013-03-29T13:40:26.000Z</time>
      </trkpt>
      <trkpt lat="43.22524" lon="5.37401">
        <ele>320.73706</ele>
        <time>2013-03-29T13:40:30.000Z</time>
      </trkpt>
      <trkpt lat="43.22526" lon="5.37398">
        <ele>318.81433</ele>
        <time>2013-03-29T13:40:33.000Z</time>
      </trkpt>
      <trkpt lat="43.22528" lon="5.37394">
        <ele>316.89172</ele>
        <time>2013-03-29T13:40:36.000Z</time>
      </trkpt>
      <trkpt lat="43.22534" lon="5.37393">
        <ele>315.44983</ele>
        <time>2013-03-29T13:40:41.000Z</time>
      </trkpt>
      <trkpt lat="43.22539" lon="5.37388">
        <ele>314.4884</ele>
        <time>2013-03-29T13:40:45.000Z</time>
      </trkpt>
      <trkpt lat="43.22543" lon="5.3739">
        <ele>310.64307</ele>
        <time>2013-03-29T13:40:49.000Z</time>
      </trkpt>
      <trkpt lat="43.22543" lon="5.37394">
        <ele>309.20117</ele>
        <time>2013-03-29T13:40:55.000Z</time>
      </trkpt>
      <trkpt lat="43.22542" lon="5.37398">
        <ele>308.23987</ele>
        <time>2013-03-29T13:40:59.000Z</time>
      </trkpt>
      <trkpt lat="43.22545" lon="5.37399">
        <ele>308.23987</ele>
        <time>2013-03-29T13:41:03.000Z</time>
      </trkpt>
      <trkpt lat="43.22546" lon="5.37403">
        <ele>307.75928</ele>
        <time>2013-03-29T13:41:07.000Z</time>
      </trkpt>
      <trkpt lat="43.22547" lon="5.37408">
        <ele>304.87524</ele>
        <time>2013-03-29T13:41:11.000Z</time>
      </trkpt>
      <trkpt lat="43.22548" lon="5.3741">
        <ele>303.91394</ele>
        <time>2013-03-29T13:41:14.000Z</time>
      </trkpt>
      <trkpt lat="43.22552" lon="5.37411">
        <ele>303.91394</ele>
        <time>2013-03-29T13:41:18.000Z</time>
      </trkpt>
      <trkpt lat="43.22553" lon="5.37415">
        <ele>301.51062</ele>
        <time>2013-03-29T13:41:23.000Z</time>
      </trkpt>
      <trkpt lat="43.22555" lon="5.37418">
        <ele>299.588</ele>
        <time>2013-03-29T13:41:26.000Z</time>
      </trkpt>
      <trkpt lat="43.22556" lon="5.3742">
        <ele>299.1073</ele>
        <time>2013-03-29T13:41:27.000Z</time>
      </trkpt>
      <trkpt lat="43.22556" lon="5.37425">
        <ele>297.1847</ele>
        <time>2013-03-29T13:41:30.000Z</time>
      </trkpt>
      <trkpt lat="43.22557" lon="5.37424">
        <ele>296.2235</ele>
        <time>2013-03-29T13:41:35.000Z</time>
      </trkpt>
      <trkpt lat="43.22557" lon="5.37419">
        <ele>294.78137</ele>
        <time>2013-03-29T13:41:40.000Z</time>
      </trkpt>
      <trkpt lat="43.22558" lon="5.37419">
        <ele>296.2235</ele>
        <time>2013-03-29T13:41:46.000Z</time>
      </trkpt>
      <trkpt lat="43.22558" lon="5.37418">
        <ele>295.74268</ele>
        <time>2013-03-29T13:41:56.000Z</time>
      </trkpt>
      <trkpt lat="43.22559" lon="5.37418">
        <ele>296.7041</ele>
        <time>2013-03-29T13:42:01.000Z</time>
      </trkpt>
      <trkpt lat="43.22559" lon="5.3742">
        <ele>296.7041</ele>
        <time>2013-03-29T13:42:04.000Z</time>
      </trkpt>
      <trkpt lat="43.22565" lon="5.37435">
        <ele>296.7041</ele>
        <time>2013-03-29T13:42:09.000Z</time>
      </trkpt>
      <trkpt lat="43.22565" lon="5.37439">
        <ele>297.1847</ele>
        <time>2013-03-29T13:42:10.000Z</time>
      </trkpt>
      <trkpt lat="43.22565" lon="5.37447">
        <ele>298.6267</ele>
        <time>2013-03-29T13:42:13.000Z</time>
      </trkpt>
      <trkpt lat="43.22562" lon="5.37454">
        <ele>300.54932</ele>
        <time>2013-03-29T13:42:17.000Z</time>
      </trkpt>
      <trkpt lat="43.22557" lon="5.37464">
        <ele>301.51062</ele>
        <time>2013-03-29T13:42:22.000Z</time>
      </trkpt>
      <trkpt lat="43.22557" lon="5.37465">
        <ele>302.9525</ele>
        <time>2013-03-29T13:42:29.000Z</time>
      </trkpt>
      <trkpt lat="43.22553" lon="5.3747">
        <ele>305.35596</ele>
        <time>2013-03-29T13:42:52.000Z</time>
      </trkpt>
      <trkpt lat="43.22552" lon="5.37471">
        <ele>305.35596</ele>
        <time>2013-03-29T13:42:53.000Z</time>
      </trkpt>
      <trkpt lat="43.22545" lon="5.37479">
        <ele>304.87524</ele>
        <time>2013-03-29T13:42:58.000Z</time>
      </trkpt>
      <trkpt lat="43.22539" lon="5.37483">
        <ele>304.87524</ele>
        <time>2013-03-29T13:43:01.000Z</time>
      </trkpt>
      <trkpt lat="43.22537" lon="5.37494">
        <ele>306.31726</ele>
        <time>2013-03-29T13:43:04.000Z</time>
      </trkpt>
      <trkpt lat="43.22533" lon="5.37502">
        <ele>307.75928</ele>
        <time>2013-03-29T13:43:08.000Z</time>
      </trkpt>
      <trkpt lat="43.22532" lon="5.37505">
        <ele>307.27856</ele>
        <time>2013-03-29T13:43:12.000Z</time>
      </trkpt>
      <trkpt lat="43.22532" lon="5.37505">
        <ele>306.31726</ele>
        <time>2013-03-29T13:43:21.000Z</time>
      </trkpt>
      <trkpt lat="43.2253" lon="5.3751">
        <ele>303.91394</ele>
        <time>2013-03-29T13:43:26.000Z</time>
      </trkpt>
      <trkpt lat="43.22528" lon="5.37516">
        <ele>302.47192</ele>
        <time>2013-03-29T13:43:29.000Z</time>
      </trkpt>
      <trkpt lat="43.22523" lon="5.37521">
        <ele>298.14612</ele>
        <time>2013-03-29T13:43:34.000Z</time>
      </trkpt>
      <trkpt lat="43.22521" lon="5.37523">
        <ele>296.2235</ele>
        <time>2013-03-29T13:43:36.000Z</time>
      </trkpt>
      <trkpt lat="43.22519" lon="5.37524">
        <ele>295.26196</ele>
        <time>2013-03-29T13:43:38.000Z</time>
      </trkpt>
      <trkpt lat="43.22516" lon="5.37526">
        <ele>293.82007</ele>
        <time>2013-03-29T13:43:40.000Z</time>
      </trkpt>
      <trkpt lat="43.22508" lon="5.37534">
        <ele>289.49414</ele>
        <time>2013-03-29T13:43:45.000Z</time>
      </trkpt>
      <trkpt lat="43.22504" lon="5.37544">
        <ele>286.61023</ele>
        <time>2013-03-29T13:43:49.000Z</time>
      </trkpt>
      <trkpt lat="43.22503" lon="5.37547">
        <ele>286.12952</ele>
        <time>2013-03-29T13:43:50.000Z</time>
      </trkpt>
      <trkpt lat="43.22501" lon="5.37553">
        <ele>285.6488</ele>
        <time>2013-03-29T13:43:52.000Z</time>
      </trkpt>
      <trkpt lat="43.22501" lon="5.37559">
        <ele>287.09082</ele>
        <time>2013-03-29T13:43:55.000Z</time>
      </trkpt>
      <trkpt lat="43.22498" lon="5.37569">
        <ele>286.61023</ele>
        <time>2013-03-29T13:44:01.000Z</time>
      </trkpt>
      <trkpt lat="43.22496" lon="5.37572">
        <ele>285.6488</ele>
        <time>2013-03-29T13:44:05.000Z</time>
      </trkpt>
      <trkpt lat="43.22492" lon="5.37577">
        <ele>284.68762</ele>
        <time>2013-03-29T13:44:10.000Z</time>
      </trkpt>
      <trkpt lat="43.22485" lon="5.37583">
        <ele>280.3617</ele>
        <time>2013-03-29T13:44:16.000Z</time>
      </trkpt>
      <trkpt lat="43.22479" lon="5.37596">
        <ele>280.3617</ele>
        <time>2013-03-29T13:44:20.000Z</time>
      </trkpt>
      <trkpt lat="43.22477" lon="5.37601">
        <ele>280.8424</ele>
        <time>2013-03-29T13:44:22.000Z</time>
      </trkpt>
      <trkpt lat="43.22477" lon="5.37614">
        <ele>283.2456</ele>
        <time>2013-03-29T13:44:27.000Z</time>
      </trkpt>
      <trkpt lat="43.22478" lon="5.37617">
        <ele>284.68762</ele>
        <time>2013-03-29T13:44:29.000Z</time>
      </trkpt>
      <trkpt lat="43.22478" lon="5.37625">
        <ele>287.09082</ele>
        <time>2013-03-29T13:44:34.000Z</time>
      </trkpt>
      <trkpt lat="43.22474" lon="5.37637">
        <ele>289.01355</ele>
        <time>2013-03-29T13:44:38.000Z</time>
      </trkpt>
      <trkpt lat="43.22475" lon="5.37643">
        <ele>289.97485</ele>
        <time>2013-03-29T13:44:41.000Z</time>
      </trkpt>
      <trkpt lat="43.22474" lon="5.37648">
        <ele>291.41675</ele>
        <time>2013-03-29T13:44:45.000Z</time>
      </trkpt>
      <trkpt lat="43.22472" lon="5.37653">
        <ele>291.41675</ele>
        <time>2013-03-29T13:44:47.000Z</time>
      </trkpt>
      <trkpt lat="43.22468" lon="5.37663">
        <ele>291.89746</ele>
        <time>2013-03-29T13:44:50.000Z</time>
      </trkpt>
      <trkpt lat="43.22464" lon="5.3767">
        <ele>292.37817</ele>
        <time>2013-03-29T13:44:55.000Z</time>
      </trkpt>
      <trkpt lat="43.22464" lon="5.37673">
        <ele>292.37817</ele>
        <time>2013-03-29T13:44:56.000Z</time>
      </trkpt>
      <trkpt lat="43.2246" lon="5.37682">
        <ele>292.85876</ele>
        <time>2013-03-29T13:45:03.000Z</time>
      </trkpt>
      <trkpt lat="43.22454" lon="5.37696">
        <ele>291.89746</ele>
        <time>2013-03-29T13:45:09.000Z</time>
      </trkpt>
      <trkpt lat="43.2245" lon="5.37711">
        <ele>289.49414</ele>
        <time>2013-03-29T13:45:14.000Z</time>
      </trkpt>
      <trkpt lat="43.22445" lon="5.37723">
        <ele>289.49414</ele>
        <time>2013-03-29T13:45:18.000Z</time>
      </trkpt>
      <trkpt lat="43.22442" lon="5.37733">
        <ele>290.45557</ele>
        <time>2013-03-29T13:45:23.000Z</time>
      </trkpt>
      <trkpt lat="43.22441" lon="5.37738">
        <ele>290.45557</ele>
        <time>2013-03-29T13:45:27.000Z</time>
      </trkpt>
      <trkpt lat="43.22439" lon="5.37742">
        <ele>289.01355</ele>
        <time>2013-03-29T13:45:32.000Z</time>
      </trkpt>
      <trkpt lat="43.22432" lon="5.37748">
        <ele>285.6488</ele>
        <time>2013-03-29T13:45:38.000Z</time>
      </trkpt>
      <trkpt lat="43.22429" lon="5.37753">
        <ele>283.7262</ele>
        <time>2013-03-29T13:45:43.000Z</time>
      </trkpt>
      <trkpt lat="43.22432" lon="5.37754">
        <ele>283.2456</ele>
        <time>2013-03-29T13:45:49.000Z</time>
      </trkpt>
      <trkpt lat="43.22437" lon="5.37757">
        <ele>282.2843</ele>
        <time>2013-03-29T13:45:54.000Z</time>
      </trkpt>
      <trkpt lat="43.22438" lon="5.37762">
        <ele>281.323</ele>
        <time>2013-03-29T13:45:58.000Z</time>
      </trkpt>
      <trkpt lat="43.22438" lon="5.37765">
        <ele>279.88086</ele>
        <time>2013-03-29T13:46:00.000Z</time>
      </trkpt>
      <trkpt lat="43.22436" lon="5.37774">
        <ele>277.47766</ele>
        <time>2013-03-29T13:46:05.000Z</time>
      </trkpt>
      <trkpt lat="43.22438" lon="5.37784">
        <ele>275.07446</ele>
        <time>2013-03-29T13:46:11.000Z</time>
      </trkpt>
      <trkpt lat="43.2243" lon="5.37784">
        <ele>272.67114</ele>
        <time>2013-03-29T13:46:15.000Z</time>
      </trkpt>
      <trkpt lat="43.22427" lon="5.37783">
        <ele>271.70972</ele>
        <time>2013-03-29T13:46:17.000Z</time>
      </trkpt>
      <trkpt lat="43.22425" lon="5.37785">
        <ele>269.7871</ele>
        <time>2013-03-29T13:46:22.000Z</time>
      </trkpt>
      <trkpt lat="43.22418" lon="5.37785">
        <ele>267.3839</ele>
        <time>2013-03-29T13:46:28.000Z</time>
      </trkpt>
      <trkpt lat="43.22411" lon="5.37781">
        <ele>266.4225</ele>
        <time>2013-03-29T13:46:32.000Z</time>
      </trkpt>
      <trkpt lat="43.22401" lon="5.37778">
        <ele>264.49988</ele>
        <time>2013-03-29T13:46:37.000Z</time>
      </trkpt>
      <trkpt lat="43.22399" lon="5.37779">
        <ele>262.57715</ele>
        <time>2013-03-29T13:46:40.000Z</time>
      </trkpt>
      <trkpt lat="43.224" lon="5.37781">
        <ele>261.61597</ele>
        <time>2013-03-29T13:46:44.000Z</time>
      </trkpt>
      <trkpt lat="43.22401" lon="5.37786">
        <ele>258.73193</ele>
        <time>2013-03-29T13:46:49.000Z</time>
      </trkpt>
      <trkpt lat="43.22397" lon="5.3779">
        <ele>256.32874</ele>
        <time>2013-03-29T13:46:53.000Z</time>
      </trkpt>
      <trkpt lat="43.22396" lon="5.3779">
        <ele>255.84802</ele>
        <time>2013-03-29T13:46:54.000Z</time>
      </trkpt>
      <trkpt lat="43.22393" lon="5.37797">
        <ele>253.4447</ele>
        <time>2013-03-29T13:46:58.000Z</time>
      </trkpt>
      <trkpt lat="43.22394" lon="5.3781">
        <ele>250.0802</ele>
        <time>2013-03-29T13:47:04.000Z</time>
      </trkpt>
      <trkpt lat="43.22393" lon="5.37815">
        <ele>249.11877</ele>
        <time>2013-03-29T13:47:07.000Z</time>
      </trkpt>
      <trkpt lat="43.22395" lon="5.37824">
        <ele>246.23486</ele>
        <time>2013-03-29T13:47:12.000Z</time>
      </trkpt>
      <trkpt lat="43.22397" lon="5.37826">
        <ele>245.75415</ele>
        <time>2013-03-29T13:47:14.000Z</time>
      </trkpt>
      <trkpt lat="43.224" lon="5.37835">
        <ele>244.31226</ele>
        <time>2013-03-29T13:47:19.000Z</time>
      </trkpt>
      <trkpt lat="43.22402" lon="5.3784">
        <ele>244.31226</ele>
        <time>2013-03-29T13:47:22.000Z</time>
      </trkpt>
      <trkpt lat="43.22401" lon="5.37847">
        <ele>245.75415</ele>
        <time>2013-03-29T13:47:27.000Z</time>
      </trkpt>
      <trkpt lat="43.22403" lon="5.37846">
        <ele>245.27344</ele>
        <time>2013-03-29T13:47:40.000Z</time>
      </trkpt>
      <trkpt lat="43.22405" lon="5.37848">
        <ele>249.11877</ele>
        <time>2013-03-29T13:47:48.000Z</time>
      </trkpt>
      <trkpt lat="43.22405" lon="5.37847">
        <ele>250.56079</ele>
        <time>2013-03-29T13:47:53.000Z</time>
      </trkpt>
      <trkpt lat="43.22404" lon="5.37846">
        <ele>263.05786</ele>
        <time>2013-03-29T13:48:12.000Z</time>
      </trkpt>
      <trkpt lat="43.22405" lon="5.37847">
        <ele>260.17395</ele>
        <time>2013-03-29T13:49:12.000Z</time>
      </trkpt>
      <trkpt lat="43.22409" lon="5.37843">
        <ele>247.19604</ele>
        <time>2013-03-29T13:50:44.000Z</time>
      </trkpt>
      <trkpt lat="43.22409" lon="5.37845">
        <ele>253.4447</ele>
        <time>2013-03-29T13:51:06.000Z</time>
      </trkpt>
      <trkpt lat="43.22412" lon="5.37854">
        <ele>263.05786</ele>
        <time>2013-03-29T13:51:23.000Z</time>
      </trkpt>
      <trkpt lat="43.22413" lon="5.37855">
        <ele>260.17395</ele>
        <time>2013-03-29T13:51:26.000Z</time>
      </trkpt>
      <trkpt lat="43.22422" lon="5.37862">
        <ele>249.59949</ele>
        <time>2013-03-29T13:51:32.000Z</time>
      </trkpt>
      <trkpt lat="43.22428" lon="5.37873">
        <ele>242.38965</ele>
        <time>2013-03-29T13:51:37.000Z</time>
      </trkpt>
      <trkpt lat="43.22432" lon="5.37884">
        <ele>238.0636</ele>
        <time>2013-03-29T13:51:41.000Z</time>
      </trkpt>
      <trkpt lat="43.2244" lon="5.37894">
        <ele>233.73767</ele>
        <time>2013-03-29T13:51:45.000Z</time>
      </trkpt>
      <trkpt lat="43.22441" lon="5.37896">
        <ele>231.81494</ele>
        <time>2013-03-29T13:51:46.000Z</time>
      </trkpt>
      <trkpt lat="43.22452" lon="5.3791">
        <ele>227.00854</ele>
        <time>2013-03-29T13:51:52.000Z</time>
      </trkpt>
      <trkpt lat="43.22457" lon="5.37921">
        <ele>223.6438</ele>
        <time>2013-03-29T13:51:56.000Z</time>
      </trkpt>
      <trkpt lat="43.22459" lon="5.37927">
        <ele>224.60522</ele>
        <time>2013-03-29T13:51:58.000Z</time>
      </trkpt>
      <trkpt lat="43.22465" lon="5.37925">
        <ele>225.56653</ele>
        <time>2013-03-29T13:52:02.000Z</time>
      </trkpt>
      <trkpt lat="43.22471" lon="5.37928">
        <ele>225.56653</ele>
        <time>2013-03-29T13:52:04.000Z</time>
      </trkpt>
      <trkpt lat="43.22483" lon="5.37938">
        <ele>224.60522</ele>
        <time>2013-03-29T13:52:09.000Z</time>
      </trkpt>
      <trkpt lat="43.22488" lon="5.37944">
        <ele>222.6825</ele>
        <time>2013-03-29T13:52:12.000Z</time>
      </trkpt>
      <trkpt lat="43.225" lon="5.37937">
        <ele>222.20178</ele>
        <time>2013-03-29T13:52:18.000Z</time>
      </trkpt>
      <trkpt lat="43.22507" lon="5.37929">
        <ele>222.20178</ele>
        <time>2013-03-29T13:52:22.000Z</time>
      </trkpt>
      <trkpt lat="43.2252" lon="5.3792">
        <ele>221.72119</ele>
        <time>2013-03-29T13:52:26.000Z</time>
      </trkpt>
      <trkpt lat="43.22525" lon="5.37917">
        <ele>221.72119</ele>
        <time>2013-03-29T13:52:30.000Z</time>
      </trkpt>
      <trkpt lat="43.2253" lon="5.37916">
        <ele>223.16321</ele>
        <time>2013-03-29T13:52:36.000Z</time>
      </trkpt>
      <trkpt lat="43.22538" lon="5.3792">
        <ele>224.60522</ele>
        <time>2013-03-29T13:52:40.000Z</time>
      </trkpt>
      <trkpt lat="43.22541" lon="5.37923">
        <ele>224.60522</ele>
        <time>2013-03-29T13:52:42.000Z</time>
      </trkpt>
      <trkpt lat="43.22546" lon="5.37924">
        <ele>225.56653</ele>
        <time>2013-03-29T13:52:47.000Z</time>
      </trkpt>
      <trkpt lat="43.22553" lon="5.37925">
        <ele>227.48914</ele>
        <time>2013-03-29T13:52:52.000Z</time>
      </trkpt>
      <trkpt lat="43.22558" lon="5.37926">
        <ele>229.41174</ele>
        <time>2013-03-29T13:52:56.000Z</time>
      </trkpt>
      <trkpt lat="43.22567" lon="5.37928">
        <ele>231.33435</ele>
        <time>2013-03-29T13:53:03.000Z</time>
      </trkpt>
      <trkpt lat="43.22572" lon="5.37932">
        <ele>233.25708</ele>
        <time>2013-03-29T13:53:08.000Z</time>
      </trkpt>
      <trkpt lat="43.22577" lon="5.37935">
        <ele>235.17969</ele>
        <time>2013-03-29T13:53:13.000Z</time>
      </trkpt>
      <trkpt lat="43.22582" lon="5.3794">
        <ele>237.58289</ele>
        <time>2013-03-29T13:53:19.000Z</time>
      </trkpt>
      <trkpt lat="43.22586" lon="5.37947">
        <ele>238.54431</ele>
        <time>2013-03-29T13:53:23.000Z</time>
      </trkpt>
      <trkpt lat="43.22591" lon="5.37955">
        <ele>239.5055</ele>
        <time>2013-03-29T13:53:28.000Z</time>
      </trkpt>
      <trkpt lat="43.22595" lon="5.3797">
        <ele>240.46704</ele>
        <time>2013-03-29T13:53:33.000Z</time>
      </trkpt>
      <trkpt lat="43.22599" lon="5.37982">
        <ele>239.9862</ele>
        <time>2013-03-29T13:53:37.000Z</time>
      </trkpt>
      <trkpt lat="43.22601" lon="5.37992">
        <ele>239.5055</ele>
        <time>2013-03-29T13:53:40.000Z</time>
      </trkpt>
      <trkpt lat="43.2261" lon="5.37996">
        <ele>240.46704</ele>
        <time>2013-03-29T13:53:45.000Z</time>
      </trkpt>
      <trkpt lat="43.22611" lon="5.37997">
        <ele>239.9862</ele>
        <time>2013-03-29T13:53:46.000Z</time>
      </trkpt>
      <trkpt lat="43.22617" lon="5.37997">
        <ele>242.87024</ele>
        <time>2013-03-29T13:53:51.000Z</time>
      </trkpt>
      <trkpt lat="43.22621" lon="5.38">
        <ele>243.83154</ele>
        <time>2013-03-29T13:53:56.000Z</time>
      </trkpt>
      <trkpt lat="43.22628" lon="5.38009">
        <ele>243.35083</ele>
        <time>2013-03-29T13:54:00.000Z</time>
      </trkpt>
      <trkpt lat="43.22632" lon="5.38025">
        <ele>243.83154</ele>
        <time>2013-03-29T13:54:05.000Z</time>
      </trkpt>
      <trkpt lat="43.22632" lon="5.38031">
        <ele>243.35083</ele>
        <time>2013-03-29T13:54:07.000Z</time>
      </trkpt>
      <trkpt lat="43.22636" lon="5.38041">
        <ele>243.35083</ele>
        <time>2013-03-29T13:54:11.000Z</time>
      </trkpt>
      <trkpt lat="43.22637" lon="5.38053">
        <ele>242.87024</ele>
        <time>2013-03-29T13:54:15.000Z</time>
      </trkpt>
      <trkpt lat="43.22637" lon="5.38056">
        <ele>242.87024</ele>
        <time>2013-03-29T13:54:16.000Z</time>
      </trkpt>
      <trkpt lat="43.22639" lon="5.38068">
        <ele>242.87024</ele>
        <time>2013-03-29T13:54:20.000Z</time>
      </trkpt>
      <trkpt lat="43.22641" lon="5.38077">
        <ele>242.38965</ele>
        <time>2013-03-29T13:54:24.000Z</time>
      </trkpt>
      <trkpt lat="43.22643" lon="5.38076">
        <ele>243.35083</ele>
        <time>2013-03-29T13:54:29.000Z</time>
      </trkpt>
      <trkpt lat="43.22643" lon="5.38075">
        <ele>244.31226</ele>
        <time>2013-03-29T13:54:35.000Z</time>
      </trkpt>
      <trkpt lat="43.22643" lon="5.38073">
        <ele>245.27344</ele>
        <time>2013-03-29T13:54:42.000Z</time>
      </trkpt>
      <trkpt lat="43.22644" lon="5.38073">
        <ele>248.1576</ele>
        <time>2013-03-29T13:54:48.000Z</time>
      </trkpt>
      <trkpt lat="43.22645" lon="5.38082">
        <ele>249.11877</ele>
        <time>2013-03-29T13:54:54.000Z</time>
      </trkpt>
      <trkpt lat="43.22649" lon="5.38099">
        <ele>249.11877</ele>
        <time>2013-03-29T13:55:00.000Z</time>
      </trkpt>
      <trkpt lat="43.22653" lon="5.38113">
        <ele>249.11877</ele>
        <time>2013-03-29T13:55:05.000Z</time>
      </trkpt>
      <trkpt lat="43.22657" lon="5.38124">
        <ele>248.1576</ele>
        <time>2013-03-29T13:55:09.000Z</time>
      </trkpt>
      <trkpt lat="43.22662" lon="5.38135">
        <ele>247.67676</ele>
        <time>2013-03-29T13:55:13.000Z</time>
      </trkpt>
      <trkpt lat="43.22662" lon="5.38136">
        <ele>246.71545</ele>
        <time>2013-03-29T13:55:14.000Z</time>
      </trkpt>
      <trkpt lat="43.22663" lon="5.38139">
        <ele>248.1576</ele>
        <time>2013-03-29T13:55:16.000Z</time>
      </trkpt>
      <trkpt lat="43.22671" lon="5.38148">
        <ele>248.63818</ele>
        <time>2013-03-29T13:55:21.000Z</time>
      </trkpt>
      <trkpt lat="43.22684" lon="5.38159">
        <ele>249.59949</ele>
        <time>2013-03-29T13:55:25.000Z</time>
      </trkpt>
      <trkpt lat="43.22694" lon="5.38171">
        <ele>250.0802</ele>
        <time>2013-03-29T13:55:30.000Z</time>
      </trkpt>
      <trkpt lat="43.22695" lon="5.38174">
        <ele>249.11877</ele>
        <time>2013-03-29T13:55:31.000Z</time>
      </trkpt>
      <trkpt lat="43.22702" lon="5.38179">
        <ele>249.11877</ele>
        <time>2013-03-29T13:55:34.000Z</time>
      </trkpt>
      <trkpt lat="43.22703" lon="5.38184">
        <ele>246.23486</ele>
        <time>2013-03-29T13:55:37.000Z</time>
      </trkpt>
      <trkpt lat="43.22714" lon="5.38194">
        <ele>244.31226</ele>
        <time>2013-03-29T13:55:43.000Z</time>
      </trkpt>
      <trkpt lat="43.22725" lon="5.38198">
        <ele>244.79285</ele>
        <time>2013-03-29T13:55:47.000Z</time>
      </trkpt>
      <trkpt lat="43.22734" lon="5.382">
        <ele>246.71545</ele>
        <time>2013-03-29T13:55:51.000Z</time>
      </trkpt>
      <trkpt lat="43.22738" lon="5.38203">
        <ele>247.67676</ele>
        <time>2013-03-29T13:55:53.000Z</time>
      </trkpt>
      <trkpt lat="43.22744" lon="5.38201">
        <ele>248.1576</ele>
        <time>2013-03-29T13:55:57.000Z</time>
      </trkpt>
      <trkpt lat="43.22754" lon="5.38195">
        <ele>249.11877</ele>
        <time>2013-03-29T13:56:02.000Z</time>
      </trkpt>
      <trkpt lat="43.22763" lon="5.38193">
        <ele>249.59949</ele>
        <time>2013-03-29T13:56:07.000Z</time>
      </trkpt>
      <trkpt lat="43.22772" lon="5.38187">
        <ele>251.04138</ele>
        <time>2013-03-29T13:56:11.000Z</time>
      </trkpt>
      <trkpt lat="43.22782" lon="5.38185">
        <ele>252.0028</ele>
        <time>2013-03-29T13:56:17.000Z</time>
      </trkpt>
      <trkpt lat="43.22788" lon="5.38185">
        <ele>252.96399</ele>
        <time>2013-03-29T13:56:20.000Z</time>
      </trkpt>
      <trkpt lat="43.22801" lon="5.38184">
        <ele>254.406</ele>
        <time>2013-03-29T13:56:26.000Z</time>
      </trkpt>
      <trkpt lat="43.22803" lon="5.38184">
        <ele>254.406</ele>
        <time>2013-03-29T13:56:27.000Z</time>
      </trkpt>
      <trkpt lat="43.22814" lon="5.38187">
        <ele>254.8866</ele>
        <time>2013-03-29T13:56:33.000Z</time>
      </trkpt>
      <trkpt lat="43.22819" lon="5.38193">
        <ele>255.84802</ele>
        <time>2013-03-29T13:56:38.000Z</time>
      </trkpt>
      <trkpt lat="43.22822" lon="5.38195">
        <ele>255.84802</ele>
        <time>2013-03-29T13:56:40.000Z</time>
      </trkpt>
      <trkpt lat="43.22832" lon="5.38205">
        <ele>257.29004</ele>
        <time>2013-03-29T13:56:46.000Z</time>
      </trkpt>
      <trkpt lat="43.22833" lon="5.38206">
        <ele>257.77075</ele>
        <time>2013-03-29T13:56:47.000Z</time>
      </trkpt>
      <trkpt lat="43.22838" lon="5.38211">
        <ele>258.25134</ele>
        <time>2013-03-29T13:56:51.000Z</time>
      </trkpt>
      <trkpt lat="43.22841" lon="5.38215">
        <ele>259.21265</ele>
        <time>2013-03-29T13:56:57.000Z</time>
      </trkpt>
      <trkpt lat="43.22839" lon="5.38213">
        <ele>259.21265</ele>
        <time>2013-03-29T13:57:04.000Z</time>
      </trkpt>
      <trkpt lat="43.22839" lon="5.38216">
        <ele>260.65454</ele>
        <time>2013-03-29T13:57:10.000Z</time>
      </trkpt>
      <trkpt lat="43.22842" lon="5.38215">
        <ele>262.09656</ele>
        <time>2013-03-29T13:57:19.000Z</time>
      </trkpt>
      <trkpt lat="43.22844" lon="5.38215">
        <ele>262.09656</ele>
        <time>2013-03-29T13:57:21.000Z</time>
      </trkpt>
      <trkpt lat="43.22848" lon="5.38214">
        <ele>262.09656</ele>
        <time>2013-03-29T13:57:26.000Z</time>
      </trkpt>
      <trkpt lat="43.22848" lon="5.38214">
        <ele>262.57715</ele>
        <time>2013-03-29T13:57:34.000Z</time>
      </trkpt>
      <trkpt lat="43.22851" lon="5.38213">
        <ele>262.09656</ele>
        <time>2013-03-29T13:57:36.000Z</time>
      </trkpt>
      <trkpt lat="43.22861" lon="5.38213">
        <ele>259.21265</ele>
        <time>2013-03-29T13:57:42.000Z</time>
      </trkpt>
      <trkpt lat="43.22868" lon="5.38218">
        <ele>258.25134</ele>
        <time>2013-03-29T13:57:46.000Z</time>
      </trkpt>
      <trkpt lat="43.22872" lon="5.38222">
        <ele>257.29004</ele>
        <time>2013-03-29T13:57:48.000Z</time>
      </trkpt>
      <trkpt lat="43.22885" lon="5.38226">
        <ele>254.406</ele>
        <time>2013-03-29T13:57:53.000Z</time>
      </trkpt>
      <trkpt lat="43.2289" lon="5.38225">
        <ele>253.92542</ele>
        <time>2013-03-29T13:57:54.000Z</time>
      </trkpt>
      <trkpt lat="43.229" lon="5.38223">
        <ele>252.0028</ele>
        <time>2013-03-29T13:57:59.000Z</time>
      </trkpt>
      <trkpt lat="43.2291" lon="5.38221">
        <ele>251.04138</ele>
        <time>2013-03-29T13:58:04.000Z</time>
      </trkpt>
      <trkpt lat="43.22916" lon="5.38225">
        <ele>249.11877</ele>
        <time>2013-03-29T13:58:09.000Z</time>
      </trkpt>
      <trkpt lat="43.2292" lon="5.38219">
        <ele>248.1576</ele>
        <time>2013-03-29T13:58:13.000Z</time>
      </trkpt>
      <trkpt lat="43.22923" lon="5.38217">
        <ele>246.23486</ele>
        <time>2013-03-29T13:58:17.000Z</time>
      </trkpt>
      <trkpt lat="43.22925" lon="5.38219">
        <ele>245.27344</ele>
        <time>2013-03-29T13:58:20.000Z</time>
      </trkpt>
      <trkpt lat="43.2293" lon="5.38222">
        <ele>244.31226</ele>
        <time>2013-03-29T13:58:25.000Z</time>
      </trkpt>
      <trkpt lat="43.22932" lon="5.38225">
        <ele>242.87024</ele>
        <time>2013-03-29T13:58:30.000Z</time>
      </trkpt>
      <trkpt lat="43.22937" lon="5.38232">
        <ele>244.79285</ele>
        <time>2013-03-29T13:58:35.000Z</time>
      </trkpt>
      <trkpt lat="43.22939" lon="5.38236">
        <ele>242.87024</ele>
        <time>2013-03-29T13:58:39.000Z</time>
      </trkpt>
      <trkpt lat="43.22935" lon="5.38239">
        <ele>240.94763</ele>
        <time>2013-03-29T13:58:44.000Z</time>
      </trkpt>
      <trkpt lat="43.22937" lon="5.38242">
        <ele>237.1023</ele>
        <time>2013-03-29T13:58:49.000Z</time>
      </trkpt>
      <trkpt lat="43.22943" lon="5.38244">
        <ele>235.17969</ele>
        <time>2013-03-29T13:58:52.000Z</time>
      </trkpt>
      <trkpt lat="43.22948" lon="5.38243">
        <ele>232.77649</ele>
        <time>2013-03-29T13:58:56.000Z</time>
      </trkpt>
      <trkpt lat="43.22955" lon="5.38247">
        <ele>229.89233</ele>
        <time>2013-03-29T13:59:02.000Z</time>
      </trkpt>
      <trkpt lat="43.22959" lon="5.38249">
        <ele>228.45044</ele>
        <time>2013-03-29T13:59:05.000Z</time>
      </trkpt>
      <trkpt lat="43.22963" lon="5.38252">
        <ele>226.52783</ele>
        <time>2013-03-29T13:59:09.000Z</time>
      </trkpt>
      <trkpt lat="43.22964" lon="5.38257">
        <ele>225.08594</ele>
        <time>2013-03-29T13:59:11.000Z</time>
      </trkpt>
      <trkpt lat="43.22968" lon="5.38261">
        <ele>224.12451</ele>
        <time>2013-03-29T13:59:14.000Z</time>
      </trkpt>
      <trkpt lat="43.22971" lon="5.38263">
        <ele>223.16321</ele>
        <time>2013-03-29T13:59:16.000Z</time>
      </trkpt>
      <trkpt lat="43.22978" lon="5.38272">
        <ele>221.72119</ele>
        <time>2013-03-29T13:59:20.000Z</time>
      </trkpt>
      <trkpt lat="43.22986" lon="5.3828">
        <ele>218.35657</ele>
        <time>2013-03-29T13:59:26.000Z</time>
      </trkpt>
      <trkpt lat="43.22989" lon="5.3828">
        <ele>217.87598</ele>
        <time>2013-03-29T13:59:28.000Z</time>
      </trkpt>
      <trkpt lat="43.22997" lon="5.38286">
        <ele>215.95325</ele>
        <time>2013-03-29T13:59:33.000Z</time>
      </trkpt>
      <trkpt lat="43.22999" lon="5.38292">
        <ele>214.99194</ele>
        <time>2013-03-29T13:59:35.000Z</time>
      </trkpt>
      <trkpt lat="43.23001" lon="5.38301">
        <ele>213.55005</ele>
        <time>2013-03-29T13:59:39.000Z</time>
      </trkpt>
      <trkpt lat="43.23002" lon="5.38303">
        <ele>214.03064</ele>
        <time>2013-03-29T13:59:46.000Z</time>
      </trkpt>
      <trkpt lat="43.23003" lon="5.3831">
        <ele>213.55005</ele>
        <time>2013-03-29T13:59:50.000Z</time>
      </trkpt>
      <trkpt lat="43.23005" lon="5.38311">
        <ele>213.06934</ele>
        <time>2013-03-29T13:59:55.000Z</time>
      </trkpt>
      <trkpt lat="43.23006" lon="5.38316">
        <ele>212.10803</ele>
        <time>2013-03-29T14:00:00.000Z</time>
      </trkpt>
      <trkpt lat="43.23006" lon="5.38317">
        <ele>213.06934</ele>
        <time>2013-03-29T14:00:10.000Z</time>
      </trkpt>
      <trkpt lat="43.23006" lon="5.38317">
        <ele>213.55005</ele>
        <time>2013-03-29T14:00:18.000Z</time>
      </trkpt>
      <trkpt lat="43.23006" lon="5.38316">
        <ele>214.03064</ele>
        <time>2013-03-29T14:00:23.000Z</time>
      </trkpt>
      <trkpt lat="43.23006" lon="5.38319">
        <ele>214.51123</ele>
        <time>2013-03-29T14:00:27.000Z</time>
      </trkpt>
      <trkpt lat="43.23009" lon="5.38336">
        <ele>213.06934</ele>
        <time>2013-03-29T14:00:32.000Z</time>
      </trkpt>
      <trkpt lat="43.23011" lon="5.38346">
        <ele>212.58862</ele>
        <time>2013-03-29T14:00:35.000Z</time>
      </trkpt>
      <trkpt lat="43.23011" lon="5.38349">
        <ele>212.58862</ele>
        <time>2013-03-29T14:00:36.000Z</time>
      </trkpt>
      <trkpt lat="43.23013" lon="5.3836">
        <ele>212.58862</ele>
        <time>2013-03-29T14:00:39.000Z</time>
      </trkpt>
      <trkpt lat="43.23014" lon="5.38373">
        <ele>213.06934</ele>
        <time>2013-03-29T14:00:44.000Z</time>
      </trkpt>
      <trkpt lat="43.23012" lon="5.38383">
        <ele>213.55005</ele>
        <time>2013-03-29T14:00:47.000Z</time>
      </trkpt>
      <trkpt lat="43.23013" lon="5.38386">
        <ele>213.55005</ele>
        <time>2013-03-29T14:00:48.000Z</time>
      </trkpt>
      <trkpt lat="43.23016" lon="5.38398">
        <ele>215.47266</ele>
        <time>2013-03-29T14:00:53.000Z</time>
      </trkpt>
      <trkpt lat="43.23018" lon="5.38408">
        <ele>215.47266</ele>
        <time>2013-03-29T14:00:56.000Z</time>
      </trkpt>
      <trkpt lat="43.2302" lon="5.38414">
        <ele>215.47266</ele>
        <time>2013-03-29T14:00:58.000Z</time>
      </trkpt>
      <trkpt lat="43.2303" lon="5.3843">
        <ele>213.55005</ele>
        <time>2013-03-29T14:01:04.000Z</time>
      </trkpt>
      <trkpt lat="43.23034" lon="5.3844">
        <ele>213.06934</ele>
        <time>2013-03-29T14:01:07.000Z</time>
      </trkpt>
      <trkpt lat="43.23039" lon="5.38453">
        <ele>212.58862</ele>
        <time>2013-03-29T14:01:11.000Z</time>
      </trkpt>
      <trkpt lat="43.23041" lon="5.38468">
        <ele>212.58862</ele>
        <time>2013-03-29T14:01:16.000Z</time>
      </trkpt>
      <trkpt lat="43.23045" lon="5.38485">
        <ele>211.14673</ele>
        <time>2013-03-29T14:01:21.000Z</time>
      </trkpt>
      <trkpt lat="43.23045" lon="5.38487">
        <ele>211.14673</ele>
        <time>2013-03-29T14:01:22.000Z</time>
      </trkpt>
      <trkpt lat="43.23046" lon="5.385">
        <ele>211.14673</ele>
        <time>2013-03-29T14:01:26.000Z</time>
      </trkpt>
      <trkpt lat="43.23044" lon="5.38518">
        <ele>211.14673</ele>
        <time>2013-03-29T14:01:31.000Z</time>
      </trkpt>
      <trkpt lat="43.23046" lon="5.38529">
        <ele>211.14673</ele>
        <time>2013-03-29T14:01:35.000Z</time>
      </trkpt>
      <trkpt lat="43.23045" lon="5.38537">
        <ele>211.14673</ele>
        <time>2013-03-29T14:01:39.000Z</time>
      </trkpt>
      <trkpt lat="43.23044" lon="5.38545">
        <ele>211.14673</ele>
        <time>2013-03-29T14:01:42.000Z</time>
      </trkpt>
      <trkpt lat="43.23045" lon="5.38547">
        <ele>210.66602</ele>
        <time>2013-03-29T14:01:43.000Z</time>
      </trkpt>
      <trkpt lat="43.23047" lon="5.38552">
        <ele>211.14673</ele>
        <time>2013-03-29T14:01:46.000Z</time>
      </trkpt>
      <trkpt lat="43.23049" lon="5.38559">
        <ele>210.66602</ele>
        <time>2013-03-29T14:01:50.000Z</time>
      </trkpt>
      <trkpt lat="43.2305" lon="5.3856">
        <ele>210.66602</ele>
        <time>2013-03-29T14:01:55.000Z</time>
      </trkpt>
      <trkpt lat="43.23049" lon="5.38561">
        <ele>209.70483</ele>
        <time>2013-03-29T14:02:01.000Z</time>
      </trkpt>
      <trkpt lat="43.2305" lon="5.38565">
        <ele>213.55005</ele>
        <time>2013-03-29T14:02:14.000Z</time>
      </trkpt>
      <trkpt lat="43.23051" lon="5.38563">
        <ele>214.03064</ele>
        <time>2013-03-29T14:02:19.000Z</time>
      </trkpt>
      <trkpt lat="43.23059" lon="5.38569">
        <ele>214.03064</ele>
        <time>2013-03-29T14:02:24.000Z</time>
      </trkpt>
      <trkpt lat="43.23062" lon="5.38578">
        <ele>212.10803</ele>
        <time>2013-03-29T14:02:28.000Z</time>
      </trkpt>
      <trkpt lat="43.23066" lon="5.38581">
        <ele>209.70483</ele>
        <time>2013-03-29T14:02:32.000Z</time>
      </trkpt>
      <trkpt lat="43.23066" lon="5.38583">
        <ele>208.74341</ele>
        <time>2013-03-29T14:02:34.000Z</time>
      </trkpt>
      <trkpt lat="43.23065" lon="5.38589">
        <ele>205.37878</ele>
        <time>2013-03-29T14:02:41.000Z</time>
      </trkpt>
      <trkpt lat="43.23069" lon="5.38592">
        <ele>205.37878</ele>
        <time>2013-03-29T14:02:45.000Z</time>
      </trkpt>
      <trkpt lat="43.23071" lon="5.3859">
        <ele>204.41748</ele>
        <time>2013-03-29T14:02:48.000Z</time>
      </trkpt>
      <trkpt lat="43.23074" lon="5.38591">
        <ele>203.45618</ele>
        <time>2013-03-29T14:02:50.000Z</time>
      </trkpt>
      <trkpt lat="43.23084" lon="5.38596">
        <ele>202.01428</ele>
        <time>2013-03-29T14:02:55.000Z</time>
      </trkpt>
      <trkpt lat="43.23085" lon="5.38595">
        <ele>202.01428</ele>
        <time>2013-03-29T14:02:56.000Z</time>
      </trkpt>
      <trkpt lat="43.23088" lon="5.38594">
        <ele>201.53357</ele>
        <time>2013-03-29T14:02:59.000Z</time>
      </trkpt>
      <trkpt lat="43.23092" lon="5.38591">
        <ele>200.09167</ele>
        <time>2013-03-29T14:03:03.000Z</time>
      </trkpt>
      <trkpt lat="43.23093" lon="5.38595">
        <ele>197.68823</ele>
        <time>2013-03-29T14:03:07.000Z</time>
      </trkpt>
      <trkpt lat="43.23097" lon="5.38589">
        <ele>196.72693</ele>
        <time>2013-03-29T14:03:11.000Z</time>
      </trkpt>
      <trkpt lat="43.23098" lon="5.38589">
        <ele>196.72693</ele>
        <time>2013-03-29T14:03:12.000Z</time>
      </trkpt>
      <trkpt lat="43.23101" lon="5.38594">
        <ele>195.76562</ele>
        <time>2013-03-29T14:03:17.000Z</time>
      </trkpt>
      <trkpt lat="43.231" lon="5.38596">
        <ele>195.28491</ele>
        <time>2013-03-29T14:03:19.000Z</time>
      </trkpt>
      <trkpt lat="43.23101" lon="5.38598">
        <ele>194.80432</ele>
        <time>2013-03-29T14:03:21.000Z</time>
      </trkpt>
      <trkpt lat="43.23106" lon="5.38602">
        <ele>193.84302</ele>
        <time>2013-03-29T14:03:25.000Z</time>
      </trkpt>
      <trkpt lat="43.23105" lon="5.38607">
        <ele>191.43958</ele>
        <time>2013-03-29T14:03:31.000Z</time>
      </trkpt>
      <trkpt lat="43.23107" lon="5.3861">
        <ele>189.99768</ele>
        <time>2013-03-29T14:03:35.000Z</time>
      </trkpt>
      <trkpt lat="43.23107" lon="5.3861">
        <ele>189.99768</ele>
        <time>2013-03-29T14:03:40.000Z</time>
      </trkpt>
      <trkpt lat="43.23105" lon="5.38607">
        <ele>189.51697</ele>
        <time>2013-03-29T14:03:45.000Z</time>
      </trkpt>
      <trkpt lat="43.23107" lon="5.38609">
        <ele>189.51697</ele>
        <time>2013-03-29T14:03:49.000Z</time>
      </trkpt>
      <trkpt lat="43.23107" lon="5.38609">
        <ele>189.51697</ele>
        <time>2013-03-29T14:03:55.000Z</time>
      </trkpt>
      <trkpt lat="43.23108" lon="5.38608">
        <ele>189.03638</ele>
        <time>2013-03-29T14:03:59.000Z</time>
      </trkpt>
      <trkpt lat="43.23109" lon="5.38607">
        <ele>188.07507</ele>
        <time>2013-03-29T14:04:04.000Z</time>
      </trkpt>
      <trkpt lat="43.23109" lon="5.38606">
        <ele>187.59436</ele>
        <time>2013-03-29T14:04:08.000Z</time>
      </trkpt>
      <trkpt lat="43.23109" lon="5.38606">
        <ele>187.59436</ele>
        <time>2013-03-29T14:04:14.000Z</time>
      </trkpt>
      <trkpt lat="43.23109" lon="5.38606">
        <ele>187.59436</ele>
        <time>2013-03-29T14:04:15.000Z</time>
      </trkpt>
      <trkpt lat="43.23116" lon="5.38607">
        <ele>188.07507</ele>
        <time>2013-03-29T14:04:20.000Z</time>
      </trkpt>
      <trkpt lat="43.23128" lon="5.38613">
        <ele>186.15247</ele>
        <time>2013-03-29T14:04:26.000Z</time>
      </trkpt>
      <trkpt lat="43.23137" lon="5.38615">
        <ele>181.82642</ele>
        <time>2013-03-29T14:04:30.000Z</time>
      </trkpt>
      <trkpt lat="43.23143" lon="5.38616">
        <ele>178.94263</ele>
        <time>2013-03-29T14:04:33.000Z</time>
      </trkpt>
      <trkpt lat="43.23153" lon="5.38622">
        <ele>175.09729</ele>
        <time>2013-03-29T14:04:39.000Z</time>
      </trkpt>
      <trkpt lat="43.23159" lon="5.38627">
        <ele>173.65527</ele>
        <time>2013-03-29T14:04:42.000Z</time>
      </trkpt>
      <trkpt lat="43.23166" lon="5.3863">
        <ele>171.25208</ele>
        <time>2013-03-29T14:04:46.000Z</time>
      </trkpt>
      <trkpt lat="43.23173" lon="5.38638">
        <ele>169.32947</ele>
        <time>2013-03-29T14:04:50.000Z</time>
      </trkpt>
      <trkpt lat="43.23177" lon="5.3864">
        <ele>168.84875</ele>
        <time>2013-03-29T14:04:51.000Z</time>
      </trkpt>
      <trkpt lat="43.23191" lon="5.38651">
        <ele>166.44531</ele>
        <time>2013-03-29T14:04:56.000Z</time>
      </trkpt>
      <trkpt lat="43.23193" lon="5.38653">
        <ele>165.48413</ele>
        <time>2013-03-29T14:04:57.000Z</time>
      </trkpt>
      <trkpt lat="43.232" lon="5.38659">
        <ele>163.08081</ele>
        <time>2013-03-29T14:05:01.000Z</time>
      </trkpt>
      <trkpt lat="43.23199" lon="5.38659">
        <ele>164.04211</ele>
        <time>2013-03-29T14:05:09.000Z</time>
      </trkpt>
      <trkpt lat="43.23199" lon="5.38657">
        <ele>164.04211</ele>
        <time>2013-03-29T14:05:13.000Z</time>
      </trkpt>
      <trkpt lat="43.23198" lon="5.38656">
        <ele>165.48413</ele>
        <time>2013-03-29T14:05:18.000Z</time>
      </trkpt>
      <trkpt lat="43.232" lon="5.38664">
        <ele>165.00342</ele>
        <time>2013-03-29T14:05:26.000Z</time>
      </trkpt>
      <trkpt lat="43.23201" lon="5.38667">
        <ele>165.48413</ele>
        <time>2013-03-29T14:05:27.000Z</time>
      </trkpt>
      <trkpt lat="43.23205" lon="5.38681">
        <ele>165.00342</ele>
        <time>2013-03-29T14:05:32.000Z</time>
      </trkpt>
      <trkpt lat="43.23211" lon="5.38689">
        <ele>165.00342</ele>
        <time>2013-03-29T14:05:38.000Z</time>
      </trkpt>
      <trkpt lat="43.2321" lon="5.38694">
        <ele>164.04211</ele>
        <time>2013-03-29T14:05:46.000Z</time>
      </trkpt>
      <trkpt lat="43.2321" lon="5.38697">
        <ele>162.6001</ele>
        <time>2013-03-29T14:05:52.000Z</time>
      </trkpt>
      <trkpt lat="43.23216" lon="5.38704">
        <ele>162.6001</ele>
        <time>2013-03-29T14:06:00.000Z</time>
      </trkpt>
      <trkpt lat="43.2322" lon="5.38708">
        <ele>164.04211</ele>
        <time>2013-03-29T14:06:04.000Z</time>
      </trkpt>
      <trkpt lat="43.23221" lon="5.3871">
        <ele>164.04211</ele>
        <time>2013-03-29T14:06:05.000Z</time>
      </trkpt>
      <trkpt lat="43.23225" lon="5.38715">
        <ele>165.48413</ele>
        <time>2013-03-29T14:06:10.000Z</time>
      </trkpt>
      <trkpt lat="43.23227" lon="5.38718">
        <ele>166.92603</ele>
        <time>2013-03-29T14:06:13.000Z</time>
      </trkpt>
      <trkpt lat="43.23228" lon="5.38721">
        <ele>167.40674</ele>
        <time>2013-03-29T14:06:15.000Z</time>
      </trkpt>
      <trkpt lat="43.23231" lon="5.38724">
        <ele>169.32947</ele>
        <time>2013-03-29T14:06:20.000Z</time>
      </trkpt>
      <trkpt lat="43.23233" lon="5.38728">
        <ele>171.73267</ele>
        <time>2013-03-29T14:06:26.000Z</time>
      </trkpt>
      <trkpt lat="43.23237" lon="5.38734">
        <ele>174.13586</ele>
        <time>2013-03-29T14:06:31.000Z</time>
      </trkpt>
      <trkpt lat="43.23239" lon="5.38735">
        <ele>174.13586</ele>
        <time>2013-03-29T14:06:32.000Z</time>
      </trkpt>
      <trkpt lat="43.23246" lon="5.38737">
        <ele>175.57788</ele>
        <time>2013-03-29T14:06:39.000Z</time>
      </trkpt>
      <trkpt lat="43.23248" lon="5.38737">
        <ele>176.0586</ele>
        <time>2013-03-29T14:06:40.000Z</time>
      </trkpt>
      <trkpt lat="43.23251" lon="5.3874">
        <ele>177.02002</ele>
        <time>2013-03-29T14:06:44.000Z</time>
      </trkpt>
      <trkpt lat="43.23256" lon="5.38745">
        <ele>179.90381</ele>
        <time>2013-03-29T14:06:51.000Z</time>
      </trkpt>
      <trkpt lat="43.23259" lon="5.38745">
        <ele>181.82642</ele>
        <time>2013-03-29T14:06:56.000Z</time>
      </trkpt>
      <trkpt lat="43.2326" lon="5.3875">
        <ele>182.30713</ele>
        <time>2013-03-29T14:07:02.000Z</time>
      </trkpt>
      <trkpt lat="43.23263" lon="5.38756">
        <ele>183.26843</ele>
        <time>2013-03-29T14:07:08.000Z</time>
      </trkpt>
      <trkpt lat="43.23268" lon="5.3876">
        <ele>184.22986</ele>
        <time>2013-03-29T14:07:14.000Z</time>
      </trkpt>
      <trkpt lat="43.23268" lon="5.38761">
        <ele>184.22986</ele>
        <time>2013-03-29T14:07:19.000Z</time>
      </trkpt>
      <trkpt lat="43.23266" lon="5.38759">
        <ele>184.71057</ele>
        <time>2013-03-29T14:07:24.000Z</time>
      </trkpt>
      <trkpt lat="43.23266" lon="5.38759">
        <ele>185.19116</ele>
        <time>2013-03-29T14:07:29.000Z</time>
      </trkpt>
      <trkpt lat="43.23267" lon="5.3876">
        <ele>185.67175</ele>
        <time>2013-03-29T14:07:34.000Z</time>
      </trkpt>
      <trkpt lat="43.23269" lon="5.38762">
        <ele>185.19116</ele>
        <time>2013-03-29T14:07:37.000Z</time>
      </trkpt>
      <trkpt lat="43.23271" lon="5.3877">
        <ele>183.74902</ele>
        <time>2013-03-29T14:07:40.000Z</time>
      </trkpt>
      <trkpt lat="43.23274" lon="5.38782">
        <ele>181.34583</ele>
        <time>2013-03-29T14:07:44.000Z</time>
      </trkpt>
      <trkpt lat="43.23276" lon="5.38795">
        <ele>179.42322</ele>
        <time>2013-03-29T14:07:48.000Z</time>
      </trkpt>
      <trkpt lat="43.23276" lon="5.38809">
        <ele>177.02002</ele>
        <time>2013-03-29T14:07:53.000Z</time>
      </trkpt>
      <trkpt lat="43.23276" lon="5.38824">
        <ele>175.09729</ele>
        <time>2013-03-29T14:08:00.000Z</time>
      </trkpt>
      <trkpt lat="43.23276" lon="5.38833">
        <ele>173.17468</ele>
        <time>2013-03-29T14:08:05.000Z</time>
      </trkpt>
      <trkpt lat="43.23277" lon="5.38841">
        <ele>171.73267</ele>
        <time>2013-03-29T14:08:09.000Z</time>
      </trkpt>
      <trkpt lat="43.2328" lon="5.38849">
        <ele>171.73267</ele>
        <time>2013-03-29T14:08:13.000Z</time>
      </trkpt>
      <trkpt lat="43.2328" lon="5.38857">
        <ele>170.77136</ele>
        <time>2013-03-29T14:08:16.000Z</time>
      </trkpt>
      <trkpt lat="43.23281" lon="5.3887">
        <ele>168.84875</ele>
        <time>2013-03-29T14:08:21.000Z</time>
      </trkpt>
      <trkpt lat="43.23284" lon="5.38877">
        <ele>167.40674</ele>
        <time>2013-03-29T14:08:24.000Z</time>
      </trkpt>
      <trkpt lat="43.23286" lon="5.38888">
        <ele>165.00342</ele>
        <time>2013-03-29T14:08:29.000Z</time>
      </trkpt>
      <trkpt lat="43.2329" lon="5.38898">
        <ele>162.6001</ele>
        <time>2013-03-29T14:08:34.000Z</time>
      </trkpt>
      <trkpt lat="43.23293" lon="5.38907">
        <ele>161.63892</ele>
        <time>2013-03-29T14:08:38.000Z</time>
      </trkpt>
      <trkpt lat="43.23294" lon="5.38915">
        <ele>160.1969</ele>
        <time>2013-03-29T14:08:41.000Z</time>
      </trkpt>
      <trkpt lat="43.23296" lon="5.38929">
        <ele>157.79358</ele>
        <time>2013-03-29T14:08:46.000Z</time>
      </trkpt>
      <trkpt lat="43.23299" lon="5.38939">
        <ele>155.87097</ele>
        <time>2013-03-29T14:08:51.000Z</time>
      </trkpt>
      <trkpt lat="43.23301" lon="5.38948">
        <ele>153.94836</ele>
        <time>2013-03-29T14:08:54.000Z</time>
      </trkpt>
      <trkpt lat="43.23301" lon="5.38959">
        <ele>151.06421</ele>
        <time>2013-03-29T14:08:59.000Z</time>
      </trkpt>
      <trkpt lat="43.23303" lon="5.38971">
        <ele>148.18042</ele>
        <time>2013-03-29T14:09:04.000Z</time>
      </trkpt>
      <trkpt lat="43.23303" lon="5.38976">
        <ele>147.219</ele>
        <time>2013-03-29T14:09:06.000Z</time>
      </trkpt>
      <trkpt lat="43.23298" lon="5.38992">
        <ele>144.3352</ele>
        <time>2013-03-29T14:09:11.000Z</time>
      </trkpt>
      <trkpt lat="43.23293" lon="5.39009">
        <ele>141.93176</ele>
        <time>2013-03-29T14:09:17.000Z</time>
      </trkpt>
      <trkpt lat="43.23291" lon="5.39013">
        <ele>141.93176</ele>
        <time>2013-03-29T14:09:19.000Z</time>
      </trkpt>
      <trkpt lat="43.23297" lon="5.39023">
        <ele>140.97046</ele>
        <time>2013-03-29T14:09:24.000Z</time>
      </trkpt>
      <trkpt lat="43.233" lon="5.39029">
        <ele>140.48987</ele>
        <time>2013-03-29T14:09:26.000Z</time>
      </trkpt>
      <trkpt lat="43.23302" lon="5.39033">
        <ele>140.00916</ele>
        <time>2013-03-29T14:09:28.000Z</time>
      </trkpt>
      <trkpt lat="43.23308" lon="5.39037">
        <ele>137.12524</ele>
        <time>2013-03-29T14:09:34.000Z</time>
      </trkpt>
      <trkpt lat="43.23311" lon="5.39035">
        <ele>136.16394</ele>
        <time>2013-03-29T14:09:37.000Z</time>
      </trkpt>
      <trkpt lat="43.23318" lon="5.39026">
        <ele>134.24121</ele>
        <time>2013-03-29T14:09:42.000Z</time>
      </trkpt>
      <trkpt lat="43.23321" lon="5.39021">
        <ele>133.7605</ele>
        <time>2013-03-29T14:09:44.000Z</time>
      </trkpt>
      <trkpt lat="43.23323" lon="5.3902">
        <ele>132.3186</ele>
        <time>2013-03-29T14:09:46.000Z</time>
      </trkpt>
      <trkpt lat="43.23331" lon="5.39022">
        <ele>129.91528</ele>
        <time>2013-03-29T14:09:51.000Z</time>
      </trkpt>
      <trkpt lat="43.2334" lon="5.3902">
        <ele>128.47339</ele>
        <time>2013-03-29T14:09:55.000Z</time>
      </trkpt>
      <trkpt lat="43.23347" lon="5.39023">
        <ele>127.99255</ele>
        <time>2013-03-29T14:09:59.000Z</time>
      </trkpt>
      <trkpt lat="43.23349" lon="5.39024">
        <ele>127.51196</ele>
        <time>2013-03-29T14:10:00.000Z</time>
      </trkpt>
      <trkpt lat="43.23358" lon="5.3903">
        <ele>125.108765</ele>
        <time>2013-03-29T14:10:03.000Z</time>
      </trkpt>
      <trkpt lat="43.23372" lon="5.39041">
        <ele>127.51196</ele>
        <time>2013-03-29T14:10:08.000Z</time>
      </trkpt>
      <trkpt lat="43.2338" lon="5.39052">
        <ele>126.55066</ele>
        <time>2013-03-29T14:10:12.000Z</time>
      </trkpt>
      <trkpt lat="43.23384" lon="5.39058">
        <ele>126.06995</ele>
        <time>2013-03-29T14:10:14.000Z</time>
      </trkpt>
      <trkpt lat="43.23391" lon="5.39069">
        <ele>124.14734</ele>
        <time>2013-03-29T14:10:19.000Z</time>
      </trkpt>
      <trkpt lat="43.234" lon="5.39079">
        <ele>122.705444</ele>
        <time>2013-03-29T14:10:23.000Z</time>
      </trkpt>
      <trkpt lat="43.23412" lon="5.39092">
        <ele>121.26355</ele>
        <time>2013-03-29T14:10:28.000Z</time>
      </trkpt>
      <trkpt lat="43.23425" lon="5.39106">
        <ele>117.41821</ele>
        <time>2013-03-29T14:10:33.000Z</time>
      </trkpt>
      <trkpt lat="43.2343" lon="5.3911">
        <ele>116.45679</ele>
        <time>2013-03-29T14:10:35.000Z</time>
      </trkpt>
      <trkpt lat="43.2344" lon="5.39118">
        <ele>114.05359</ele>
        <time>2013-03-29T14:10:39.000Z</time>
      </trkpt>
      <trkpt lat="43.23451" lon="5.3913">
        <ele>111.169556</ele>
        <time>2013-03-29T14:10:44.000Z</time>
      </trkpt>
      <trkpt lat="43.23461" lon="5.39146">
        <ele>109.24695</ele>
        <time>2013-03-29T14:10:49.000Z</time>
      </trkpt>
      <trkpt lat="43.23468" lon="5.39153">
        <ele>106.84363</ele>
        <time>2013-03-29T14:10:53.000Z</time>
      </trkpt>
      <trkpt lat="43.2347" lon="5.39154">
        <ele>106.36304</ele>
        <time>2013-03-29T14:10:54.000Z</time>
      </trkpt>
      <trkpt lat="43.23473" lon="5.39162">
        <ele>105.88245</ele>
        <time>2013-03-29T14:10:58.000Z</time>
      </trkpt>
      <trkpt lat="43.23471" lon="5.39164">
        <ele>105.40173</ele>
        <time>2013-03-29T14:11:01.000Z</time>
      </trkpt>
      <trkpt lat="43.2347" lon="5.39175">
        <ele>103.95972</ele>
        <time>2013-03-29T14:11:08.000Z</time>
      </trkpt>
      <trkpt lat="43.23464" lon="5.39181">
        <ele>100.59509</ele>
        <time>2013-03-29T14:11:13.000Z</time>
      </trkpt>
      <trkpt lat="43.23463" lon="5.39184">
        <ele>100.1145</ele>
        <time>2013-03-29T14:11:14.000Z</time>
      </trkpt>
      <trkpt lat="43.23463" lon="5.39196">
        <ele>99.63379</ele>
        <time>2013-03-29T14:11:18.000Z</time>
      </trkpt>
      <trkpt lat="43.23475" lon="5.39212">
        <ele>97.71118</ele>
        <time>2013-03-29T14:11:23.000Z</time>
      </trkpt>
      <trkpt lat="43.2349" lon="5.39229">
        <ele>97.71118</ele>
        <time>2013-03-29T14:11:28.000Z</time>
      </trkpt>
      <trkpt lat="43.23503" lon="5.39239">
        <ele>97.23047</ele>
        <time>2013-03-29T14:11:32.000Z</time>
      </trkpt>
      <trkpt lat="43.23516" lon="5.3924">
        <ele>94.82715</ele>
        <time>2013-03-29T14:11:36.000Z</time>
      </trkpt>
      <trkpt lat="43.23533" lon="5.39249">
        <ele>94.34656</ele>
        <time>2013-03-29T14:11:41.000Z</time>
      </trkpt>
      <trkpt lat="43.23543" lon="5.39252">
        <ele>89.53992</ele>
        <time>2013-03-29T14:11:45.000Z</time>
      </trkpt>
      <trkpt lat="43.23551" lon="5.3926">
        <ele>86.656006</ele>
        <time>2013-03-29T14:11:49.000Z</time>
      </trkpt>
      <trkpt lat="43.23564" lon="5.39253">
        <ele>84.252686</ele>
        <time>2013-03-29T14:11:54.000Z</time>
      </trkpt>
      <trkpt lat="43.23579" lon="5.39246">
        <ele>82.81079</ele>
        <time>2013-03-29T14:11:59.000Z</time>
      </trkpt>
      <trkpt lat="43.23583" lon="5.39246">
        <ele>82.33008</ele>
        <time>2013-03-29T14:12:01.000Z</time>
      </trkpt>
    </trkseg>
  </trk>
</gpx>